[[{"header":{"parameterUnit":"m.s-1","parameterCategory":1,"la1":30.6,"la2":28.766,"lo1":-90.7593,"lo2":-88.6598,"dy":0.0162,"dx":0.0183,"nx":116,"ny":114,"refTime":"2023-09-04T12:00:00:Z","depth":0,"parameterNumber":2,"parameterNumberName":"U-component_of_WINDS"},"data":[0.0,0.0,0.0,0.0,0.0,0.0,0.0,0.0,0.0,0.0,0.0,0.0,0.0,0.0,0.0,0.0,0.0,0.0,0.0,0.0,0.0,0.0,0.0,0.0,0.0,0.0,0.0,0.0,0.0,0.0,0.0,0.0,0.0,0.0,0.0,0.0,0.0,0.0,0.0,0.0,0.0,0.0,0.0,0.0,0.0,0.0,0.0,0.0,0.0,0.0,0.0,0.0,0.0,0.0,0.0,0.0,0.0,0.0,0.0,0.0,0.0,0.0,0.0,0.0,0.0,0.0,0.0,0.0,0.0,0.0,0.0,0.0,0.0,0.0,0.0,0.0,0.0,0.0,0.0,0.0,0.0,0.0,0.0,0.0,0.0,0.0,0.0,0.0,0.0,0.0,0.0,0.0,0.0,0.0,0.0,0.0,0.0,0.0,0.0,0.0,0.0,0.0,0.0,0.0,0.0,0.0,0.0,0.0,0.0,0.0,0.0,0.0,0.0,0.0,0.0,0.0,0.0,0.0,0.0,0.0,0.0,0.0,0.0,0.0,0.0,0.0,0.0,0.0,0.0,0.0,0.0,0.0,0.0,0.0,0.0,0.0,0.0,0.0,0.0,0.0,0.0,0.0,0.0,0.0,0.0,0.0,0.0,0.0,0.0,0.0,0.0,0.0,0.0,0.0,0.0,0.0,0.0,0.0,0.0,0.0,0.0,0.0,0.0,0.0,0.0,0.0,0.0,0.0,0.0,0.0,0.0,0.0,0.0,0.0,0.0,0.0,0.0,0.0,0.0,0.0,0.0,0.0,0.0,0.0,0.0,0.0,0.0,0.0,0.0,0.0,0.0,0.0,0.0,0.0,0.0,0.0,0.0,0.0,0.0,0.0,0.0,0.0,0.0,0.0,0.0,0.0,0.0,0.0,0.0,0.0,0.0,0.0,0.0,0.0,0.0,0.0,0.0,0.0,0.0,0.0,0.0,0.0,0.0,0.0,0.0,0.0,0.0,0.0,0.0,0.0,0.0,0.0,0.0,0.0,0.0,0.0,0.0,0.0,0.0,0.0,0.0,0.0,0.0,0.0,0.0,0.0,0.0,0.0,0.0,0.0,0.0,0.0,0.0,0.0,0.0,0.0,0.0,0.0,0.0,0.0,0.0,0.0,0.0,0.0,0.0,0.0,0.0,0.0,0.0,0.0,0.0,0.0,0.0,0.0,0.0,0.0,0.0,0.0,0.0,0.0,0.0,0.0,0.0,0.0,0.0,0.0,0.0,0.0,0.0,0.0,0.0,0.0,0.0,0.0,0.0,0.0,0.0,0.0,0.0,0.0,0.0,0.0,0.0,0.0,0.0,0.0,0.0,0.0,0.0,0.0,0.0,0.0,0.0,0.0,0.0,0.0,0.0,0.0,0.0,0.0,0.0,0.0,0.0,0.0,0.0,0.0,0.0,0.0,0.0,0.0,0.0,0.0,0.0,0.0,0.0,0.0,0.0,0.0,0.0,0.0,0.0,0.0,0.0,0.0,0.0,0.0,0.0,0.0,0.0,0.0,0.0,0.0,0.0,0.0,0.0,0.0,0.0,0.0,0.0,0.0,0.0,0.0,0.0,0.0,0.0,0.0,0.0,0.0,0.0,0.0,0.0,0.0,0.0,0.0,0.0,0.0,0.0,0.0,0.0,0.0,0.0,0.0,0.0,0.0,0.0,0.0,0.0,0.0,0.0,0.0,0.0,0.0,0.0,0.0,0.0,0.0,0.0,0.0,0.0,0.0,0.0,0.0,0.0,0.0,0.0,0.0,0.0,0.0,0.0,0.0,0.0,0.0,0.0,0.0,0.0,0.0,0.0,0.0,0.0,0.0,0.0,0.0,0.0,0.0,0.0,0.0,0.0,0.0,0.0,0.0,0.0,0.0,0.0,0.0,0.0,0.0,0.0,0.0,0.0,0.0,0.0,0.0,0.0,0.0,0.0,0.0,0.0,0.0,0.0,0.0,0.0,0.0,0.0,0.0,0.0,0.0,0.0,0.0,0.0,0.0,0.0,0.0,0.0,0.0,0.0,0.0,0.0,0.0,0.0,0.0,0.0,0.0,0.0,0.0,0.0,0.0,0.0,0.0,0.0,0.0,0.0,0.0,0.0,0.0,0.0,0.0,0.0,0.0,0.0,0.0,0.0,0.0,0.0,0.0,0.0,0.0,0.0,0.0,0.0,0.0,0.0,0.0,0.0,0.0,0.0,0.0,0.0,0.0,0.0,0.0,0.0,0.0,0.0,0.0,0.0,0.0,0.0,0.0,0.0,0.0,0.0,0.0,0.0,0.0,0.0,0.0,0.0,0.0,0.0,0.0,0.0,0.0,0.0,0.0,0.0,0.0,0.0,0.0,0.0,0.0,0.0,0.0,0.0,0.0,0.0,0.0,0.0,0.0,0.0,0.0,0.0,0.0,0.0,0.0,0.0,0.0,0.0,0.0,0.0,0.0,0.0,0.0,0.0,0.0,0.0,0.0,0.0,0.0,0.0,0.0,0.0,0.0,0.0,0.0,0.0,0.0,0.0,0.0,0.0,0.0,0.0,0.0,0.0,0.0,0.0,0.0,0.0,0.0,0.0,0.0,0.0,0.0,0.0,0.0,0.0,0.0,0.0,0.0,0.0,0.0,0.0,0.0,0.0,0.0,0.0,0.0,0.0,0.0,0.0,0.0,0.0,0.0,0.0,0.0,0.0,0.0,0.0,0.0,0.0,0.0,0.0,0.0,0.0,0.0,0.0,0.0,0.0,0.0,0.0,0.0,0.0,0.0,0.0,0.0,0.0,0.0,0.0,0.0,0.0,0.0,0.0,0.0,0.0,0.0,0.0,0.0,0.0,0.0,0.0,0.0,0.0,0.0,0.0,0.0,0.0,0.0,0.0,0.0,0.0,0.0,0.0,0.0,0.0,0.0,0.0,0.0,0.0,0.0,0.0,0.0,0.0,0.0,0.0,0.0,0.0,0.0,0.0,0.0,0.0,0.0,0.0,0.0,0.0,0.0,0.0,0.0,0.0,0.0,0.0,0.0,0.0,0.0,0.0,0.0,0.0,0.0,0.0,0.0,0.0,0.0,0.0,0.0,0.0,0.0,0.0,0.0,0.0,0.0,0.0,0.0,0.0,0.0,0.0,0.0,0.0,0.0,0.0,0.0,0.0,0.0,0.0,0.0,0.0,0.0,0.0,0.0,0.0,0.0,0.0,0.0,0.0,0.0,0.0,0.0,0.0,0.0,0.0,0.0,0.0,0.0,0.0,0.0,0.0,0.0,0.0,0.0,0.0,0.0,0.0,0.0,0.0,0.0,0.0,0.0,0.0,0.0,0.0,0.0,0.0,0.0,0.0,0.0,0.0,0.0,0.0,0.0,0.0,0.0,0.0,0.0,0.0,0.0,0.0,0.0,0.0,0.0,0.0,0.0,0.0,0.0,0.0,0.0,0.0,0.0,0.0,0.0,0.0,0.0,0.0,0.0,0.0,0.0,0.0,0.0,0.0,0.0,0.0,0.0,0.0,0.0,0.0,0.0,0.0,0.0,0.0,0.0,0.0,0.0,0.0,0.0,0.0,0.0,0.0,0.0,0.0,0.0,0.0,0.0,0.0,0.0,0.0,0.0,0.0,0.0,0.0,0.0,0.0,0.0,0.0,0.0,0.0,0.0,0.0,0.0,0.0,0.0,0.0,0.0,0.0,0.0,0.0,0.0,0.0,0.0,0.0,0.0,0.0,0.0,0.0,0.0,0.0,0.0,0.0,0.0,0.0,0.0,0.0,0.0,0.0,0.0,0.0,0.0,0.0,0.0,0.0,0.0,0.0,0.0,0.0,0.0,0.0,0.0,0.0,0.0,0.0,0.0,0.0,0.0,0.0,0.0,0.0,0.0,0.0,0.0,0.0,0.0,0.0,0.0,0.0,0.0,0.0,0.0,0.0,0.0,0.0,0.0,0.0,0.0,0.0,0.0,0.0,0.0,0.0,0.0,0.0,0.0,0.0,0.0,0.0,0.0,0.0,0.0,0.0,0.0,0.0,0.0,0.0,0.0,0.0,0.0,0.0,0.0,0.0,0.0,0.0,0.0,0.0,0.0,0.0,0.0,0.0,0.0,0.0,0.0,0.0,0.0,0.0,0.0,0.0,0.0,0.0,0.0,0.0,0.0,0.0,0.0,0.0,0.0,0.0,0.0,0.0,0.0,0.0,0.0,0.0,0.0,0.0,0.0,0.0,0.0,0.0,0.0,0.0,0.0,0.0,0.0,0.0,0.0,0.0,0.0,0.0,0.0,0.0,0.0,0.0,0.0,0.0,0.0,0.0,0.0,0.0,0.0,0.0,0.0,0.0,0.0,0.0,0.0,0.0,0.0,0.0,0.0,0.0,0.0,0.0,0.0,0.0,0.0,0.0,0.0,0.0,0.0,0.0,0.0,0.0,0.0,0.0,0.0,0.0,0.0,0.0,0.0,0.0,0.0,0.0,0.0,0.0,0.0,0.0,0.0,0.0,0.0,0.0,0.0,0.0,0.0,0.0,0.0,0.0,0.0,0.0,0.0,0.0,0.0,0.0,0.0,0.0,0.0,0.0,0.0,0.0,0.0,0.0,0.0,0.0,0.0,0.0,0.0,0.0,0.0,0.0,0.0,0.0,0.0,0.0,0.0,0.0,0.0,0.0,0.0,0.0,0.0,0.0,0.0,0.0,0.0,0.0,0.0,0.0,0.0,0.0,0.0,0.0,0.0,0.0,0.0,0.0,0.0,0.0,0.0,0.0,0.0,0.0,0.0,0.0,0.0,0.0,0.0,0.0,0.0,0.0,0.0,0.0,0.0,0.0,0.0,0.0,0.0,0.0,0.0,0.0,0.0,0.0,0.0,0.0,0.0,0.0,0.0,0.0,0.0,0.0,0.0,0.0,0.0,0.0,0.0,0.0,0.0,0.0,0.0,0.0,0.0,0.0,0.0,0.0,0.0,0.0,0.0,0.0,0.0,0.0,0.0,0.0,0.0,0.0,0.0,0.0,0.0,0.0,0.0,0.0,0.0,0.0,0.0,0.0,0.0,0.0,0.0,0.0,0.0,0.0,0.0,0.0,0.0,0.0,0.0,0.0,0.0,0.0,0.0,0.0,0.0,0.0,0.0,0.0,0.0,0.0,0.0,0.0,0.0,0.0,0.0,0.0,0.0,0.0,0.0,0.0,0.0,0.0,0.0,0.0,0.0,0.0,0.0,0.0,0.0,0.0,0.0,0.0,0.0,0.0,0.0,0.0,0.0,0.0,0.0,0.0,0.0,0.0,0.0,0.0,0.0,0.0,0.0,0.0,0.0,0.0,0.0,0.0,0.0,0.0,0.0,0.0,0.0,0.0,0.0,0.0,0.0,0.0,0.0,0.0,0.0,0.0,0.0,0.0,0.0,0.0,0.0,0.0,0.0,0.0,0.0,0.0,0.0,0.0,0.0,0.0,0.0,0.0,0.0,0.0,0.0,0.0,0.0,0.0,0.0,0.0,0.0,0.0,0.0,0.0,0.0,0.0,0.0,0.0,0.0,0.0,0.0,0.0,0.0,0.0,0.0,0.0,0.0,0.0,0.0,0.0,0.0,0.0,0.0,0.0,0.0,0.0,0.0,0.0,0.0,0.0,0.0,0.0,0.0,0.0,0.0,0.0,0.0,0.0,0.0,0.0,0.0,0.0,0.0,0.0,0.0,0.0,0.0,0.0,0.0,0.0,0.0,0.0,0.0,0.0,0.0,0.0,0.0,0.0,0.0,0.0,0.0,0.0,0.0,0.0,0.0,0.0,0.0,0.0,0.0,0.0,0.0,0.0,0.0,0.0,0.0,0.0,0.0,0.0,0.0,0.0,0.0,0.0,0.0,0.0,0.0,0.0,0.0,0.0,0.0,0.0,0.0,0.0,0.0,0.0,0.0,0.0,0.0,0.0,0.0,0.0,0.0,0.0,0.0,0.0,0.0,0.0,0.0,0.0,0.0,0.0,0.0,0.0,0.0,0.0,0.0,0.0,0.0,0.0,0.0,0.0,0.0,0.0,0.0,0.0,0.0,0.0,0.0,0.0,0.0,0.0,0.0,0.0,0.0,-1.5828,-1.5392,0.0,0.0,0.0,0.0,0.0,0.0,0.0,0.0,0.0,0.0,0.0,0.0,0.0,0.0,0.0,0.0,0.0,0.0,0.0,0.0,0.0,0.0,0.0,0.0,0.0,0.0,0.0,0.0,0.0,0.0,0.0,0.0,0.0,0.0,0.0,0.0,0.0,0.0,-2.1379,-2.1619,-2.2222,-2.1873,-2.1635,-2.1493,0.0,0.0,0.0,0.0,0.0,0.0,0.0,0.0,0.0,0.0,0.0,0.0,0.0,0.0,0.0,0.0,0.0,0.0,0.0,0.0,0.0,0.0,0.0,0.0,0.0,0.0,0.0,0.0,0.0,0.0,0.0,0.0,0.0,0.0,0.0,0.0,0.0,0.0,0.0,0.0,0.0,0.0,0.0,0.0,0.0,0.0,0.0,0.0,0.0,0.0,0.0,0.0,0.0,0.0,0.0,0.0,0.0,0.0,0.0,0.0,0.0,0.0,0.0,0.0,0.0,0.0,0.0,0.0,0.0,0.0,-1.6792,-1.6326,0.0,0.0,0.0,0.0,0.0,0.0,0.0,0.0,0.0,0.0,0.0,0.0,0.0,0.0,0.0,0.0,0.0,0.0,0.0,0.0,0.0,0.0,0.0,-1.7306,-1.7306,-1.7306,-1.7306,-1.7334,0.0,0.0,0.0,0.0,0.0,0.0,0.0,0.0,0.0,-2.2146,-2.2277,-2.2531,-2.2936,-2.2965,-2.2595,-2.1867,-2.1867,0.0,0.0,0.0,0.0,0.0,0.0,0.0,0.0,0.0,0.0,0.0,0.0,0.0,0.0,0.0,0.0,0.0,0.0,0.0,0.0,0.0,0.0,0.0,0.0,0.0,0.0,0.0,0.0,0.0,0.0,0.0,0.0,0.0,0.0,0.0,0.0,0.0,0.0,0.0,0.0,0.0,0.0,0.0,0.0,0.0,0.0,0.0,0.0,0.0,0.0,0.0,0.0,0.0,0.0,0.0,0.0,0.0,0.0,0.0,0.0,0.0,0.0,0.0,-1.8687,-1.8731,-1.8818,-1.8818,-1.8862,-1.8895,-1.8108,-1.7711,-1.7558,-1.7558,0.0,0.0,0.0,0.0,0.0,0.0,0.0,0.0,0.0,0.0,0.0,0.0,0.0,0.0,0.0,0.0,0.0,0.0,0.0,0.0,0.0,-1.7306,-1.7306,-1.7306,-1.7306,-1.7518,-1.7968,0.0,0.0,0.0,0.0,0.0,0.0,-2.1323,-2.1896,-2.2709,-2.3325,-2.3609,-2.3483,-2.3673,-2.3605,-2.3309,-2.3309,-2.3309,-2.3322,0.0,0.0,0.0,0.0,0.0,0.0,0.0,0.0,0.0,0.0,0.0,0.0,0.0,0.0,0.0,0.0,0.0,0.0,0.0,0.0,0.0,0.0,0.0,0.0,0.0,0.0,0.0,0.0,0.0,0.0,0.0,0.0,0.0,0.0,0.0,0.0,0.0,0.0,0.0,0.0,0.0,-2.1675,-2.1675,0.0,0.0,0.0,0.0,0.0,0.0,0.0,0.0,0.0,0.0,0.0,0.0,0.0,-1.9549,-1.9579,-1.8977,-1.8687,-1.8687,-1.8687,-1.8916,-1.9321,-1.9321,-1.9518,-1.9911,-1.9791,0.0,-1.8531,-1.8531,0.0,0.0,0.0,0.0,0.0,0.0,0.0,0.0,0.0,0.0,0.0,0.0,0.0,0.0,0.0,0.0,0.0,0.0,0.0,0.0,0.0,-1.7306,-1.7306,-1.7306,-1.7306,-1.7407,-1.7645,-1.8197,0.0,0.0,0.0,-2.1312,-2.2152,-2.2397,-2.2879,-2.3531,-2.3849,-2.4128,-2.4376,-2.4141,-2.429,-2.4823,-2.4536,-2.4086,-2.3628,-2.3897,0.0,0.0,0.0,0.0,0.0,0.0,0.0,0.0,0.0,0.0,0.0,0.0,0.0,0.0,0.0,0.0,0.0,0.0,0.0,0.0,0.0,0.0,0.0,0.0,0.0,0.0,0.0,0.0,0.0,0.0,0.0,0.0,0.0,0.0,0.0,0.0,0.0,0.0,0.0,-2.2613,-2.2741,-2.2655,-2.2671,-2.2728,0.0,0.0,0.0,0.0,0.0,0.0,0.0,0.0,0.0,-2.195,-2.1716,-2.1535,-2.1535,-2.1138,-2.0933,-2.0933,-2.0533,-2.0435,-2.0642,-2.0642,-2.0751,-2.0959,-2.0959,-2.0708,-2.026,-1.9441,-1.9102,-1.9102,0.0,0.0,0.0,0.0,-1.9475,-1.9442,0.0,0.0,0.0,0.0,0.0,0.0,0.0,0.0,0.0,0.0,0.0,0.0,-1.7306,-1.7306,-1.7306,-1.7306,-1.7434,-1.7645,-1.7924,-1.889,-1.9718,0.0,0.0,-2.2281,-2.3041,-2.3282,-2.3639,-2.4067,-2.4083,-2.4345,-2.475,-2.4476,-2.4765,-2.5577,-2.5314,-2.4808,-2.4176,-2.4595,-2.4879,-2.5091,0.0,0.0,0.0,0.0,0.0,0.0,0.0,0.0,0.0,0.0,0.0,0.0,0.0,0.0,0.0,0.0,0.0,0.0,0.0,0.0,0.0,0.0,0.0,0.0,0.0,0.0,0.0,0.0,0.0,0.0,0.0,0.0,0.0,0.0,0.0,0.0,0.0,-2.3437,-2.3569,-2.3522,-2.3772,-2.3878,0.0,0.0,0.0,0.0,0.0,0.0,-2.4321,-2.385,-2.3649,-2.3788,-2.3572,-2.3445,-2.3445,-2.2946,-2.2866,-2.3198,-2.2339,-2.2169,-2.265,-2.2508,-2.2479,-2.2504,-2.2504,-2.2355,-2.2018,-2.0566,-1.9976,-1.9976,-1.9976,-2.0194,-2.0478,-2.0478,-2.0478,-2.0434,0.0,0.0,0.0,0.0,0.0,0.0,0.0,0.0,0.0,0.0,0.0,-1.7306,-1.7306,-1.7306,-1.7306,-1.7306,-1.776,-1.8518,-1.9605,-2.0264,-2.1107,-2.2214,-2.2802,-2.3128,-2.3195,-2.3757,-2.3998,-2.392,-2.4037,-2.4112,-2.4171,-2.4706,-2.4977,-2.5061,-2.555,-2.5728,-2.5673,-2.5591,-2.5864,-2.6404,-2.6484,0.0,0.0,0.0,0.0,0.0,0.0,0.0,0.0,0.0,0.0,0.0,0.0,0.0,0.0,0.0,0.0,0.0,0.0,0.0,0.0,0.0,0.0,0.0,0.0,0.0,0.0,0.0,0.0,0.0,0.0,0.0,0.0,0.0,0.0,0.0,0.0,0.0,0.0,-2.3861,-2.4008,0.0,0.0,0.0,0.0,-2.4083,-2.4083,-2.4347,-2.4926,-2.4922,-2.514,-2.5657,-2.5046,-2.4714,-2.4714,-2.3378,-2.3346,-2.4594,-2.3397,-2.3771,-2.5462,-2.5045,-2.4873,-2.4926,-2.4926,-2.4426,-2.3465,-2.2073,-2.1483,-2.1483,-2.1483,-2.1494,-2.1516,-2.1516,-2.1516,-2.1516,0.0,0.0,0.0,0.0,0.0,0.0,0.0,0.0,-1.7767,-1.7573,-1.7545,-1.7501,-1.7306,-1.7617,-1.7815,-1.7815,-1.7995,-1.8445,-1.9239,-2.0177,-2.1005,-2.165,-2.3021,-2.377,-2.377,-2.3979,-2.4083,-2.4037,-2.4476,-2.4677,-2.4677,-2.4892,-2.5188,-2.5508,-2.5342,-2.5481,-2.581,-2.6149,-2.6431,-2.6669,-2.7034,-2.7346,0.0,0.0,0.0,0.0,0.0,0.0,0.0,0.0,0.0,0.0,0.0,0.0,0.0,0.0,0.0,0.0,0.0,0.0,0.0,0.0,0.0,0.0,0.0,0.0,0.0,0.0,0.0,0.0,0.0,0.0,0.0,0.0,0.0,0.0,0.0,0.0,0.0,-2.3891,-2.4037,0.0,-2.4622,-2.4661,-2.4818,-2.5153,-2.5179,-2.5271,-2.5511,-2.5511,-2.5847,-2.6564,-2.6681,-2.6934,-2.7324,-2.6678,-2.6602,-2.7085,-2.5766,-2.5573,-2.6326,-2.5786,-2.5367,-2.5122,-2.5122,-2.4748,-2.4181,-2.3667,-2.2903,-2.2029,-2.1712,-2.1592,-2.1592,-2.1592,-2.1592,-2.1592,0.0,0.0,0.0,0.0,0.0,0.0,0.0,0.0,-1.7904,-1.7711,-1.7629,-1.7573,-1.7562,-1.7744,-1.7968,-1.8375,-1.8402,-1.8824,-1.9778,-2.0736,-2.1547,-2.2208,-2.3434,-2.4083,-2.4083,-2.4083,-2.4083,-2.4083,-2.4505,-2.4706,-2.4706,-2.5081,-2.5475,-2.5799,-2.5837,-2.6075,-2.6414,-2.6616,-2.659,-2.6457,-2.7034,-2.7306,-2.7331,0.0,0.0,0.0,0.0,0.0,0.0,0.0,0.0,0.0,0.0,0.0,0.0,0.0,0.0,0.0,0.0,0.0,0.0,0.0,0.0,0.0,0.0,0.0,0.0,0.0,0.0,0.0,0.0,0.0,0.0,0.0,0.0,0.0,0.0,-2.3907,-2.4103,-2.4239,-2.4354,-2.4622,-2.5197,-2.5262,-2.5497,-2.6059,-2.6112,-2.6282,-2.6661,-2.6687,-2.7059,-2.7848,-2.8218,-2.8635,-2.9114,-2.8695,-2.8751,-2.9174,-2.7879,-2.7463,-2.7811,-2.7263,-2.6667,-2.6052,-2.6052,-2.5786,-2.5416,-2.522,-2.4614,-2.3642,-2.3043,-2.2772,-2.2808,-2.2953,-2.2914,-2.27,0.0,0.0,0.0,0.0,0.0,0.0,0.0,-1.8186,-1.7767,-1.7767,-1.7518,-1.7562,-1.8066,-1.7689,-1.781,-1.8934,-1.9013,-1.9743,-2.1398,-2.2034,-2.2895,-2.4031,-2.4083,-2.4083,-2.4083,-2.4083,-2.4083,-2.4083,-2.4112,-2.4125,-2.4151,-2.5311,-2.5817,-2.5871,-2.709,-2.7603,-2.7561,-2.6974,-2.6358,-2.5866,-2.6472,-2.6709,-2.6762,0.0,0.0,0.0,0.0,0.0,0.0,0.0,0.0,0.0,0.0,0.0,0.0,0.0,0.0,0.0,0.0,0.0,0.0,0.0,0.0,0.0,0.0,0.0,0.0,0.0,0.0,0.0,0.0,0.0,0.0,0.0,0.0,0.0,-2.4122,-2.4034,-2.4213,-2.4922,-2.5044,-2.528,-2.5793,-2.5858,-2.6138,-2.6745,-2.6784,-2.7269,-2.8381,-2.8446,-2.8812,-2.9627,-2.9641,-2.9759,-2.9982,-2.9177,-2.9451,-3.0716,-2.9621,-2.9416,-3.0037,-2.9613,-2.8882,-2.7933,-2.7933,-2.7667,-2.7139,-2.672,-2.6524,-2.6439,-2.547,-2.5111,-2.52,-2.5615,-2.547,-2.4869,0.0,0.0,0.0,0.0,0.0,0.0,0.0,-1.9291,-1.896,-1.9054,-1.8936,-1.8804,-1.8762,-1.8975,-1.9253,-1.954,-1.9578,-2.0138,-2.1417,-2.1653,-2.2452,-2.4031,-2.4083,-2.4083,-2.4083,-2.4083,-2.4083,-2.4083,-2.4534,-2.4747,-2.4799,-2.5981,-2.653,-2.6544,-2.7374,-2.775,-2.7707,-2.7057,-2.6685,-2.654,-2.6654,-2.6709,-2.6762,0.0,0.0,0.0,0.0,0.0,0.0,0.0,0.0,0.0,0.0,0.0,0.0,0.0,0.0,0.0,0.0,0.0,0.0,0.0,0.0,0.0,0.0,0.0,0.0,0.0,0.0,0.0,0.0,0.0,0.0,0.0,-2.5201,-2.521,-2.4822,-2.4726,-2.4918,-2.5524,-2.5986,-2.6425,-2.6968,-2.7432,-2.7928,-2.8551,-2.8603,-2.8804,-2.9258,-2.9271,-2.9676,-3.0601,-3.0628,-3.0842,-3.1357,-3.1126,-3.1206,-3.1562,-3.0799,-3.0616,-3.0859,-3.0279,-2.9484,-2.8526,-2.8526,-2.8035,-2.7174,-2.7076,-2.703,-2.6898,-2.5959,-2.5627,-2.5627,-2.5731,-2.5497,-2.5023,0.0,0.0,0.0,0.0,0.0,0.0,0.0,-1.9888,-1.9512,-1.9591,-1.9396,-1.9265,-1.9317,-1.9422,-1.9656,-2.0144,-2.018,-2.0665,-2.1798,-2.2319,-2.3038,-2.4057,-2.4345,-2.4476,-2.4476,-2.4692,-2.4821,-2.4821,-2.5434,-2.5764,-2.577,-2.6717,-2.7322,-2.7607,-2.7947,-2.824,-2.8482,-2.7855,-2.7594,-2.7601,-2.7552,-2.7198,-2.6763,-2.7384,-2.76,-2.76,-2.76,-2.76,-2.76,-2.76,0.0,0.0,0.0,0.0,0.0,0.0,0.0,0.0,0.0,0.0,0.0,0.0,0.0,0.0,0.0,0.0,0.0,0.0,0.0,0.0,0.0,0.0,0.0,0.0,-2.5615,-2.5876,-2.602,-2.5855,-2.5921,-2.6446,-2.704,-2.7615,-2.8203,-2.8556,-2.9,-2.9588,-2.9699,-2.9911,-3.0292,-3.0391,-3.0716,-3.1352,-3.1388,-3.16,-3.2036,-3.2036,-3.2036,-3.2036,-3.1656,-3.1421,-3.1196,-3.0595,-2.9986,-2.9406,-2.8882,-2.8474,-2.8103,-2.7834,-2.7765,-2.7666,0.0,0.0,0.0,0.0,-2.6403,-2.614,0.0,0.0,0.0,0.0,0.0,0.0,0.0,-2.0207,-1.972,-1.9734,-1.9434,-1.937,-1.9862,-1.9474,-1.9591,-2.0599,-2.0707,-2.119,-2.2334,-2.3391,-2.4018,-2.4083,-2.4677,-2.5005,-2.5005,-2.5536,-2.5852,-2.5922,-2.6525,-2.6863,-2.7032,-2.7635,-2.828,-2.888,-2.8872,-2.9156,-2.9692,-2.9139,-2.8896,-2.89,-2.8814,-2.7981,-2.6876,-2.7487,-2.766,-2.76,-2.76,-2.76,-2.76,-2.76,0.0,0.0,0.0,0.0,0.0,0.0,0.0,0.0,0.0,0.0,0.0,0.0,0.0,0.0,0.0,0.0,0.0,0.0,0.0,0.0,0.0,0.0,0.0,0.0,-2.6041,-2.6459,-2.7542,-2.7353,-2.7223,-2.7633,-2.8229,-2.8791,-2.9327,-2.9467,-2.968,-3.0189,-3.0398,-3.0768,-3.132,-3.1559,0.0,0.0,0.0,-3.2036,-3.2218,-3.2218,-3.2218,-3.2218,-3.2218,-3.19,-3.1307,-3.0784,-3.0469,-3.0355,-2.9263,-2.904,-2.9341,-2.8803,-2.855,-2.8471,-2.8122,-2.7962,-2.7955,-2.7825,-2.7774,-2.7663,0.0,0.0,0.0,0.0,0.0,0.0,0.0,-2.0684,-2.0346,-2.0686,-2.0511,-2.0423,-2.0524,-2.0423,-2.0473,-2.0687,-2.0703,-2.1186,-2.2336,-2.3014,-2.3574,-2.407,-2.4677,-2.5005,-2.5005,-2.5536,-2.6049,-2.661,-2.6736,-2.7342,-2.8341,-2.9012,-2.9606,-3.0156,-3.0704,-3.0999,-3.1073,-3.0423,-3.0156,-3.0098,-2.9551,-2.861,-2.7583,-2.8165,-2.8079,-2.76,-2.76,-2.76,-2.76,-2.76,-2.76,-2.76,-2.76,-2.76,0.0,0.0,0.0,0.0,0.0,0.0,0.0,0.0,0.0,0.0,0.0,0.0,0.0,0.0,0.0,0.0,0.0,0.0,0.0,-2.7203,-2.7589,-2.8124,-2.8843,-2.9248,-2.934,-2.8987,-2.9444,-2.98,-2.9918,-3.0385,-3.0773,-3.1064,-3.1101,-3.1315,-3.1767,-3.1817,-3.1927,-3.2146,-3.2146,-3.2146,-3.2218,-3.2218,-3.2218,-3.2218,-3.2218,0.0,-3.2009,-3.19,-3.1556,-3.0996,-3.0771,-3.0177,-2.938,-2.9263,-2.8922,-2.8471,-2.8391,-2.8391,-2.8379,-2.835,-2.8128,-2.7817,0.0,0.0,0.0,0.0,0.0,0.0,0.0,-2.0797,-2.0785,-2.0959,-2.0823,-2.0699,-2.0699,-2.0699,-2.0699,-2.0699,-2.0949,-2.159,-2.2714,-2.3054,-2.3585,-2.4507,-2.5104,-2.5536,-2.5838,-2.6416,-2.6852,-2.7212,-2.7866,-2.852,-2.9159,-2.9784,-3.0441,-3.0999,-3.0999,-3.119,-3.1467,-3.1161,-3.0999,-3.097,-3.0646,-2.9747,-2.8651,-2.8606,-2.8173,-2.76,-2.76,-2.76,-2.76,-2.76,-2.76,-2.76,-2.76,-2.76,-2.76,0.0,0.0,0.0,0.0,0.0,0.0,0.0,0.0,0.0,0.0,0.0,0.0,0.0,0.0,-2.8052,-2.7718,0.0,-2.837,-2.8018,-2.8451,-2.9039,-2.9627,-2.9918,-2.9996,-2.9745,-3.0215,-3.0555,-3.0555,-3.0928,-3.1198,-3.1272,-3.1495,-3.1693,-3.189,-3.2,-3.2109,-3.2218,-3.2218,-3.2218,-3.2218,-3.2218,-3.2218,-3.2218,-3.2218,-3.2218,-3.2182,-3.1863,-3.1703,-3.1666,-3.1046,-3.0582,-3.0241,-2.9639,-2.904,-2.851,-2.851,-2.851,-2.851,-2.851,-2.8351,-2.8207,0.0,0.0,0.0,0.0,0.0,0.0,0.0,-2.0663,-2.0888,-2.0995,-2.0848,-2.0737,-2.0699,-2.0699,-2.0699,-2.0699,-2.1106,-2.1838,-2.2975,-2.3152,-2.3734,-2.495,-2.5646,-2.6203,-2.6709,-2.728,-2.766,-2.7794,-2.8888,-2.9547,-2.9789,-3.0278,-3.0867,-3.1467,-3.094,-3.0999,-3.1511,-3.1511,-3.1511,-3.1496,-3.1361,-3.0627,-2.9532,-2.8846,-2.8173,-2.76,-2.76,-2.76,-2.76,-2.76,-2.76,-2.76,-2.76,-2.76,-2.76,-2.76,-2.76,0.0,0.0,0.0,0.0,0.0,0.0,0.0,0.0,0.0,-2.9486,-2.9744,-2.9699,-2.9475,-2.8965,-2.9275,-2.9407,-2.8815,-2.9131,-2.964,-3.0252,-3.0294,-3.0294,-3.038,-3.0736,-3.1024,-3.1099,-3.1248,-3.1347,-3.1421,-3.173,-3.1927,-3.1963,-3.2109,-3.2218,-3.2218,-3.2218,-3.2218,-3.2218,-3.2218,-3.2218,-3.2218,-3.2218,-3.2218,-3.2169,-3.1629,-3.1703,-3.2132,-3.0972,-3.0733,-3.1108,-2.9909,-2.9106,-2.8657,-2.855,-2.851,-2.851,-2.851,-2.851,-2.851,0.0,0.0,0.0,0.0,0.0,0.0,0.0,0.0,-2.046,-2.0942,-2.0924,-2.0825,-2.0699,-2.0699,-2.0699,-2.0699,-2.0739,-2.1263,-2.2414,-2.2951,-2.3743,-2.4951,-2.6028,-2.6616,-2.6709,-2.728,-2.7899,-2.8487,-2.8637,-2.9295,-3.0402,-3.0468,-3.0856,-3.1511,-3.1409,-3.1438,-3.1511,-3.1511,-3.1511,-3.1451,-3.0838,-3.0208,-2.9532,-2.8846,-2.8173,-2.76,-2.76,-2.76,-2.76,-2.76,-2.76,-2.76,-2.76,-2.76,-2.76,-2.76,-2.76,-2.76,-2.76,-2.8034,-2.8487,-2.8487,-2.8981,-2.9502,0.0,-2.9136,-2.9106,-3.0199,-3.0017,-2.978,-3.0119,-3.0232,-3.022,-2.9945,-2.9957,-3.0278,-3.1064,-3.0994,-3.1044,-3.1392,-3.1185,-3.1136,-3.1485,-3.1397,-3.1471,-3.1817,-3.189,-3.1963,-3.2146,-3.2182,-3.2218,-3.2218,-3.2218,-3.2218,-3.2218,-3.2218,-3.2218,-3.2218,-3.2218,-3.2218,-3.2218,-3.2132,-3.2132,-3.2169,-3.1431,-3.1158,-3.1108,-2.9909,-2.9341,-2.9275,-2.8697,-2.851,-2.851,-2.851,-2.851,-2.851,0.0,0.0,0.0,0.0,0.0,0.0,0.0,0.0,0.0,-2.0942,-2.0949,-2.0838,-2.0699,-2.0699,-2.0699,-2.0699,-2.0699,-2.1179,-2.227,-2.2591,-2.354,-2.5314,-2.5897,-2.6496,-2.7203,-2.7458,-2.7735,-2.8034,-2.8412,-2.8876,-2.94,-2.9789,-3.0118,-3.0387,-3.0387,-3.0387,-3.0387,-3.0387,-3.0387,-3.0372,-3.0088,-2.9579,-2.8981,-2.8712,-2.8173,-2.76,-2.76,-2.76,0.0,-2.7675,-2.7715,-2.7715,-2.7715,-2.7715,-2.77,-2.7625,-2.76,-2.769,-2.8094,-2.8667,-2.9175,-2.9175,-2.9654,-3.0118,-3.0118,-3.0532,-3.1041,-3.1556,-3.145,-3.1194,-3.103,-3.0896,-3.064,-3.0194,-3.0375,-3.0786,-3.1233,-3.1123,-3.1174,-3.1706,-3.1434,-3.1286,-3.1572,-3.1633,-3.173,-3.189,-3.2,-3.2109,-3.2218,-3.2218,-3.2218,-3.2218,-3.2218,-3.2218,-3.2218,-3.2218,-3.2218,-3.2218,-3.2218,-3.2218,-3.2218,-3.2218,-3.2218,-3.2169,-3.19,-3.1542,-3.1145,-3.0658,-3.0241,-2.9909,-2.9639,-2.9535,-2.9445,-2.8776,-2.851,-2.851,0.0,0.0,0.0,0.0,0.0,0.0,0.0,0.0,0.0,0.0,-2.0892,-2.0875,-2.0712,-2.0823,-2.0848,-2.0699,-2.0823,-2.1236,-2.2037,-2.2563,-2.3669,-2.5426,-2.6005,-2.6707,-2.7575,-2.76,-2.76,-2.76,-2.8094,-2.8412,-2.8607,-2.9086,-2.94,-2.9606,-2.9606,-2.9606,-2.9606,-2.9606,-2.9606,-2.9592,-2.9439,-2.909,-2.8629,-2.8501,-2.8111,-2.77,-2.7675,-2.765,-2.7675,-2.7815,-2.7855,-2.7855,-2.7855,-2.7815,-2.779,-2.774,-2.781,-2.807,-2.8708,-2.934,-2.9834,-2.9834,-3.0447,-3.1061,-3.1061,-3.1958,-3.2781,-3.2781,-3.2735,-3.2457,-3.1739,-3.1495,-3.1142,-3.0469,-3.0749,-3.1123,-3.1272,-3.1211,-3.1373,-3.1853,-3.1656,-3.1545,-3.1743,-3.1853,-3.1927,-3.1963,-3.2109,-3.2218,-3.2218,-3.2218,-3.2218,-3.2218,-3.2218,-3.2218,-3.2218,-3.2218,-3.2218,-3.2218,-3.2218,-3.2218,-3.2218,-3.2218,-3.2218,-3.2218,-3.2218,-3.1936,-3.1468,-3.127,-3.0921,-3.0545,-3.0355,-3.0279,-3.0203,-2.9302,-2.9,-2.8961,0.0,0.0,0.0,0.0,0.0,0.0,0.0,0.0,0.0,0.0,0.0,0.0,0.0,-2.1106,-2.1204,-2.0724,-2.1106,-2.1435,-2.1524,-2.3102,-2.4326,-2.4974,-2.663,-2.756,-2.76,-2.76,-2.76,-2.76,-2.7615,-2.7974,-2.8607,-2.8622,-2.8966,-2.9606,-2.9606,-2.9606,-2.9606,-2.9606,-2.9606,-2.9547,-2.9019,-2.8826,-2.8736,-2.8218,-2.801,-2.7955,-2.784,-2.779,-2.7815,-2.7955,-2.798,-2.798,-2.798,-2.7905,-2.7815,-2.7955,-2.8359,-2.8865,-2.9424,-2.9998,-3.0477,-3.0477,-3.1465,-3.2452,-3.2452,-3.2976,-3.3469,-3.3469,-3.3429,-3.3138,-3.2306,-3.2115,-3.1819,-3.1097,-3.1147,-3.1272,-3.131,-3.1471,-3.1646,-3.1853,-3.189,-3.1963,-3.2146,-3.2,-3.1963,-3.2182,-3.2218,-3.2218,-3.2218,-3.2218,-3.2218,-3.2218,-3.2218,-3.2218,-3.2218,-3.2218,-3.2218,-3.2218,-3.2218,-3.2218,-3.2218,-3.2218,-3.2218,-3.2218,-3.2218,-3.2182,-3.2132,-3.1468,-3.1182,-3.1108,-3.0507,-3.0279,-3.0279,-3.0254,-3.0254,-3.0165,0.0,0.0,0.0,0.0,0.0,0.0,0.0,0.0,0.0,0.0,0.0,0.0,0.0,0.0,0.0,0.0,-2.1302,-2.1684,-2.239,-2.2723,-2.3659,-2.5331,-2.5709,-2.6414,-2.756,-2.76,-2.76,-2.76,-2.76,-2.772,-2.7944,-2.7944,-2.8064,-2.8274,-2.8274,-2.8274,-2.8274,-2.8274,-2.8274,-2.8259,-2.807,-2.8006,-2.7991,-2.7791,-2.774,-2.774,0.0,-2.7855,-2.7955,-2.8103,-2.8137,-2.8137,-2.8137,-2.8054,-2.7996,-2.8323,-2.9132,-2.9963,-3.0161,-3.0672,-3.1256,-3.1734,-3.2183,-3.2632,-3.3066,-3.3679,-3.4054,-3.3589,-3.3458,-3.3202,-3.2591,-3.1901,-3.1433,-3.1397,-3.1326,-3.1384,-3.1656,-3.1633,-3.172,-3.2073,-3.1963,-3.1963,-3.2182,-3.2146,-3.2146,-3.2182,-3.2218,-3.2218,-3.2218,-3.2218,-3.2218,-3.2218,-3.2218,-3.2218,-3.2218,-3.2218,-3.2218,-3.2218,-3.2218,-3.2218,-3.2218,-3.2218,-3.2218,-3.2218,-3.2218,-3.2218,-3.2169,-3.1973,-3.1863,-3.1827,-3.1629,-3.1556,-3.1556,-3.1556,-3.1556,-3.1408,0.0,0.0,0.0,0.0,0.0,0.0,0.0,0.0,0.0,0.0,0.0,0.0,0.0,0.0,0.0,0.0,0.0,-2.1851,-2.2328,-2.2684,-2.3522,-2.4961,-2.5365,-2.6105,-2.724,-2.7484,-2.76,-2.76,-2.76,-2.76,-2.76,-2.76,-2.76,-2.76,-2.76,-2.76,-2.76,-2.76,-2.76,-2.7625,-2.77,-2.77,-2.7675,-2.7825,-2.7865,0.0,-2.7965,-2.8079,-2.8152,-2.8186,-2.8235,-2.8259,-2.8259,-2.8369,-2.8581,-2.8914,-2.9808,-3.0766,-3.1119,-3.1511,-3.2019,-3.2706,-3.3066,-3.3351,-3.3531,-3.4148,-3.448,-3.3711,-3.3362,-3.308,-3.2657,-3.1914,-3.144,-3.1902,-3.1928,-3.1978,-3.2164,-3.2191,-3.2155,-3.2109,-3.2036,-3.2073,-3.2182,-3.2218,-3.2218,-3.2218,-3.2218,-3.2218,-3.2218,-3.2218,-3.2218,-3.2218,-3.2218,-3.2218,-3.2218,-3.2218,-3.2218,-3.2218,-3.2218,-3.2218,-3.2218,-3.2218,-3.2218,-3.2218,-3.2218,-3.2218,-3.2218,-3.2218,-3.2218,-3.2218,-3.2218,-3.2218,-3.2218,-3.2218,-3.2218,-3.2059,0.0,0.0,0.0,0.0,0.0,0.0,0.0,0.0,0.0,0.0,0.0,0.0,0.0,0.0,0.0,0.0,0.0,0.0,-2.1489,-2.2961,-2.3899,-2.3999,-2.558,-2.6544,-2.6689,-2.7265,-2.7575,-2.76,-2.76,-2.76,-2.76,-2.76,-2.76,-2.76,-2.76,-2.76,-2.76,-2.76,-2.76,-2.7625,-2.788,-2.7905,-2.784,-2.8226,-2.8299,-2.821,-2.8323,-2.8372,-2.8372,-2.8235,-2.8299,-2.8411,-2.8387,-2.8864,-2.9495,-2.9735,-3.0401,-3.1273,-3.2256,-3.2512,-3.2677,-3.341,-3.4148,-3.4542,-3.3909,-3.4394,-3.4743,-3.3834,-3.3196,-3.2748,0.0,0.0,-3.1913,-3.2511,-3.2801,-3.2871,-3.2636,-3.2911,-3.2818,-3.2023,-3.2073,-3.2218,-3.2218,-3.2218,-3.2218,-3.2218,-3.2218,-3.2218,-3.2218,-3.2218,-3.2218,-3.2218,-3.2218,-3.2218,-3.2218,-3.2218,-3.2218,-3.2218,-3.2218,-3.2218,-3.2218,-3.2218,-3.2218,-3.2218,-3.2218,-3.2218,-3.2218,-3.2218,-3.2218,-3.2218,-3.2218,-3.2218,-3.2218,-3.2218,-3.2218,-3.2096,0.0,0.0,0.0,0.0,0.0,0.0,0.0,0.0,0.0,0.0,0.0,0.0,0.0,0.0,0.0,0.0,0.0,0.0,-2.2388,-2.2855,-2.3322,-2.3687,-2.4322,-2.5268,-2.6589,-2.6825,-2.7152,-2.76,-2.76,-2.76,-2.76,-2.76,-2.76,-2.76,-2.76,-2.76,-2.76,-2.76,-2.76,-2.7625,-2.7675,-2.774,-2.7815,-2.7915,-2.7989,-2.8054,-2.8079,-2.8177,-2.8259,-2.8323,-2.8372,-2.8372,-2.8275,-2.9046,-2.9974,-2.9947,-3.08,-3.1892,-3.2668,-3.2866,-3.3154,-3.4318,-3.4788,-3.4833,-3.4513,-3.4711,-3.4607,-3.3246,-3.2945,-3.2824,-3.237,-3.2019,-3.1729,-3.1527,-3.19,-3.2013,-3.1507,-3.2,0.0,-3.2146,0.0,-3.2218,-3.2218,-3.2218,-3.2218,-3.2218,-3.2218,-3.2218,-3.2218,-3.2218,-3.2218,-3.2218,-3.2218,-3.2218,-3.2218,-3.2218,-3.2218,-3.2218,-3.2218,-3.2218,-3.2218,-3.2218,-3.2218,-3.2218,-3.2218,-3.2218,-3.2218,-3.2218,-3.2218,-3.2218,-3.2218,-3.2218,-3.2218,-3.2218,-3.2218,-3.2182,0.0,0.0,0.0,0.0,0.0,0.0,0.0,0.0,0.0,0.0,0.0,0.0,0.0,0.0,0.0,0.0,0.0,0.0,0.0,-2.3054,-2.3356,-2.3673,-2.4054,-2.4869,-2.6174,-2.6508,-2.6973,-2.76,-2.76,-2.76,-2.76,-2.7331,-2.7203,-2.7203,-2.693,-2.6811,-2.6811,-2.6811,-2.6811,0.0,0.0,-2.7122,-2.6956,-2.7357,-2.7534,-2.761,-2.766,0.0,0.0,0.0,0.0,-2.8387,-2.8323,-2.9219,-3.0256,-3.0125,-3.1201,-3.2573,-3.3241,-3.3606,-3.4016,-3.5154,-3.5246,-3.4988,-3.4577,-3.4379,-3.3966,-3.274,-3.2614,-3.2621,-3.2267,-3.2125,-3.199,0.0,0.0,0.0,-3.1668,-3.2176,-3.2538,0.0,-3.2218,0.0,-3.2218,-3.2218,-3.2218,-3.2218,-3.2218,-3.2218,-3.2218,-3.2218,-3.2218,-3.2218,-3.2218,-3.2218,-3.2218,-3.2218,-3.2218,-3.2218,-3.2218,-3.2218,-3.2218,-3.2218,-3.2218,-3.2218,-3.2218,-3.2218,-3.2218,-3.2218,-3.2218,-3.2218,-3.2218,-3.2218,-3.2218,-3.2218,-3.2218,-3.2218,0.0,0.0,0.0,0.0,0.0,0.0,0.0,0.0,0.0,0.0,0.0,0.0,0.0,0.0,0.0,0.0,0.0,0.0,0.0,0.0,0.0,0.0,-2.4182,-2.4834,-2.5533,-2.6076,-2.6732,-2.7465,-2.7465,-2.746,-2.7473,-2.6945,-2.6642,-2.6563,-2.6041,-2.5783,-2.5783,-2.5783,-2.5783,-2.5864,-2.6508,-2.6455,-2.6054,0.0,-2.7148,-2.7251,0.0,0.0,0.0,0.0,-2.8411,-2.8411,-2.8411,-2.931,-3.0376,-3.0256,-3.157,-3.3193,-3.3892,-3.4425,-3.5,-3.5748,-3.5583,-3.5034,-3.4239,-3.3713,-3.3185,-3.2356,-3.233,-3.237,-3.2247,-3.2315,-3.2344,-3.2228,0.0,-3.2861,-3.2123,-3.2549,-3.277,-3.2277,-3.2218,-3.2218,-3.2218,-3.2218,-3.2218,-3.2218,-3.2218,-3.2218,-3.2218,-3.2218,-3.2218,-3.2218,-3.2218,-3.2218,-3.2218,-3.2218,-3.2218,-3.2218,-3.2218,-3.2218,-3.2218,-3.2218,-3.2218,-3.2218,-3.2218,-3.2218,-3.2218,-3.2218,-3.2218,-3.2218,-3.2218,-3.2218,-3.2218,-3.2218,-3.2218,-3.2218,0.0,0.0,0.0,0.0,0.0,0.0,0.0,0.0,0.0,0.0,-1.6872,-1.799,0.0,0.0,0.0,0.0,0.0,0.0,0.0,0.0,0.0,0.0,-2.3553,-2.4203,-2.4796,-2.4954,-2.5605,-2.6752,-2.6752,-2.6812,-2.6852,-2.6762,-2.6431,-2.596,-2.5837,-2.5783,-2.5783,-2.5783,-2.5783,-2.581,-2.5946,-2.6349,-2.689,-2.6927,0.0,0.0,0.0,0.0,0.0,0.0,-2.8411,-2.8411,-2.8411,-2.931,-3.0402,-3.036,-3.1789,-3.3481,-3.4217,-3.4878,-3.5416,-3.5569,-3.5507,-3.5077,-3.3687,-3.3391,0.0,-3.2356,-3.233,-3.2398,-3.237,-3.2398,-3.2007,-3.0791,-3.1253,-3.1435,-3.059,-3.1148,-3.1755,0.0,-3.2218,-3.2218,-3.2218,-3.2218,-3.2218,-3.2218,-3.2218,-3.2218,-3.2218,-3.2218,-3.2218,-3.2218,-3.2218,-3.2218,-3.2218,-3.2218,-3.2218,-3.2218,-3.2218,-3.2218,-3.2218,-3.2218,-3.2218,-3.2218,-3.2218,-3.2218,-3.2218,-3.2218,-3.2218,-3.2218,-3.2218,-3.2218,-3.2218,-3.2218,-3.2218,-3.2218,0.0,0.0,0.0,0.0,0.0,0.0,0.0,-1.5799,-1.5799,-1.5799,-1.6143,-1.6941,-1.8465,-1.9984,-2.1302,0.0,0.0,0.0,0.0,0.0,0.0,0.0,0.0,0.0,0.0,-2.4636,-2.5124,-2.6078,0.0,-2.6098,-2.611,-2.5795,-2.5374,-2.4843,-2.4539,-2.4258,-2.4042,-2.4042,-2.4014,-2.4055,-2.4419,-2.4813,-2.5266,0.0,0.0,0.0,0.0,0.0,0.0,0.0,-2.8411,-2.8411,-2.8411,-2.931,-3.0402,-3.0402,-3.1762,-3.3405,-3.3829,-3.4355,-3.4848,-3.4953,-3.4705,-3.42,-3.3481,0.0,0.0,-3.2391,-3.2342,-3.2398,-3.2398,-3.2398,0.0,-3.1028,-3.1154,-3.1246,-3.0784,-3.1067,-3.1504,-3.2151,-3.2218,-3.2218,-3.2218,-3.2218,-3.2218,-3.2218,-3.2218,-3.2218,-3.2218,-3.2218,-3.2218,-3.2218,-3.2218,-3.2218,-3.2218,-3.2218,-3.2218,-3.2218,-3.2218,-3.2218,-3.2218,-3.2218,-3.2218,-3.2218,-3.2218,-3.2218,-3.2218,-3.2218,-3.2218,-3.2218,-3.2218,-3.2218,-3.2218,-3.2218,-3.2218,-3.2218,0.0,0.0,0.0,0.0,0.0,0.0,0.0,-1.5799,-1.5799,-1.5799,-1.5799,-1.6292,-1.758,-1.9473,-2.0983,0.0,0.0,0.0,0.0,0.0,0.0,0.0,0.0,0.0,0.0,0.0,0.0,-2.5382,-2.5382,0.0,0.0,0.0,0.0,0.0,-2.3473,-2.3056,-2.2698,-2.259,-2.2563,0.0,0.0,-2.3326,0.0,0.0,0.0,0.0,0.0,0.0,0.0,0.0,-2.8411,-2.8411,-2.8411,-2.9218,-3.0186,-3.0186,-3.1547,-3.3056,-3.317,-3.3712,-3.4267,-3.4246,-3.3814,-3.3367,-3.3213,-3.2782,0.0,-3.2398,-3.2398,-3.2398,-3.2398,-3.2398,-3.2188,0.0,-3.1456,-3.1358,-3.1139,-3.1226,-3.1477,0.0,-3.2137,0.0,-3.2218,-3.2218,-3.2218,-3.2218,-3.2218,-3.2218,-3.2218,-3.2218,-3.2218,-3.2218,-3.2218,-3.2218,-3.2218,-3.2218,-3.2218,-3.2218,-3.2218,-3.2218,-3.2218,-3.2218,-3.2218,-3.2218,-3.2218,-3.2218,-3.2218,-3.2218,-3.2218,-3.2218,-3.2218,-3.2218,-3.2218,-3.2218,-3.2218,-3.2218,0.0,0.0,0.0,0.0,0.0,0.0,0.0,-1.5799,-1.5799,-1.5799,-1.5799,-1.6069,-1.6739,-1.8619,-2.0322,0.0,0.0,0.0,0.0,0.0,0.0,0.0,0.0,0.0,0.0,0.0,0.0,-2.4694,-2.4694,0.0,0.0,0.0,0.0,0.0,0.0,-2.3807,-2.3731,-2.3239,0.0,0.0,0.0,0.0,0.0,0.0,0.0,0.0,0.0,0.0,0.0,0.0,0.0,-2.8411,-2.8411,-2.8904,-2.9479,-2.9479,0.0,0.0,-3.249,-3.346,-3.4321,-3.366,-3.346,-3.3244,-3.2628,0.0,-3.2398,-3.2398,-3.2398,-3.2398,-3.2398,-3.2398,-3.2188,-3.1595,-3.1496,-3.1249,-3.0588,-3.096,-3.132,-3.1371,0.0,0.0,-3.2218,-3.2218,-3.2218,-3.2218,-3.2218,-3.2218,-3.2218,-3.2218,-3.2218,-3.2218,-3.2218,-3.2218,-3.2218,-3.2218,-3.2218,-3.2218,-3.2218,-3.2218,-3.2218,-3.2218,-3.2218,-3.2218,-3.2218,-3.2218,-3.2218,-3.2218,-3.2218,-3.2218,-3.2218,-3.2218,-3.2218,-3.2218,-3.2218,-3.2218,0.0,0.0,0.0,0.0,0.0,0.0,-1.5813,-1.5799,-1.5799,-1.5799,-1.5799,-1.5889,-1.6129,-1.7565,-1.9193,-2.0961,0.0,0.0,0.0,0.0,0.0,0.0,0.0,0.0,0.0,0.0,-2.3729,-2.4014,-2.4014,0.0,0.0,0.0,0.0,0.0,0.0,-2.2814,-2.2776,-2.2289,0.0,0.0,0.0,0.0,0.0,0.0,0.0,0.0,0.0,0.0,-2.704,0.0,0.0,0.0,-2.8411,-2.8596,0.0,0.0,-3.0258,-3.1213,-3.1213,-3.1905,-3.2564,-3.2259,-3.249,-3.2721,-3.2459,0.0,-3.2398,-3.2398,-3.2398,-3.2398,-3.2398,-3.2398,-3.2315,-3.2076,-3.1737,-3.1529,-3.1595,-3.1447,-3.1425,-3.1778,-3.2039,-3.2218,-3.2218,-3.2218,-3.2218,-3.2218,-3.2218,-3.2218,-3.2218,-3.2218,-3.2218,-3.2218,-3.2218,-3.2218,-3.2218,-3.2218,-3.2218,-3.2218,-3.2218,-3.2218,-3.2218,-3.2218,-3.2218,-3.2218,-3.2218,-3.2218,-3.2218,-3.2218,-3.2218,-3.2218,-3.2218,-3.2218,-3.2218,-3.2218,-3.2218,-3.2218,0.0,0.0,0.0,0.0,0.0,-1.5842,-1.5813,-1.5799,-1.5799,-1.5799,-1.5799,-1.5799,-1.5799,-1.6593,-1.7848,-1.9657,-2.0976,0.0,0.0,0.0,0.0,0.0,0.0,0.0,0.0,0.0,-2.3595,-2.3595,-2.3595,-2.353,0.0,0.0,-2.3355,-2.2889,0.0,0.0,0.0,0.0,0.0,0.0,0.0,0.0,0.0,0.0,0.0,0.0,0.0,0.0,0.0,0.0,0.0,0.0,0.0,0.0,0.0,0.0,-2.9571,-3.0094,-3.0094,-3.0597,-3.1151,-3.1336,-3.1736,-3.2151,0.0,0.0,-3.2398,-3.2398,-3.2398,-3.2398,-3.2398,-3.2398,-3.2398,-3.2398,-3.2048,-3.1846,-3.2108,-3.1826,-3.1674,-3.1909,0.0,-3.2218,-3.2218,-3.2218,-3.2218,-3.2218,-3.2218,-3.2218,-3.2218,-3.2218,-3.2218,-3.2218,-3.2218,-3.2218,-3.2218,-3.2218,-3.2218,-3.2218,-3.2218,-3.2218,-3.2218,-3.2218,-3.2218,-3.2218,-3.2218,-3.2218,-3.2218,-3.2218,-3.2218,-3.2218,-3.2218,-3.2218,-3.2218,-3.2218,-3.2218,-3.2218,0.0,0.0,0.0,0.0,0.0,0.0,-1.5799,-1.5799,-1.5799,-1.5799,-1.5799,-1.5799,-1.5799,-1.5814,-1.6338,-1.7624,-2.0168,0.0,0.0,0.0,0.0,0.0,0.0,0.0,0.0,0.0,-2.3595,-2.3595,-2.3595,-2.3355,-2.2912,-2.3377,-2.3355,-2.2912,0.0,0.0,0.0,0.0,0.0,0.0,0.0,0.0,0.0,0.0,0.0,0.0,0.0,0.0,0.0,0.0,0.0,0.0,0.0,0.0,0.0,0.0,-2.8904,-2.9402,-2.9402,-2.9894,-3.0555,-3.1228,-3.1424,-3.1567,-3.2244,-3.2398,-3.2398,-3.2398,-3.2398,-3.2398,-3.2398,-3.2398,-3.2398,-3.2398,-3.2398,-3.216,-3.1581,-3.1952,-3.2058,0.0,-3.1846,-3.2218,-3.2218,-3.2218,-3.2218,-3.2218,-3.2218,-3.2218,-3.2218,-3.2218,-3.2218,-3.2218,-3.2218,-3.2218,-3.2218,-3.2218,-3.2218,-3.2218,-3.2218,-3.2218,-3.2218,-3.2218,-3.2218,-3.2218,-3.2218,-3.2218,-3.2218,-3.2218,-3.2218,-3.2218,-3.2218,-3.2218,-3.2218,-3.2218,-3.2218,-3.2218,0.0,0.0,0.0,0.0,0.0,0.0,0.0,-1.5799,-1.5799,-1.5799,-1.5799,-1.5799,-1.5799,-1.5799,-1.5949,-1.6368,-1.8388,0.0,0.0,0.0,0.0,0.0,0.0,0.0,0.0,0.0,-2.3595,-2.3595,-2.3595,-2.3508,-2.3377,-2.353,-2.3355,-2.2889,-2.2672,-2.2694,0.0,0.0,0.0,0.0,0.0,0.0,0.0,0.0,0.0,0.0,0.0,0.0,0.0,0.0,0.0,0.0,0.0,0.0,0.0,-2.8411,0.0,0.0,-2.8719,-2.9212,-2.9756,-2.9981,-3.072,-3.147,-3.1686,-3.2059,-3.2398,-3.2398,-3.2398,-3.2398,-3.2398,-3.2398,-3.2398,-3.2398,-3.2398,-3.2203,0.0,0.0,0.0,-3.1387,-3.1832,-3.2218,-3.2218,-3.2218,-3.2218,-3.2218,-3.2218,-3.2218,-3.2218,-3.2218,-3.2218,-3.2218,-3.2218,-3.2218,-3.2218,-3.2218,-3.2218,-3.2218,-3.2218,-3.2218,-3.2218,-3.2218,-3.2218,-3.2218,-3.2218,-3.2218,-3.2218,-3.2218,-3.2218,-3.2218,-3.2218,-3.2218,-3.2218,-3.2218,-3.2218,-3.2218,0.0,0.0,0.0,0.0,0.0,0.0,0.0,-1.5799,-1.5799,-1.5799,-1.5799,-1.5799,-1.5799,-1.5799,-1.5799,-1.5799,-1.7116,0.0,0.0,0.0,0.0,0.0,0.0,0.0,-2.3595,-2.3595,-2.3595,-2.3595,-2.3595,-2.3508,-2.3334,-2.3508,-2.3355,-2.2889,-2.274,-2.2634,0.0,0.0,0.0,0.0,0.0,0.0,-2.4024,0.0,0.0,0.0,0.0,0.0,0.0,0.0,0.0,0.0,0.0,0.0,0.0,0.0,-2.8411,-2.8411,0.0,-2.8704,-2.9064,-2.9325,-3.0027,0.0,-3.1285,-3.1705,-3.209,-3.2336,-3.2398,-3.2398,-3.2398,-3.2398,-3.2398,-3.2398,-3.2398,-3.2203,0.0,0.0,0.0,-3.1673,-3.1979,-3.2218,-3.2218,-3.2218,-3.2218,-3.2218,-3.2218,-3.2218,-3.2218,-3.2218,-3.2218,-3.2218,-3.2218,-3.2218,-3.2218,-3.2218,-3.2218,-3.2218,-3.2218,-3.2218,-3.2218,-3.2218,-3.2218,-3.2218,-3.2218,-3.2218,0.0,-3.2218,-3.2218,-3.2218,-3.2218,-3.2218,-3.2218,-3.2218,-3.2218,-3.2218,0.0,0.0,0.0,0.0,0.0,0.0,0.0,-1.5829,-1.5799,-1.5799,-1.5799,-1.5799,-1.5799,-1.5799,-1.5799,-1.5799,0.0,0.0,0.0,0.0,0.0,0.0,0.0,0.0,-2.3595,-2.3595,-2.3595,-2.3595,-2.3595,-2.3377,-2.2957,-2.3399,-2.3355,-2.2912,-2.3355,-2.3031,0.0,0.0,0.0,0.0,0.0,0.0,0.0,0.0,0.0,0.0,0.0,0.0,0.0,0.0,0.0,0.0,0.0,0.0,0.0,0.0,0.0,0.0,0.0,-2.8411,-2.855,-2.9156,-2.9356,-2.9735,-3.0966,-3.1274,0.0,-3.2182,-3.2321,-3.2336,-3.2382,-3.2398,-3.2398,-3.2398,-3.2398,-3.216,0.0,-3.186,0.0,0.0,-3.2218,-3.2218,-3.2218,-3.2218,-3.2218,-3.2218,-3.2218,-3.2218,-3.2218,-3.2218,-3.2218,-3.2218,-3.2218,-3.2218,-3.2218,-3.2218,-3.2218,-3.2218,-3.2218,-3.2218,-3.2218,-3.2218,-3.2218,-3.2218,-3.2218,-3.2218,-3.2218,-3.2218,-3.2218,-3.2218,-3.2218,-3.2218,-3.2218,-3.2218,-3.2218,-3.2218,0.0,0.0,0.0,0.0,0.0,0.0,0.0,0.0,0.0,0.0,-1.5799,-1.5799,-1.5799,-1.5799,-1.5799,0.0,0.0,0.0,0.0,0.0,0.0,0.0,0.0,0.0,-2.3595,-2.3595,-2.3595,-2.3595,-2.3595,-2.3551,-2.3443,-2.3551,-2.3355,-2.2912,-2.3024,-2.2934,0.0,0.0,0.0,0.0,0.0,0.0,0.0,0.0,0.0,0.0,-2.4487,-2.5296,0.0,0.0,0.0,0.0,0.0,0.0,0.0,0.0,-2.8411,-2.8411,-2.8411,0.0,-2.8442,-2.8611,-2.9002,-2.9464,0.0,-3.0274,-3.0843,-3.149,0.0,0.0,-3.2305,-3.2398,-3.2398,-3.2398,-3.2398,-3.2005,-3.0911,-3.0789,0.0,-3.2105,-3.2218,-3.2218,-3.2218,-3.2218,-3.2218,-3.2218,-3.2218,-3.2218,-3.2218,-3.2218,-3.2218,-3.2218,-3.2218,-3.2218,-3.2218,-3.2218,-3.2218,-3.2218,-3.2218,-3.2218,-3.2218,-3.2218,-3.2218,-3.2218,-3.2218,-3.2218,-3.2218,-3.2218,-3.2218,-3.2218,-3.2218,-3.2218,-3.2218,-3.2218,-3.2218,-3.2218,0.0,0.0,0.0,0.0,0.0,0.0,0.0,0.0,0.0,0.0,0.0,-1.5784,-1.5712,-1.5755,0.0,0.0,0.0,0.0,0.0,0.0,0.0,0.0,0.0,-2.3197,-2.3545,-2.3573,-2.3595,-2.3595,-2.3595,-2.3595,-2.3595,-2.3595,-2.3465,-2.3224,-2.3001,-2.3024,0.0,0.0,0.0,0.0,-2.413,0.0,0.0,0.0,0.0,0.0,-2.4302,-2.5195,0.0,-2.6311,-2.7234,-2.8411,0.0,0.0,0.0,0.0,-2.8411,-2.8411,-2.8411,-2.8411,-2.8411,-2.8411,-2.8673,-2.9002,-2.9335,0.0,0.0,0.0,0.0,0.0,0.0,0.0,0.0,-3.2398,-3.216,0.0,0.0,0.0,-3.1151,-3.211,-3.2218,-3.2218,-3.2218,-3.2218,-3.2218,-3.2218,-3.2218,-3.2218,-3.2218,-3.2218,-3.2218,-3.2218,-3.2218,-3.2218,-3.2218,-3.2218,-3.2218,-3.2218,-3.2218,-3.2218,-3.2218,-3.2218,-3.2218,-3.2218,-3.2218,-3.2218,-3.2218,-3.2218,-3.2218,-3.2218,-3.2218,-3.2218,-3.2218,-3.2218,-3.2218,-3.2218,0.0,0.0,0.0,0.0,0.0,0.0,0.0,0.0,0.0,0.0,0.0,0.0,0.0,0.0,0.0,0.0,0.0,0.0,0.0,0.0,0.0,0.0,-2.1901,-2.2738,-2.3367,-2.3522,-2.3595,-2.3595,-2.3595,-2.3595,-2.3595,-2.3595,-2.3595,-2.3573,-2.3179,-2.3246,0.0,0.0,-2.353,-2.3882,-2.4177,0.0,0.0,0.0,0.0,0.0,0.0,0.0,0.0,-2.6318,-2.7172,-2.8273,-2.8365,0.0,0.0,0.0,0.0,0.0,-2.8411,-2.8411,-2.8411,-2.8411,-2.8411,-2.855,-2.9135,0.0,0.0,0.0,0.0,0.0,0.0,-3.1844,0.0,0.0,0.0,0.0,-3.1317,-3.1282,-3.1504,-3.2151,-3.2218,-3.2241,-3.2336,-3.2241,-3.2241,-3.2336,-3.2241,-3.2218,-3.2218,-3.2218,-3.2218,-3.2218,-3.2218,-3.2218,-3.2218,-3.2218,-3.2218,-3.2218,-3.2218,-3.2218,-3.2218,-3.2218,-3.2218,-3.2218,-3.2218,-3.2218,-3.2218,-3.2218,-3.2218,-3.2218,-3.2218,-3.2218,-3.2218,-3.2218,-3.2218,-3.2218,0.0,0.0,0.0,0.0,0.0,0.0,0.0,0.0,0.0,0.0,0.0,0.0,0.0,0.0,0.0,0.0,0.0,0.0,0.0,0.0,0.0,-1.9371,-2.1292,-2.2488,-2.2832,-2.3325,-2.3595,-2.3595,-2.3595,-2.3595,-2.3595,-2.3595,-2.3595,-2.3595,-2.3508,-2.361,-2.376,-2.3861,-2.3982,-2.4145,-2.4255,0.0,0.0,0.0,0.0,0.0,0.0,0.0,0.0,-2.618,-2.6903,-2.7642,-2.8227,0.0,0.0,0.0,0.0,0.0,-2.8411,-2.8411,-2.8411,-2.8411,-2.8411,-2.8427,-2.8535,0.0,0.0,0.0,0.0,0.0,0.0,-3.1474,-3.1747,0.0,0.0,-3.1382,-3.1321,-3.1282,-3.1504,-3.2151,-3.2218,-3.2408,-3.2995,-3.2538,-3.2444,-3.2995,-3.2503,-3.2218,-3.2218,-3.2218,-3.2218,-3.2218,-3.2218,-3.2218,-3.2218,-3.2218,-3.2218,-3.2218,-3.2218,-3.2218,-3.2218,-3.2218,-3.2218,-3.2218,-3.2218,-3.2218,-3.2218,-3.2218,-3.2218,-3.2218,-3.2218,-3.2218,-3.2218,-3.2218,-3.2218,-3.2218,0.0,0.0,0.0,0.0,0.0,0.0,0.0,0.0,0.0,0.0,0.0,0.0,0.0,0.0,0.0,0.0,0.0,0.0,0.0,0.0,-1.7651,-1.8215,-2.0524,-2.2011,-2.2485,-2.3216,-2.3595,-2.3595,-2.3595,-2.3595,-2.3595,-2.3595,-2.3595,-2.3595,-2.3595,-2.3674,-2.3818,-2.394,-2.4082,-2.4223,0.0,0.0,0.0,0.0,0.0,0.0,0.0,0.0,0.0,0.0,-2.6842,-2.7519,-2.8196,0.0,0.0,0.0,0.0,0.0,-2.8411,-2.8411,-2.8411,-2.8411,-2.8411,-2.8411,-2.8411,0.0,0.0,0.0,0.0,0.0,0.0,0.0,-3.0897,-3.0852,-3.1123,-3.1227,-3.0853,-3.1389,-3.187,-3.2191,-3.2218,-3.2467,-3.3122,-3.2925,-3.303,-3.3734,-3.3136,-3.2725,-3.2725,-3.2408,-3.2218,-3.2218,-3.2218,-3.2218,-3.2218,-3.2218,-3.2218,-3.2218,-3.2218,-3.2218,-3.2218,-3.2218,-3.2218,-3.2218,-3.2218,-3.2218,-3.2218,-3.2218,-3.2218,-3.2218,-3.2218,-3.2218,-3.2218,-3.2218,-3.2218,-3.2218,0.0,0.0,0.0,0.0,0.0,0.0,0.0,0.0,0.0,0.0,0.0,0.0,0.0,0.0,0.0,0.0,0.0,0.0,0.0,0.0,-1.7256,-1.7432,-1.9678,-2.1331,-2.2129,-2.3106,-2.3595,-2.3595,-2.3595,-2.3595,-2.3595,-2.3595,-2.3595,-2.3595,-2.3616,-2.3717,-2.3861,-2.3982,-2.4124,-2.4229,0.0,0.0,0.0,0.0,0.0,0.0,0.0,0.0,0.0,0.0,0.0,0.0,0.0,0.0,0.0,-2.8411,-2.8411,-2.8411,-2.8411,-2.8411,-2.8411,-2.8411,-2.8411,-2.8411,-2.8411,-2.8411,0.0,0.0,0.0,0.0,0.0,-3.0243,0.0,-2.9834,-3.0636,-3.1082,-3.0473,-3.155,-3.2372,-3.2218,-3.2336,-3.2704,-3.3388,-3.3283,-3.3596,-3.448,-3.3856,-3.3457,-3.3457,-3.2974,-3.2682,-3.2682,-3.2682,-3.2682,-3.2682,-3.2682,-3.2516,-3.2218,-3.2336,-3.2444,-3.2444,-3.2444,-3.2444,-3.2444,-3.2277,-3.2218,-3.2218,-3.2218,-3.2218,-3.2218,-3.2218,-3.2218,-3.2218,-3.2218,-3.2218,-3.2218,0.0,0.0,0.0,0.0,0.0,0.0,0.0,0.0,0.0,0.0,0.0,0.0,0.0,0.0,0.0,0.0,0.0,0.0,0.0,0.0,-1.6752,-1.7202,-1.8708,-2.0235,-2.172,-2.2966,-2.3595,-2.3595,-2.3595,-2.3595,-2.3595,-2.3595,-2.3595,-2.3595,-2.3739,-2.3861,-2.3982,-2.4124,-2.4229,-2.4281,-2.4302,0.0,0.0,0.0,0.0,0.0,0.0,0.0,0.0,0.0,0.0,0.0,0.0,0.0,-2.8411,-2.8411,-2.8411,-2.8411,-2.8411,-2.8411,-2.8411,-2.8411,-2.8411,0.0,-2.8411,-2.8411,0.0,-2.8411,0.0,0.0,0.0,-3.094,-3.1217,-3.0539,-3.0924,-3.1082,-3.0473,-3.1965,-3.2889,-3.2277,-3.2761,-3.3422,-3.4143,-3.3596,-3.3802,-3.5222,-3.4647,-3.4211,-3.4211,-3.4177,-3.4143,-3.4143,-3.4143,-3.4143,-3.4143,-3.4143,-3.3471,-3.2218,-3.2832,-3.3122,-3.3122,-3.3122,-3.3122,-3.3087,-3.248,-3.2218,-3.2218,-3.2218,-3.2218,-3.2218,-3.2218,-3.2218,-3.2218,-3.2218,-3.2218,-3.2218,0.0,0.0,0.0,0.0,0.0,0.0,0.0,0.0,0.0,0.0,0.0,0.0,0.0,0.0,0.0,0.0,0.0,0.0,0.0,-1.6745,-1.7199,-1.7382,-1.8673,-2.0135,-2.1665,-2.2583,-2.3206,-2.3595,-2.3595,-2.3595,-2.3595,-2.3595,-2.3595,-2.3595,-2.3739,-2.3861,-2.4003,-2.4145,-2.425,-2.4302,-2.4302,-2.4302,0.0,0.0,0.0,0.0,0.0,0.0,0.0,0.0,-2.6626,-2.718,-2.8119,-2.8411,-2.8411,-2.8411,-2.8411,-2.8411,-2.8411,-2.8411,-2.8411,-2.8411,-2.8411,0.0,0.0,-2.8411,-2.8411,-2.8411,-2.8735,0.0,0.0,0.0,-3.0163,-2.9909,-3.0747,-3.1163,-3.0508,-3.24,-3.363,-3.2903,-3.3457,-3.4177,-3.4912,-3.4714,-3.4993,-3.6022,-3.54,-3.4978,-3.4978,-3.4547,-3.4312,-3.4312,-3.4312,-3.4312,-3.4312,-3.3837,-3.3561,-3.3506,-3.3297,-3.3178,-3.3192,-3.2761,-3.2574,-3.2561,-3.2314,-3.2218,-3.2218,-3.2218,-3.2218,-3.2218,-3.2218,-3.2218,-3.2218,-3.2218,-3.2218,-3.2218,0.0,0.0,0.0,0.0,0.0,0.0,0.0,0.0,0.0,0.0,0.0,0.0,0.0,0.0,0.0,0.0,0.0,0.0,-1.6586,-1.6955,-1.7308,-1.7482,-1.836,-1.9705,-2.159,-2.2128,-2.2793,-2.3595,-2.3595,-2.3595,-2.3595,-2.3595,-2.3616,-2.3674,-2.3797,-2.394,-2.4082,-2.4187,-2.4255,-2.4302,-2.4302,-2.4302,0.0,0.0,0.0,0.0,0.0,0.0,0.0,0.0,-2.6811,-2.7519,-2.8196,-2.8411,-2.8411,-2.8411,-2.8411,-2.8411,-2.8411,-2.8411,-2.8411,0.0,0.0,0.0,-2.8162,-2.8259,-2.8348,-2.8162,-2.8964,-2.993,-3.0655,-3.0245,-2.9824,-2.9818,-3.0761,-3.131,-3.0834,-3.2997,-3.438,-3.363,-3.4211,-3.4846,-3.5367,-3.54,-3.5705,-3.6445,-3.6038,-3.5737,-3.5737,-3.5255,-3.4978,-3.4978,-3.4978,-3.4978,-3.4978,-3.4279,-3.4143,-3.4647,-3.365,-3.3318,-3.3526,-3.2832,-3.2503,-3.2503,-3.2277,-3.2218,-3.2218,-3.2218,-3.2218,-3.2218,-3.2218,-3.2277,-3.2336,-3.2336,-3.2444,-3.2552,0.0,0.0,0.0,0.0,0.0,0.0,0.0,0.0,0.0,0.0,0.0,0.0,0.0,0.0,0.0,0.0,0.0,0.0,-1.6707,-1.6618,-1.6883,-1.7467,-1.7581,-1.8832,-2.1441,-2.1635,-2.2338,-2.3595,-2.3595,-2.3595,-2.3595,-2.3595,-2.3674,-2.3818,-2.394,-2.4082,-2.4187,-2.4276,-2.4302,-2.4302,-2.4302,-2.4302,-2.4302,0.0,0.0,0.0,0.0,0.0,0.0,0.0,-2.6864,-2.7519,-2.8196,-2.8411,-2.8411,-2.8411,-2.8411,-2.8411,-2.8411,-2.8411,-2.8411,0.0,0.0,0.0,-2.763,-2.7959,-2.8235,-2.7645,-2.9062,-3.0602,-3.1274,-3.0902,-3.0494,-3.0524,-3.1079,-3.1509,-3.1509,-3.3758,-3.5124,-3.4413,-3.496,-3.54,-3.54,-3.54,-3.5705,-3.646,-3.6492,-3.6492,-3.6492,-3.6492,-3.6492,-3.6492,-3.6492,-3.6492,-3.6492,-3.5769,-3.54,-3.54,-3.3939,-3.3596,-3.4279,-3.3526,-3.3178,-3.3157,-3.2503,-3.2218,-3.2218,-3.2218,-3.2218,-3.2218,-3.2218,-3.2408,-3.2704,-3.2704,-3.2952,-3.3304,0.0,0.0,0.0,0.0,0.0,0.0,0.0,0.0,0.0,0.0,0.0,0.0,0.0,0.0,0.0,0.0,0.0,0.0,-1.8062,-1.8019,-1.8091,-1.8268,-1.8728,-1.9838,-2.159,-2.2557,-2.3221,-2.3595,-2.3595,-2.3595,-2.3595,-2.3595,-2.3674,-2.3818,-2.394,-2.4082,-2.4187,-2.4276,-2.4302,-2.4302,-2.4302,-2.4302,-2.4302,0.0,0.0,0.0,0.0,0.0,0.0,0.0,0.0,0.0,-2.835,-2.8411,-2.8411,-2.8411,-2.8411,-2.8411,-2.8411,-2.8411,0.0,-2.8411,0.0,0.0,0.0,-2.7695,0.0,0.0,-3.0359,-3.1305,-3.1967,-3.1229,-3.0644,-3.1116,-3.1784,-3.2184,-3.2137,-3.4482,-3.5911,-3.5157,-3.5705,-3.6179,-3.6179,-3.6179,-3.6258,-3.6492,-3.6492,-3.6492,-3.6492,-3.6492,-3.6492,-3.6492,-3.6492,-3.6492,-3.6492,-3.5769,-3.5672,-3.6148,-3.4681,-3.3837,-3.3492,-3.2797,-3.2503,-3.248,-3.2277,-3.2218,-3.2218,-3.2218,-3.2218,-3.2205,-3.248,-3.2596,-3.2739,-3.3023,-3.3199,-3.3304,0.0,0.0,0.0,0.0,0.0,0.0,0.0,0.0,0.0,0.0,0.0,0.0,0.0,0.0,0.0,0.0,0.0,0.0,0.0,-1.8651,-1.8651,-1.8651,-1.9275,-2.0415,-2.2074,-2.3071,-2.3595,-2.3595,-2.3595,-2.3595,-2.3595,-2.3653,-2.3739,-2.3882,-2.4024,-2.4145,-2.425,-2.4281,-2.4302,-2.4302,-2.4302,-2.4471,-2.4697,0.0,0.0,0.0,0.0,0.0,0.0,0.0,0.0,0.0,-2.8411,-2.8411,-2.8411,-2.8411,-2.8411,-2.8411,-2.8411,-2.8411,0.0,-2.8411,-2.8411,-2.821,-2.7545,0.0,0.0,0.0,-3.0936,-3.1609,-3.2275,-3.158,-3.1028,-3.1422,-3.2049,-3.2573,-3.2807,-3.4711,-3.606,-3.5849,-3.6226,-3.6492,-3.6492,-3.6492,-3.6492,-3.6492,-3.6492,-3.6492,-3.6492,-3.6492,-3.6492,-3.6492,-3.6492,-3.6492,-3.6492,-3.5769,-3.564,-3.6053,-3.4581,-3.363,-3.3192,-3.2797,-3.2444,-3.2218,-3.2218,-3.2218,-3.2218,-3.2336,-3.2408,-3.2444,-3.281,-3.3023,-3.3164,-3.3409,-3.3597,-3.3736,0.0,0.0,0.0,0.0,0.0,0.0,0.0,0.0,0.0,0.0,0.0,0.0,0.0,0.0,0.0,0.0,0.0,0.0,0.0,0.0,-1.8792,-1.8792,-1.948,-2.0786,-2.2748,-2.331,-2.3595,-2.3595,-2.3595,-2.3595,-2.3616,-2.3739,-2.3882,-2.4024,-2.4145,-2.425,-2.4302,-2.4302,-2.4348,-2.4394,-2.4394,-2.481,-2.5389,-2.5389,0.0,0.0,0.0,0.0,0.0,0.0,0.0,0.0,-2.8411,-2.8411,-2.8411,-2.8411,-2.8411,-2.8411,-2.8411,0.0,0.0,-2.8411,-2.8348,0.0,-2.8387,-2.8079,-2.8284,-3.0025,-3.0982,-3.1686,-3.2275,-3.1908,-3.1508,-3.1566,-3.2092,-3.2736,-3.3396,-3.4607,-3.566,-3.6245,-3.6307,-3.6322,-3.6384,-3.6399,-3.643,-3.6492,-3.6492,-3.6492,-3.6492,-3.6492,-3.6492,-3.6492,-3.6492,-3.6492,-3.6492,-3.5847,-3.5497,-3.5464,-3.4075,-3.3353,-3.3297,-3.3157,-3.2797,-3.2255,-3.2255,-3.2277,-3.2314,-3.2646,-3.2739,-3.281,-3.3199,-3.3514,-3.3805,-3.3839,-3.4094,-3.4414,0.0,0.0,0.0,0.0,0.0,0.0,0.0,0.0,0.0,0.0,0.0,0.0,0.0,0.0,0.0,0.0,0.0,0.0,0.0,0.0,-1.9465,-1.9465,-2.0617,-2.1934,-2.337,-2.3535,-2.3595,-2.3595,-2.3595,-2.3653,-2.376,-2.3797,-2.394,-2.4145,-2.4202,-2.425,-2.4302,-2.4302,-2.461,-2.5081,-2.5081,-2.5518,-2.6149,-2.6096,-2.6526,0.0,0.0,0.0,0.0,0.0,0.0,0.0,-2.8411,-2.8411,-2.8411,-2.8411,-2.8411,-2.8411,-2.8411,-2.8411,0.0,0.0,-2.8048,-2.782,-2.8299,-2.8359,-2.8723,-3.0103,-3.1351,-3.2213,-3.2367,-3.1908,-3.1652,-3.2132,-3.2382,-3.2719,-3.3324,-3.4171,-3.4767,-3.4921,-3.4936,-3.5152,-3.5645,-3.5737,-3.5922,-3.6445,-3.6492,-3.6492,-3.6492,-3.6492,-3.6492,-3.6492,-3.6492,-3.6492,-3.6492,-3.6352,-3.6258,-3.6258,-3.5367,-3.4614,-3.4041,-3.2903,-3.2467,-3.2596,-3.2596,-3.2775,-3.3072,-3.3129,-3.3164,-3.3199,-3.3563,-3.3736,-3.3839,-3.4162,-3.4346,-3.4414,0.0,0.0,0.0,0.0,0.0,0.0,0.0,0.0,0.0,0.0,0.0,0.0,0.0,0.0,0.0,0.0,0.0,0.0,0.0,0.0,-1.9992,-2.0636,-2.162,-2.2607,-2.358,-2.3595,-2.3595,-2.3595,-2.3595,-2.3674,-2.3797,-2.3861,-2.4003,-2.4202,-2.4229,-2.4255,-2.4333,-2.4656,-2.4973,-2.5327,-2.5687,-2.6241,-2.6857,-2.6842,-2.7272,-2.7873,-2.7873,0.0,0.0,0.0,0.0,0.0,0.0,0.0,-2.8411,-2.8411,-2.8411,-2.8411,-2.8411,0.0,0.0,-2.8411,0.0,-2.8008,-2.8323,-2.8681,-2.9118,-2.9782,-3.0997,-3.2013,-3.2336,-3.2132,-3.202,-3.2342,-3.2438,-3.2659,-3.3295,-3.3721,-3.412,-3.4459,-3.4505,-3.4643,-3.4998,-3.5028,-3.5183,-3.5537,-3.5552,-3.5552,-3.5552,-3.583,-3.6014,-3.6014,-3.6322,-3.6492,-3.6492,-3.6492,-3.6492,-3.6492,-3.5832,-3.5044,-3.4129,-3.2974,-3.2538,-3.2704,-3.2917,-3.3094,-3.3304,-3.3479,-3.3563,-3.3597,-3.3942,-3.4094,-3.4128,-3.4312,-3.4414,-3.4414,0.0,0.0,0.0,0.0,0.0,0.0,0.0,0.0,0.0,0.0,0.0,0.0,0.0,0.0,0.0,0.0,0.0,0.0,0.0,0.0,0.0,-2.1799,-2.2424,-2.2987,-2.3595,-2.3616,-2.3616,-2.3595,-2.3595,-2.3674,-2.3839,-2.3961,-2.4082,-2.4208,-2.4276,-2.4302,-2.4327,-2.5004,-2.5358,-2.5564,-2.6272,-2.6965,-2.7565,-2.7565,-2.7919,-2.8411,-2.8411,-2.8411,-2.8411,-2.8411,0.0,0.0,0.0,0.0,-2.8411,-2.8411,-2.8411,-2.8411,-2.8411,0.0,-2.8411,-2.8411,-2.8411,0.0,-2.8411,-2.8842,-2.9248,-2.9371,-3.0474,-3.1551,-3.2121,-3.2321,-3.2398,-3.2398,-3.2398,-3.2582,-3.3152,-3.3229,-3.3444,-3.4073,-3.415,-3.4181,-3.4305,-3.432,-3.4366,-3.4489,-3.4505,-3.4505,-3.4505,-3.5044,-3.5337,-3.5337,-3.5891,-3.6138,-3.6138,-3.6168,-3.6199,-3.6168,-3.5501,-3.4623,-3.3643,-3.2883,-3.2673,-3.2917,-3.3234,-3.3409,-3.3514,-3.3805,-3.3908,-3.3942,-3.4264,-3.4414,-3.4414,-3.4414,-3.4414,-3.4414,0.0,0.0,0.0,0.0,0.0,0.0,0.0,0.0,0.0,0.0,0.0,0.0,0.0,0.0,0.0,0.0,0.0,0.0,-1.9708,0.0,0.0,-2.2508,-2.271,-2.3041,-2.3595,-2.3717,-2.3717,-2.3595,-2.3595,-2.3739,-2.3982,-2.3982,-2.4109,-2.4297,-2.4297,-2.4302,-2.4327,-2.5004,-2.5672,-2.6303,-2.698,-2.7673,-2.8273,-2.8273,-2.8319,-2.8411,-2.8411,-2.8411,-2.8411,-2.8411,-2.8411,0.0,0.0,0.0,-2.8411,-2.8411,-2.8411,-2.8411,0.0,0.0,-2.8411,0.0,-2.8411,-2.8411,0.0,0.0,-2.8704,-2.9289,-3.0474,-3.1439,-3.1532,-3.1997,-3.2398,-3.2398,-3.2398,-3.2428,-3.2521,-3.2521,-3.2567,-3.2659,-3.2675,-3.2906,-3.349,-3.3552,-3.3798,-3.4459,-3.4505,-3.4505,-3.4505,-3.4582,-3.4643,-3.4643,-3.472,-3.4767,-3.4767,-3.4885,-3.4928,-3.4928,-3.3909,-3.3054,-3.2346,-3.2103,-3.2615,-3.3667,-3.3701,-3.3908,-3.4264,-3.4312,-3.4312,-3.4346,-3.438,-3.4414,-3.4414,-3.4414,-3.4414,-3.4414,0.0,0.0,0.0,0.0,0.0,0.0,0.0,0.0,0.0,0.0,0.0,0.0,0.0,0.0,0.0,-1.9708,-2.0034,-2.0423,-2.0801,-2.144,-2.2109,-2.274,-2.3143,-2.3474,-2.3717,-2.376,-2.3739,-2.3595,-2.3674,-2.3818,0.0,-2.4082,-2.4172,-2.4302,-2.4302,-2.4518,-2.4918,-2.5626,-2.6318,-2.7011,-2.7688,-2.815,-2.8411,-2.8411,-2.8411,-2.8411,-2.8411,-2.8411,-2.8411,-2.8411,-2.8411,-2.8411,-2.8411,0.0,0.0,0.0,-2.8411,0.0,-2.8411,-2.8411,-2.8411,0.0,-2.8411,-2.8411,-2.8411,-2.8411,-2.8488,-2.8781,-2.9612,-3.0397,-3.0782,-3.1382,-3.1828,-3.1828,-3.2136,-3.2398,-3.2398,-3.2398,-3.2398,-3.2398,-3.2398,-3.2505,-3.2813,-3.2844,-3.2967,-3.329,-3.3334,-3.3334,-3.3334,-3.3675,-3.3875,-3.3875,-3.4289,-3.4534,-3.4606,-3.4665,-3.4665,-3.4577,-3.3819,-3.3193,-3.274,-3.2405,-3.2417,-3.2763,-3.337,-3.3743,-3.3906,-3.4269,-3.4414,-3.4414,-3.4414,-3.4414,-3.4414,-3.4414,-3.4414,-3.4414,0.0,0.0,0.0,0.0,0.0,0.0,0.0,0.0,0.0,0.0,0.0,0.0,0.0,0.0,0.0,0.0,-2.0572,-2.1246,-2.1904,-2.2439,-2.281,-2.3043,-2.3604,-2.3861,-2.3797,-2.3839,-2.376,-2.3595,-2.3739,0.0,-2.4003,-2.4145,-2.425,-2.4302,-2.4302,-2.4666,-2.5342,-2.6072,-2.6765,-2.7457,-2.8134,-2.8411,-2.8411,-2.8411,-2.8411,-2.8411,-2.8411,-2.8411,-2.8411,-2.8411,-2.8411,-2.8411,-2.8411,-2.8411,0.0,0.0,0.0,0.0,0.0,0.0,-2.8411,-2.8411,-2.8411,-2.8411,0.0,0.0,-2.8411,-2.8411,-2.8812,-2.9294,-2.9787,-3.0582,-3.1136,-3.1136,-3.1567,-3.1951,-3.2105,-3.2136,-3.2198,-3.2367,-3.2398,-3.2398,-3.2398,-3.2398,-3.2398,-3.2398,-3.2398,-3.2398,-3.2398,-3.2875,-3.3152,-3.3152,-3.3688,-3.4023,-3.4167,-3.4138,-3.4081,-3.3994,-3.3394,-3.3006,-3.2763,-3.2255,-3.1847,-3.1625,-3.2764,-3.3256,-3.33,-3.3732,-3.3935,-3.3935,-3.3935,-3.3935,-3.3935,-3.3935,-3.3935,-3.3935,0.0,0.0,0.0,0.0,0.0,0.0,0.0,0.0,0.0,0.0,0.0,0.0,-1.9708,-2.0273,-2.0643,-2.0643,-2.1261,-2.1919,-2.2598,-2.274,-2.3088,-2.3706,-2.403,0.0,-2.3818,-2.3903,-2.3861,-2.3595,-2.3739,0.0,-2.4003,-2.4145,-2.425,-2.4302,-2.4302,-2.4666,-2.5342,-2.6019,-2.6726,-2.7457,-2.8134,-2.8411,-2.8411,-2.8411,-2.8411,-2.8411,-2.8411,-2.8411,-2.8411,-2.8411,-2.8411,-2.8411,-2.8411,-2.8411,-2.8411,0.0,0.0,0.0,0.0,-2.8411,0.0,-2.8411,-2.8411,0.0,0.0,-2.8411,-2.8411,-2.8411,-2.8427,-2.8473,-2.8504,-2.9556,-3.0448,-3.0448,-3.0479,-3.0735,-3.1351,-3.1455,-3.1701,-3.2321,-3.2398,-3.2398,-3.2398,-3.2398,-3.2398,-3.2398,-3.2398,-3.2398,-3.2398,-3.2428,-3.2444,-3.2444,-3.249,-3.2561,-3.2714,-3.2588,-3.2573,-3.271,-3.1829,-3.1411,-3.1382,-3.0909,-3.0699,-3.0742,-3.2019,-3.2571,-3.2571,-3.2582,-3.2582,-3.2582,-3.2582,-3.2582,-3.2582,-3.2582,-3.2582,-3.2582,0.0,0.0,0.0,0.0,0.0,0.0,0.0,0.0,0.0,0.0,0.0,0.0,0.0,-2.0429,-2.102,-2.1484,-2.2153,-2.2818,-2.3483,-2.3555,-2.3703,-2.4046,-2.4145,-2.4103,-2.394,-2.3982,-2.3903,-2.3739,-2.3861,-2.4003,-2.4124,-2.4213,-2.4276,-2.4302,-2.4302,-2.4896,-2.5958,-2.6204,-2.6972,-2.8057,-2.8304,-2.8411,-2.8411,-2.8411,-2.8411,-2.8411,-2.8411,-2.8411,-2.8411,-2.8411,-2.8411,-2.8411,-2.8411,-2.8411,-2.8411,-2.8411,0.0,0.0,0.0,0.0,0.0,-2.8411,-2.8411,-2.8411,-2.8411,-2.8411,-2.8411,-2.8411,-2.8411,-2.8411,-2.8411,-2.9125,-2.9756,-2.9756,-3.0125,-3.0479,-3.0709,-3.0766,-3.0859,-3.1105,-3.1136,-3.1136,-3.1136,-3.1136,-3.1136,-3.1136,-3.1136,-3.1136,-3.1136,-3.152,-3.1751,-3.1751,-3.2167,-3.2523,-3.2773,-3.2827,-3.2769,-3.2586,-3.1992,-3.1552,-3.1278,-3.0807,-3.0598,-3.0627,-3.1061,-3.1496,-3.1872,-3.2307,-3.2481,-3.2481,-3.2481,-3.2481,-3.2481,-3.2481,-3.2481,-3.2481,0.0,0.0,0.0,0.0,0.0,0.0,0.0,0.0,0.0,-1.8893,0.0,0.0,0.0,0.0,-2.189,-2.2601,-2.3092,-2.3532,-2.3973,-2.4024,-2.4103,-2.4202,-2.4208,-2.4187,-2.4082,-2.3817,-2.3739,-2.3861,-2.3739,-2.3874,-2.4202,-2.4276,-2.4302,-2.4317,-2.4548,-2.525,-2.6327,-2.6557,-2.7349,-2.8411,-2.8411,-2.8411,-2.8411,-2.8411,-2.8411,-2.8411,-2.8411,-2.8411,-2.8411,-2.8411,-2.8411,-2.8411,-2.8411,-2.8411,-2.8411,-2.8411,0.0,0.0,-2.8411,0.0,0.0,0.0,-2.8411,-2.8411,-2.8411,-2.8411,-2.8411,-2.8411,-2.8411,-2.8411,-2.8411,-2.8765,-2.9048,-2.9048,-2.9433,-2.9802,-3.0033,-3.0063,-3.014,-3.0371,-3.0402,-3.0402,-3.0402,-3.0402,-3.0402,-3.0402,-3.0402,-3.0402,-3.0402,-3.0828,-3.1085,-3.1138,-3.1623,-3.2113,-3.2576,-3.2591,-3.2605,-3.2586,-3.2117,-3.1695,-3.1278,-3.0984,-3.0747,-3.0598,-3.0598,-3.0814,-3.1235,-3.1685,-3.1859,-3.1859,-3.1859,-3.1859,-3.1859,-3.1859,-3.1859,-3.1859,0.0,0.0,0.0,0.0,0.0,0.0,0.0,0.0,-1.9637,-1.9108,0.0,0.0,0.0,0.0,0.0,-2.3943,-2.4003,-2.4003,-2.4003,-2.4124,-2.4187,-2.4187,-2.4255,-2.4276,-2.4202,-2.3493,-2.3417,-2.4003,-2.3417,-2.3493,-2.4187,-2.4276,-2.4317,-2.4364,-2.5019,-2.5696,-2.6388,-2.7103,-2.7796,-2.8411,-2.8411,-2.8411,-2.8411,-2.8411,-2.8411,-2.8411,-2.8411,-2.8411,-2.8411,-2.8411,-2.8411,-2.8411,-2.8411,-2.8411,-2.8411,-2.8411,-2.8411,0.0,0.0,0.0,0.0,0.0,-2.8411,-2.8411,-2.8411,-2.8411,-2.8411,-2.8411,-2.8411,-2.8411,-2.8411,-2.8411,-2.8411,-2.8411,-2.8411,-2.8642,-2.9289,-2.9356,-2.9602,-3.0263,-3.034,-3.034,-3.034,-3.034,-3.034,-3.034,-3.034,-3.034,-3.034,-3.0356,-3.0449,-3.0603,-3.0731,-3.1195,-3.1956,-3.1711,-3.1905,-3.2567,-3.2086,-3.1665,-3.1277,-3.1278,-3.1014,-3.0598,-3.0598,-3.0598,-3.0598,-3.0598,-3.0598,-3.0598,-3.0598,-3.0598,-3.0598,-3.0598,-3.0598,-3.0598,0.0,0.0,0.0,0.0,0.0,0.0,-1.9695,-2.024,-2.044,0.0,0.0,0.0,-2.187,-2.3105,-2.402,-2.4183,-2.4234,-2.4234,-2.4234,-2.4255,-2.4276,-2.4276,-2.4297,-2.4276,-2.4202,-2.4003,-2.3983,-2.4145,-2.3983,-2.4009,-2.4276,-2.4297,-2.4543,-2.505,-2.578,-2.6472,-2.7119,-2.7319,-2.7796,-2.8411,-2.8411,-2.8411,-2.8411,-2.8411,-2.8411,-2.8411,-2.8411,-2.8411,-2.8411,-2.8411,-2.8411,-2.8411,-2.8411,-2.8411,-2.8411,-2.8411,-2.8411,0.0,-2.8411,0.0,0.0,0.0,0.0,0.0,-2.8411,-2.8411,-2.8411,-2.8411,-2.8411,-2.8411,-2.8411,-2.8411,-2.8411,-2.8411,-2.8411,-2.8473,-2.8658,-2.8688,-2.8765,-2.8925,-2.8965,-2.8965,-2.8965,-2.8965,-2.8965,-2.8965,-2.8965,-2.9015,-2.9098,-2.9652,-3.0198,-3.0746,-3.0787,-3.0941,-3.1265,-3.1205,-3.1324,-3.1573,-3.1321,-3.1112,-3.1016,-3.0851,-3.0717,-3.0598,-3.0598,-3.0598,-3.0598,-3.0598,-3.0598,-3.0598,-3.0598,-3.0598,-3.0598,-3.0598,-3.0598,-3.0598,0.0,0.0,0.0,0.0,0.0,-2.0043,-2.0043,-2.0606,-2.0914,0.0,0.0,0.0,-2.3038,-2.38,-2.4302,-2.4302,-2.4302,-2.4302,-2.4302,-2.4302,-2.4302,-2.4302,-2.4302,-2.4276,-2.4234,-2.3974,-2.3958,-2.425,-2.3958,-2.3979,-2.4302,-2.4302,-2.465,-2.5327,-2.6072,0.0,-2.7411,-2.7703,-2.8042,-2.8411,-2.8411,-2.8411,-2.8411,-2.8411,-2.8411,-2.8411,-2.8411,-2.8411,-2.8411,-2.8411,-2.8411,-2.8411,-2.8411,-2.8411,-2.8411,-2.8411,-2.8411,0.0,0.0,0.0,0.0,-2.8411,0.0,0.0,-2.8411,-2.8411,-2.8411,-2.8411,-2.8411,-2.8411,-2.8411,-2.8411,-2.8411,-2.8411,-2.8411,-2.8411,-2.8411,-2.8411,-2.8411,-2.8411,-2.8411,-2.8411,-2.8411,-2.8411,-2.842,-2.8468,-2.8493,-2.8541,-2.8684,-2.9121,-2.9559,-2.9998,-3.0014,-3.0228,-3.0658,-3.0674,-3.0865,-3.1198,-3.1094,-3.0924,-3.0712,-3.0449,-3.0218,-3.0046,-3.0148,-3.0176,-3.019,-3.0496,-3.0598,-3.0598,-3.0598,-3.0598,-3.0598,-3.0598,-3.0598,-3.0598,0.0,0.0,-2.027,-2.015,-2.0194,-2.024,-2.024,-2.0867,-2.1394,0.0,-2.2609,-2.364,-2.4241,-2.4302,-2.4302,-2.4302,-2.4302,-2.4302,-2.4302,-2.4302,-2.4302,-2.4302,-2.4302,-2.4302,-2.4302,-2.3717,-2.3702,-2.4302,-2.3702,-2.3717,-2.4302,-2.4379,-2.4758,-2.5435,0.0,0.0,-2.755,-2.815,-2.8411,-2.8411,-2.8411,-2.8411,-2.8411,-2.8411,-2.8411,-2.8411,-2.8411,-2.8411,-2.8411,-2.8411,-2.8411,-2.8411,-2.8468,-2.8444,-2.8396,-2.8468,-2.8444,0.0,0.0,0.0,0.0,-2.8411,-2.8411,0.0,-2.8411,-2.8411,-2.8411,-2.8411,-2.8411,-2.8411,-2.8411,-2.8411,-2.8411,-2.8411,-2.8411,-2.8411,-2.8411,-2.8411,-2.8411,-2.8411,-2.8411,-2.8411,-2.8411,-2.8396,-2.8468,-2.8597,-2.8621,-2.8708,-2.8803,-2.8842,-2.8858,-2.8904,-2.8904,-2.9289,-3.0077,-3.0093,-3.037,-3.0961,-3.095,-3.0717,-3.0305,-2.995,-2.9585,-2.9224,-2.9419,-2.9494,-2.9537,-3.0132,-3.0481,-3.0598,-3.0598,-3.0598,-3.0598,-3.0598,-3.0598,-3.0598,0.0,-2.0339,-2.0287,-2.027,-2.0698,-2.1085,-2.1085,-2.2098,-2.2882,-2.2902,-2.3609,-2.4148,-2.4302,-2.4302,-2.4302,-2.4302,-2.4302,-2.4302,-2.4302,-2.4302,-2.4302,-2.4302,-2.4302,-2.4302,-2.4302,-2.4179,-2.4179,-2.4302,-2.4179,-2.4179,-2.4317,-2.4835,-2.545,-2.6142,-2.6872,-2.758,-2.8211,-2.835,-2.8411,-2.8411,-2.8411,-2.8411,-2.8411,-2.8411,-2.8411,-2.8411,-2.8411,-2.8411,-2.8411,-2.8411,-2.8411,-2.8468,-2.885,-2.87,-2.8468,-2.885,-2.87,-2.8411,-2.8411,-2.8411,-2.8411,-2.8411,-2.8411,0.0,-2.8411,-2.8411,-2.8411,-2.8411,-2.8411,-2.8411,-2.8411,-2.8411,-2.8411,-2.8411,-2.8411,-2.8411,-2.8411,-2.8411,-2.8411,-2.8411,-2.8411,-2.8411,-2.8411,-2.8493,-2.8573,-2.8597,-2.8748,-2.885,-2.8873,-2.8982,-2.9045,-2.9052,-2.9052,-2.9138,-2.9304,-2.9304,-2.9382,-2.9525,-2.9388,-2.9297,-2.921,-2.901,-2.889,-2.8821,-2.8868,-2.8869,-2.8898,-2.9028,-2.9682,-3.0598,-3.0598,-3.0598,-3.0598,-3.0598,-3.0598,-3.0598,-2.0544,-2.0688,-2.0795,-2.0795,-2.135,-2.192,-2.2259,-2.2855,-2.3425,-2.3748,-2.4087,-2.4302,-2.4302,-2.4302,-2.4302,-2.4302,-2.4302,-2.4302,-2.4302,-2.4302,-2.4302,-2.4302,-2.4302,-2.4302,-2.4302,-2.4302,-2.4302,-2.4302,-2.4302,-2.4466,-2.4825,-2.5127,-2.5995,-2.7239,-2.7349,-2.7914,-2.8779,-2.8501,-2.8411,-2.8411,-2.8411,-2.8411,-2.8411,-2.8411,-2.8411,-2.8411,-2.8411,-2.8411,-2.8411,-2.8411,-2.8411,-2.8493,-2.8951,-2.8928,-2.8795,-2.9044,-2.8928,-2.87,-2.8468,-2.8411,-2.8411,-2.8411,-2.8411,0.0,0.0,-2.8411,-2.8468,-2.8732,-2.8779,-2.885,-2.9189,-2.9196,-2.9074,-2.8834,-2.8803,-2.8732,-2.8541,-2.8444,-2.8411,-2.8411,-2.8411,-2.8411,-2.8411,-2.8468,-2.8565,-2.8684,-2.8905,-2.899,-2.899,-2.9052,-2.9098,-2.9098,-2.9098,-2.9098,-2.9098,-2.9098,-2.9098,-2.9114,-2.9027,-2.8891,-2.8694,-2.8625,-2.839,-2.8076,-2.837,-2.838,-2.8231,-2.855,-2.9087,-2.9653,-2.9653,-2.9827,-3.0103,-3.0103,-3.0306,-3.0598,-2.0899,-2.1097,-2.1334,-2.1473,-2.2058,-2.2671,-2.3209,-2.3409,-2.3686,-2.4241,-2.4302,-2.4302,-2.4302,-2.4302,-2.4302,-2.4302,-2.4385,-2.4385,-2.4302,-2.4385,-2.4385,-2.4302,-2.4302,-2.4302,-2.4302,-2.4302,-2.4364,-2.4502,-2.4502,-2.4835,-2.5496,-2.5635,-2.6539,-2.8025,-2.7736,-2.814,0.0,-2.8597,-2.8444,-2.8525,-2.8525,-2.8493,-2.8396,-2.8517,-2.8468,-2.8411,-2.8411,-2.8411,-2.8396,-2.8517,-2.8468,-2.8501,-2.9166,-2.9257,-2.912,-2.9212,-2.9166,-2.8997,-2.8541,-2.8411,-2.8411,-2.8411,-2.8411,-2.8411,0.0,0.0,0.0,-2.9005,-2.912,-2.9287,-2.9876,-2.9946,-2.9783,-2.9253,-2.9265,-2.9216,-2.8732,-2.8622,-2.8549,-2.8484,-2.8436,-2.8396,-2.8436,-2.846,-2.8565,-2.8842,-2.8998,-2.9098,-2.9098,-2.9098,-2.9098,-2.9098,-2.9098,-2.9098,-2.9098,-2.9098,-2.9098,-2.9098,-2.9029,-2.8811,-2.8487,-2.8415,-2.8067,-2.7529,-2.801,-2.8012,-2.7686,-2.8238,-2.8456,-2.8471,-2.8635,-2.9,-2.9421,-2.9421,-2.9769,-3.0234,-2.1234,-2.1278,-2.1488,-2.2089,-2.2732,-2.3209,-2.3286,-2.381,-2.421,-2.4302,-2.4302,-2.4302,-2.4302,-2.4302,-2.4302,-2.4302,-2.4619,-2.4679,-2.4323,-2.4619,-2.4679,-2.4317,-2.4302,-2.4302,-2.4302,-2.4302,-2.4594,-2.5189,-2.5189,-2.5564,-2.6287,-2.6872,-2.7288,-2.7504,-2.8035,-2.8359,-2.8493,-2.8436,-2.8629,-2.902,-2.902,-2.8771,-2.8444,-2.8873,-2.8756,-2.8411,-2.8411,-2.8411,-2.8468,-2.8873,-2.8748,-2.8621,-2.993,-2.9777,-2.9189,-2.9595,-2.9438,-2.8997,-2.8541,-2.8411,-2.8411,-2.8411,-2.8411,-2.842,-2.8549,0.0,-2.8468,-2.8779,0.0,-2.9264,-2.9451,0.0,0.0,-2.9151,-2.9575,-2.9755,-2.9051,-2.9155,-2.9143,-2.8794,-2.8556,-2.8444,-2.8565,-2.8684,-2.8826,-2.9045,-2.9091,-2.9098,-2.9098,-2.9098,-2.9098,-2.9098,-2.9098,-2.9098,-2.9098,-2.9098,-2.9098,-2.9114,-2.874,-2.8535,-2.8487,-2.8134,-2.7923,-2.7839,-2.7915,-2.775,-2.7443,-2.7517,-2.7547,-2.7624,-2.8396,-2.8752,-2.8811,-2.8811,-2.8854,-2.8983,-2.1892,-2.2197,0.0,-2.2825,-2.3425,-2.3887,-2.3887,-2.4133,-2.4302,-2.4302,-2.4302,-2.4302,-2.4302,-2.4302,-2.4405,-2.4619,-2.4594,-2.4594,-2.4639,-2.4594,-2.4472,-2.4302,-2.4302,-2.4466,-2.4866,-2.4887,-2.5241,-2.5933,-2.5933,-2.6303,-2.698,-2.7257,-2.7767,-2.8473,-2.8701,-2.902,-2.9361,-2.8974,-2.9097,-2.954,-2.9234,-2.9159,-2.9205,-2.9136,-2.8974,-2.8803,-2.8803,-2.899,-2.9205,-2.9136,-2.9159,-2.9364,-3.0246,-3.023,-2.9951,-3.0161,-3.0059,-2.9799,-2.9341,-2.9234,-2.9264,-2.9227,-2.9044,-2.8881,-2.8982,-2.892,-2.902,-2.9566,0.0,0.0,0.0,0.0,0.0,0.0,-3.0355,-3.0373,-2.9839,-2.9545,-2.9355,-2.9182,-2.8858,-2.8652,-2.8708,-2.8787,-2.8889,-2.8967,-2.9052,-2.9098,-2.9098,-2.9098,-2.9098,-2.9098,-2.9098,-2.9098,-2.9098,-2.9098,-2.9098,-2.9098,-2.892,-2.8732,-2.8487,-2.8574,-2.8328,-2.7898,-2.8158,-2.8027,-2.7695,-2.7695,-2.7695,-2.773,-2.8092,-2.8476,-2.8833,-2.8833,-2.9044,-2.9414,-2.291,0.0,0.0,-2.3608,-2.4055,-2.4385,-2.4385,-2.4343,-2.4302,-2.4359,-2.4317,-2.4302,-2.4302,-2.4405,-2.4533,-2.4719,-2.4679,-2.4659,-2.4739,-2.4745,-2.4653,-2.4467,-2.4734,-2.5053,-2.5474,-2.5546,-2.5949,-2.6657,-2.6657,-2.7011,-2.7673,-2.7673,-2.814,-2.8982,-2.8928,-2.9241,-2.9789,-2.9309,-2.9473,-3.0026,-2.9645,-2.9689,-2.9946,-2.9483,-2.9371,-2.9467,-2.9348,-2.9506,-2.9772,-2.9572,-2.9617,-2.9903,-3.0497,-3.0601,-3.0497,-3.0497,-3.0502,-3.0418,-2.9924,-2.9848,-2.9876,-2.9815,-2.9601,-2.9406,-2.9499,-2.9467,-2.9629,-3.023,-3.0605,0.0,0.0,0.0,-3.1454,-3.076,0.0,-3.0727,-3.0117,-2.9735,-2.9512,-2.9512,-2.922,-2.9021,-2.9021,-2.9059,-2.9113,-2.9159,-2.9106,-2.9098,-2.9098,-2.9098,-2.9098,-2.9098,-2.9098,-2.9098,-2.9098,-2.9098,-2.9098,-2.9098,-2.9098,-2.8959,-2.8669,-2.8982,-2.8764,-2.8247,-2.855,-2.8439,-2.8061,-2.8061,-2.8061,-2.8061,-2.8061,-2.8431,-2.8924,-2.8723,-2.8925,-2.9364,-2.4402,-2.4033,0.0,-2.4363,-2.4528,-2.4589,-2.4589,-2.4426,-2.4359,-2.4477,-2.438,-2.4302,-2.4302,-2.4639,-2.4739,-2.4343,-2.502,-2.5137,-2.4364,-2.5285,-2.5573,-2.4914,-2.5817,-2.6178,-2.5899,-2.62,-2.6688,-2.7365,-2.7365,-2.7703,-2.8365,-2.8365,-2.8381,-2.8436,-2.842,-2.8677,-2.912,-2.9097,-2.9623,-3.0477,-3.0456,-3.046,-3.0435,-2.9968,-3.0054,-3.0393,-2.9946,-2.9788,-2.9859,-3.0309,-3.0161,-2.9946,-3.0895,-3.0858,-3.0497,-3.0497,-3.0559,-3.0481,-2.9946,-2.9848,-2.9876,-2.9815,-2.9827,-2.9919,-3.0043,-3.0069,-3.0154,-3.0439,-3.071,-3.0934,-3.1086,-3.1485,-3.1412,-3.023,-3.0647,0.0,0.0,-2.9597,-2.9788,-2.9788,-2.9677,-2.9572,-2.9572,-2.9589,-2.9617,-2.975,-2.9357,-2.9098,-2.9098,-2.9098,-2.9098,-2.9098,-2.9098,-2.9098,-2.9098,-2.9098,-2.9098,-2.9098,-2.9098,-2.9075,-2.9075,-2.9075,-2.9091,-2.9052,-2.9075,-2.885,-2.8487,-2.8487,-2.8487,-2.8487,-2.8487,-2.8732,-2.9014,-2.8213,-2.7959,-2.8024,0.0,0.0,0.0,0.0,-2.4544,-2.4503,-2.4405,-2.4343,-2.4405,-2.4719,-2.4735,-2.4799,-2.5079,-2.4981,-2.4962,-2.5079,-2.4859,-2.5028,-2.5767,-2.5613,-2.5916,-2.6855,-2.6553,-2.6864,-2.7865,-2.7346,-2.7673,-2.8991,-2.8674,-2.88,-2.9319,-2.8997,-2.8873,-2.8873,-2.8873,-2.9143,-2.9635,-2.9635,-3.0154,-3.1041,-3.0978,-3.0958,-3.0955,-3.0777,-3.0638,-3.0497,-3.0377,-3.0522,-3.0767,-3.0707,-3.0801,-3.0958,-3.1196,-3.1159,-3.1021,-3.0978,-3.1001,-3.1024,-3.0828,-3.0908,-3.0988,-3.0828,-3.069,-3.0555,-3.0547,-3.0592,-3.0677,-3.0868,-3.122,-3.1506,-3.156,-3.1447,-3.121,-3.0784,-3.0934,-3.0962,0.0,-3.0597,-3.0563,-3.0293,-2.9661,-2.9403,-2.9683,-2.9454,-2.9289,-2.9335,-2.919,-2.9098,-2.9098,-2.9098,-2.9098,-2.9098,-2.9098,-2.9098,-2.9098,-2.9098,-2.9098,-2.9098,-2.9098,-2.9098,-2.9098,-2.9098,-2.9098,-2.9098,-2.9098,-2.9029,-2.8897,-2.8897,-2.8897,-2.8897,-2.8897,-2.8982,-2.9075,-2.8803,-2.8693,-2.8716,-2.5307,-2.5088,-2.4806,-2.463,-2.4544,-2.4477,-2.4405,-2.4508,-2.4675,-2.4938,-2.5059,-2.5218,-2.5484,-2.5294,-2.5368,-2.584,-2.55,-2.5683,-2.6708,-2.6713,-2.7003,-2.7829,-2.7764,-2.8174,-2.9169,-2.86,-2.8812,-2.9843,-2.9506,-2.9506,-2.9793,-2.9325,-2.9097,-2.9097,-2.9097,-2.94,-2.9903,-3.0091,-3.0588,-3.1295,-3.123,-3.119,-3.121,-3.123,-3.1018,-3.076,-3.0825,-3.1044,-3.1276,-3.11,-3.1252,-3.1479,-3.1351,-3.1332,-3.1351,-3.1271,-3.1312,-3.1408,-3.137,-3.1485,-3.156,-3.1408,-3.1259,-3.1128,-3.1103,-3.1145,-3.1242,-3.1334,-3.1579,-3.18,-3.18,-3.1542,-3.1278,-3.1123,-3.1103,-3.1064,0.0,-3.0885,-3.0828,-3.0744,-3.0187,-2.9881,-3.0032,-2.9788,-2.9522,-2.9357,-2.919,-2.9098,-2.9098,-2.9098,-2.9098,-2.9098,-2.9098,-2.9098,-2.9098,-2.9098,-2.9098,-2.9098,-2.9098,-2.9098,-2.9098,-2.9098,-2.9098,-2.9098,-2.9098,-2.9098,-2.9098,-2.9098,-2.9098,-2.9098,-2.9098,-2.9098,-2.9098,-2.9098,-2.9098,-2.9098,-2.5107,-2.5045,-2.4946,-2.469,-2.4564,-2.4523,-2.4569,-2.489,-2.5127,-2.5146,-2.5368,-2.5556,-2.5589,-2.5715,-2.6026,-2.661,-2.6921,-2.7114,-2.7216,-2.8424,-2.8772,-2.8012,-2.9333,-3.0009,-2.98,-2.9851,-2.9924,-2.9967,-2.9886,-2.9853,-2.9859,-2.9393,-2.9143,-2.912,-2.912,-2.9406,-2.9924,-3.0423,-3.0868,-3.1315,-3.1232,-3.121,-3.121,-3.1274,-3.1254,-3.123,-3.1293,-3.1315,-3.1332,-3.1462,-3.1517,-3.1481,-3.1351,-3.1406,-3.1462,-3.1351,-3.1447,-3.1579,-3.1519,-3.1557,-3.1579,-3.1519,-3.1559,-3.1598,-3.1598,-3.1709,-3.18,-3.18,-3.18,-3.18,-3.18,-3.1746,-3.1615,-3.1162,-3.1103,-3.0968,-3.0605,-3.0559,-3.0686,-3.1033,-3.1106,-3.0965,-3.058,-3.0497,-3.0288,-2.9815,-2.938,-2.9098,-2.9098,-2.9098,-2.9098,-2.9098,-2.9098,-2.9098,-2.9098,-2.9098,-2.9098,-2.9098,-2.9098,-2.9098,-2.9098,-2.9098,-2.9098,-2.9098,-2.9098,-2.9098,-2.9098,-2.9098,-2.9098,-2.9098,-2.9098,-2.9098,-2.9098,-2.9098,-2.9098,-2.9098,-2.5834,-2.5703,-2.5478,-2.5114,-2.4775,-2.4544,-2.4405,-2.4791,-2.5208,-2.5513,-2.5905,-2.639,-2.6937,-2.7023,-2.7214,-2.7614,-2.7738,-2.8168,-2.9052,-2.9111,-2.956,-3.0588,-3.029,-3.0427,-3.11,-3.0307,-3.0222,-3.0948,-3.0522,-3.0514,-3.0818,-3.0351,-2.9951,-2.9617,-2.9617,-2.9717,-2.9924,-3.0506,-3.1044,-3.1523,-3.1351,-3.1329,-3.1404,-3.1332,-3.1349,-3.1423,-3.1485,-3.1502,-3.1481,-3.1651,-3.167,-3.1559,-3.1481,-3.1462,-3.1462,-3.1351,-3.1406,-3.1538,-3.1559,-3.1653,-3.1709,-3.1596,-3.1653,-3.1727,-3.1617,-3.1709,-3.18,-3.18,-3.18,-3.18,-3.18,-3.1257,-3.0885,-3.1083,-3.1103,-3.1181,-3.1428,-3.1466,-3.1298,-3.086,-3.0974,-3.1064,-3.0965,-3.0356,-2.9924,-2.981,-2.938,-2.9098,-2.9098,-2.9098,-2.9098,-2.9098,-2.9098,-2.9098,-2.9098,-2.9098,-2.9098,-2.9098,-2.9098,-2.9098,-2.9098,-2.9098,-2.9098,-2.9098,-2.9098,-2.9098,-2.9098,-2.9098,-2.9098,-2.9098,-2.9098,-2.9098,-2.9098,-2.9098,-2.9098,-2.9098,-2.5647,-2.5535,-2.5362,-2.5072,-2.4993,-2.4895,-2.4715,-2.5509,-2.6216,-2.6418,-2.7118,-2.7736,-2.814,-2.8121,-2.8333,-2.8994,-2.9003,-2.934,-3.0174,-3.0267,-3.0572,-3.1264,-3.101,-3.1106,-3.1671,-3.0991,-3.0888,-3.1387,-3.1041,-3.0962,-3.119,-3.072,-3.0372,-3.0118,-3.0118,-3.0145,-3.0239,-3.0845,-3.1274,-3.1557,-3.1426,-3.1443,0.0,-3.1447,-3.1466,-3.1557,-3.1653,-3.1615,-3.1576,-3.1744,-3.1746,-3.1671,-3.1559,-3.1576,-3.1595,-3.1466,-3.1521,-3.1632,-3.1671,-3.1727,-3.1781,-3.1709,-3.1746,-3.1781,-3.1709,-3.1746,-3.18,-3.18,-3.18,-3.18,-3.18,-3.1408,-3.114,-3.1372,-3.1411,-3.1384,-3.1333,-3.1317,-3.1024,-3.0265,-3.031,-3.0402,-3.0402,-3.0055,-2.9599,-2.9135,-2.883,-2.8747,-2.8911,-2.877,-2.8798,-2.9098,-2.9098,-2.9098,-2.9098,-2.9098,-2.9098,-2.9098,-2.9098,-2.9098,-2.9098,-2.9098,-2.9098,-2.9098,-2.9098,-2.9098,-2.9098,-2.9098,-2.9098,-2.9098,-2.9098,-2.9098,-2.9098,-2.9098,-2.9098,-2.9098,-2.5188,-2.5185,-2.5178,-2.5112,-2.5391,-2.564,-2.5663,-2.664,-2.7389,-2.7435,-2.8348,-2.9054,-2.9187,-2.9115,-2.9439,-3.0404,-3.0399,-3.0503,-3.0894,-3.1485,-3.1579,-3.1033,-3.1524,-3.18,-3.18,-3.1671,-3.1559,-3.1498,-3.137,-3.1274,-3.119,-3.0781,0.0,0.0,0.0,0.0,-3.0747,-3.131,-3.1536,-3.1536,-3.1517,-3.1519,-3.1555,-3.1578,-3.1617,-3.1635,-3.1746,-3.1709,-3.1617,-3.1746,-3.18,-3.1746,-3.1635,-3.169,-3.1746,-3.1635,-3.169,-3.1781,-3.18,-3.18,-3.18,-3.18,-3.18,-3.18,-3.18,-3.18,-3.18,-3.18,-3.18,-3.18,-3.18,-3.18,-3.1781,-3.1709,-3.1677,-3.142,-3.0782,-3.061,-3.0248,-2.9455,-2.9386,0.0,-2.923,-2.9496,-2.9295,-2.837,-2.813,-2.8178,-2.8527,-2.8194,-2.8237,-2.8814,-2.8846,-2.8853,-2.8876,-2.8853,-2.8853,-2.8876,-2.8853,-2.8846,-2.8846,-2.8846,-2.8846,-2.8846,-2.8846,-2.8846,-2.8846,-2.8846,-2.8893,-2.8972,-2.9067,-2.9098,-2.9098,-2.9098,-2.9098,-2.9098,-2.5924,-2.6138,-2.6391,-2.6637,-2.6768,-2.7097,-2.8025,-2.7325,-2.6909,-2.7565,-2.8152,-2.887,-2.9756,-3.0167,-3.0531,-3.0927,-3.1316,-3.1534,-3.1617,-3.1727,-3.1746,-3.1635,-3.1746,-3.18,-3.18,-3.1671,-3.1559,-3.1498,-3.137,-3.1274,-3.119,-3.1131,-3.0878,0.0,0.0,0.0,-3.1366,-3.1632,-3.1744,-3.1744,-3.1634,-3.1653,-3.1744,-3.1653,-3.1671,-3.1781,-3.18,-3.1709,-3.1617,-3.1746,-3.1727,-3.1635,-3.1598,-3.1617,-3.1635,-3.1598,-3.1617,-3.1671,-3.1781,-3.18,-3.18,-3.18,-3.18,-3.18,-3.18,-3.18,-3.18,-3.18,-3.18,-3.18,-3.18,-3.18,-3.1671,-3.1295,-3.1028,-3.0852,-3.0731,-3.0127,-2.9437,-2.8678,-2.8835,-2.8662,-2.7767,-2.8521,-2.8969,-2.8792,-2.8092,-2.7711,-2.7793,-2.7461,-2.7336,-2.7462,-2.7462,-2.7533,-2.7711,-2.7533,-2.7533,-2.7711,-2.7533,-2.7462,-2.7462,-2.7462,-2.7462,-2.7462,-2.7462,-2.7462,-2.7462,-2.7462,-2.7778,-2.8331,-2.8877,-2.9098,-2.9098,-2.9098,-2.9098,-2.9098,-2.6602,-2.6795,-2.6964,-2.7114,-2.7666,-2.8134,-2.8263,-2.815,-2.8322,-2.9053,-2.9675,-3.026,-3.0759,-3.1102,-3.1313,-3.1451,-3.1671,-3.18,-3.18,-3.18,-3.18,-3.18,-3.18,-3.18,-3.18,-3.1727,-3.1653,-3.154,-3.1445,-3.1349,-3.1252,-3.123,-3.1075,-3.0878,0.0,-3.1329,-3.1517,-3.1634,-3.169,-3.1709,-3.1709,-3.1727,-3.18,-3.1727,-3.1746,-3.18,-3.18,-3.1746,-3.1709,-3.1781,-3.1746,-3.1709,-3.1709,-3.1709,-3.1709,-3.1709,-3.1709,-3.1727,-3.1781,-3.18,-3.18,-3.18,-3.18,-3.18,-3.18,-3.18,-3.18,-3.18,-3.18,-3.18,-3.18,-3.18,-3.1744,-3.1504,-3.1017,-3.0541,-3.0144,-2.9437,-2.8711,-2.7984,-2.8012,-2.7927,-2.7398,-2.779,-2.8066,-2.8066,-2.7679,-2.752,-2.7654,-2.7165,-2.7052,-2.7358,-2.719,-2.7142,-2.7233,-2.7142,-2.7142,-2.7233,-2.7142,-2.7099,-2.7099,-2.7099,-2.7099,-2.7099,-2.7099,-2.7099,-2.7099,-2.7099,-2.7494,-2.8126,-2.8458,-2.8926,-2.9454,-2.9454,-2.9611,-2.9766,-2.6886,-2.7175,-2.7379,-2.7528,-2.8275,-2.8796,-2.8625,-2.9264,-2.9937,-3.0468,-3.1052,-3.1464,-3.1635,-3.1727,-3.18,-3.18,-3.18,-3.18,-3.18,-3.18,-3.18,-3.18,-3.18,-3.18,-3.18,-3.18,-3.1727,-3.1598,-3.1557,-3.1376,-3.1074,-3.1203,-3.1249,-3.1269,-3.1332,-3.1408,-3.1519,-3.1615,-3.1635,-3.1635,-3.1746,-3.18,-3.18,-3.18,-3.18,-3.18,-3.18,-3.18,-3.18,-3.18,-3.18,-3.18,-3.18,-3.18,-3.18,-3.18,-3.18,-3.18,-3.18,-3.18,-3.18,-3.18,-3.18,-3.18,-3.18,-3.18,-3.18,-3.18,-3.18,-3.18,-3.18,-3.1662,-3.1558,-3.1558,-3.0817,-3.0024,-2.9368,-2.8693,-2.805,-2.7492,-2.7392,-2.7392,-2.7423,-2.736,-2.733,-2.7345,-2.725,-2.7273,-2.7502,-2.693,-2.6798,-2.721,-2.7029,-2.6896,-2.6896,-2.685,-2.685,-2.6896,-2.6809,-2.6762,-2.672,-2.672,-2.6699,-2.6656,-2.6656,-2.6656,-2.6656,-2.6814,-2.7322,-2.8027,-2.8208,-2.8956,-2.9946,-2.9946,-3.0182,-3.0393,-2.6321,-2.7038,-2.794,-2.8541,-2.8544,-2.9094,-3.0962,-3.0865,-3.061,-3.0679,-3.0748,-3.1041,-3.1695,-3.18,-3.18,-3.18,-3.18,-3.18,-3.18,-3.18,-3.18,-3.18,-3.18,-3.18,-3.18,-3.18,-3.1727,-3.1598,-3.1579,-3.1162,-3.0326,-3.1117,-3.1479,-3.1479,-3.154,-3.1579,-3.1598,-3.1727,-3.1781,-3.1781,-3.18,-3.18,-3.18,-3.18,-3.18,-3.18,-3.18,-3.18,-3.18,-3.18,-3.18,-3.18,-3.18,-3.18,-3.18,-3.18,-3.18,-3.18,-3.18,-3.18,-3.18,-3.18,-3.18,-3.18,-3.18,-3.18,-3.18,-3.18,-3.18,-3.18,-3.18,-3.1248,-3.08,-3.08,-2.9609,-2.8691,-2.8605,-2.7947,-2.7492,-2.7498,-2.7392,-2.736,-2.7465,-2.7421,-2.7423,-2.7465,-2.7024,-2.6793,-2.6893,-2.6468,-2.6166,-2.5975,-2.6176,-2.6267,-2.6195,-2.601,-2.601,-2.6195,-2.5894,-2.5644,-2.5483,-2.5483,-2.5369,-2.5191,-2.5191,-2.5191,-2.5238,-2.5851,-2.6748,-2.7814,-2.8461,-2.9417,-3.0418,-3.0418,-3.0456,-3.0497,-2.8014,-2.851,-2.9058,-2.9811,-3.0228,-3.0575,-3.1004,-3.123,-3.1351,-3.1351,-3.1351,-3.1472,-3.1765,-3.18,-3.18,-3.18,-3.18,-3.18,-3.18,-3.18,-3.18,-3.18,-3.18,-3.18,-3.18,-3.18,-3.1764,-3.1727,-3.1635,-3.1406,-3.1057,-3.1363,-3.1519,-3.1559,-3.1596,-3.1635,-3.1727,-3.1781,-3.18,-3.18,-3.18,-3.18,-3.18,-3.18,-3.18,-3.18,-3.18,-3.18,-3.18,-3.18,-3.18,-3.18,-3.18,-3.18,-3.18,-3.18,-3.18,-3.18,-3.18,-3.18,-3.18,-3.18,-3.18,-3.18,-3.18,-3.18,-3.18,-3.18,-3.18,-3.1662,-3.1214,-3.0886,-3.0559,-3.011,-2.9159,-2.8516,-2.8547,-2.7968,-2.7544,-2.7557,-2.7496,-2.7513,-2.7557,-2.7513,-2.7498,-2.7557,-2.7355,-2.7228,-2.723,-2.6889,-2.6623,-2.6454,-2.6368,-2.6298,-2.6281,-2.6193,-2.6193,-2.6281,-2.6139,-2.6033,-2.5959,-2.5959,-2.5758,-2.5419,-2.5591,-2.5535,-2.5343,-2.5845,-2.6589,-2.7459,-2.8201,-2.9205,-3.0241,-3.0697,-3.1044,-3.1276,-2.9299,-2.9696,-3.0024,-3.0593,-3.1145,-3.1369,-3.1058,-3.1472,-3.18,-3.18,-3.18,-3.18,-3.18,-3.18,-3.18,-3.18,-3.18,-3.18,-3.18,-3.18,-3.18,-3.18,-3.18,-3.18,-3.18,-3.18,-3.18,-3.18,-3.1709,-3.1532,-3.1291,-3.1233,-3.1372,-3.1671,-3.1671,-3.1709,-3.18,-3.18,-3.18,-3.18,-3.18,-3.18,-3.18,-3.18,-3.18,-3.18,-3.18,-3.18,-3.18,-3.18,-3.18,-3.18,-3.18,-3.18,-3.18,-3.18,-3.18,-3.18,-3.18,-3.18,-3.18,-3.18,-3.18,-3.18,-3.18,-3.18,-3.18,-3.18,-3.1627,-3.1317,-3.08,-3.0352,-2.9886,-2.9349,-2.8688,-2.8266,-2.8295,-2.7903,-2.7617,-2.7615,-2.7585,-2.7587,-2.7615,-2.7572,-2.7557,-2.7615,-2.763,-2.7585,-2.7542,-2.7305,-2.7131,-2.7003,-2.684,-2.6724,-2.664,-2.664,-2.664,-2.664,-2.659,-2.6539,-2.6488,-2.6436,-2.6228,-2.5923,-2.6104,-2.5998,-2.5728,-2.6016,-2.6625,-2.7428,-2.7946,-2.8992,-3.0258,-3.0785,-3.1334,-3.18,-2.9506,-3.0144,-3.0697,-3.0714,-3.0714,-3.0973,-3.1679,-3.1783,-3.18,-3.18,-3.18,-3.18,-3.18,-3.18,-3.18,-3.18,-3.18,-3.18,-3.18,-3.18,-3.18,-3.18,-3.18,-3.18,-3.18,-3.18,-3.18,-3.18,-3.18,-3.1367,-3.0502,-3.0502,-3.0969,-3.18,-3.18,-3.18,-3.18,-3.18,-3.18,-3.18,-3.18,-3.18,-3.18,-3.18,-3.18,-3.18,-3.18,-3.18,-3.18,-3.18,-3.18,-3.18,-3.18,-3.18,-3.18,-3.18,-3.18,-3.18,-3.18,-3.18,-3.18,-3.18,-3.18,-3.18,-3.18,-3.18,-3.18,-3.18,-3.1214,-3.0696,-3.0714,-2.9523,-2.8518,-2.8501,-2.8018,-2.7619,-2.7619,-2.7602,-2.7615,-2.7686,-2.7585,-2.7539,-2.7686,-2.7644,-2.7615,-2.7701,-2.7701,-2.7657,-2.7602,-2.7602,-2.7463,-2.7197,-2.7448,-2.7448,-2.7197,-2.7181,-2.7181,-2.7181,-2.707,-2.6874,-2.6691,-2.6488,-2.6402,-2.6385,-2.6385,-2.6316,-2.6177,-2.6211,-2.6821,-2.7791,-2.7808,-2.8988,-3.0679,-3.0696,-3.1162,-3.18,-3.0213,-3.0506,-3.0851,-3.1351,-3.1438,-3.1524,-3.1765,-3.18,-3.18,-3.18,-3.18,-3.18,-3.18,-3.18,-3.18,-3.18,-3.18,-3.18,-3.18,-3.18,-3.18,-3.18,-3.18,-3.18,-3.18,-3.18,-3.18,-3.18,-3.18,-3.1661,-3.1384,-3.1384,-3.154,-3.18,-3.18,-3.18,-3.18,-3.18,-3.18,-3.18,-3.18,-3.1947,-3.2144,-3.2144,-3.2266,-3.2486,-3.2486,-3.2486,-3.2486,-3.2486,-3.2486,-3.2486,-3.2486,-3.2179,-3.18,-3.18,-3.18,-3.18,-3.18,-3.18,-3.18,-3.18,-3.18,-3.18,-3.18,-3.18,-3.1662,-3.1145,-3.0905,-3.0439,-2.9384,-2.8861,-2.8405,-2.7964,-2.7729,-2.7632,-2.7657,-2.7674,-2.7672,-2.7701,-2.7657,-2.7642,-2.7701,-2.7672,-2.7672,-2.7701,-2.7701,-2.7686,-2.7657,-2.7674,-2.7627,-2.7535,-2.7627,-2.7627,-2.7552,-2.7552,-2.7552,-2.7552,-2.7507,-2.7444,-2.7382,-2.7258,-2.7084,-2.689,-2.7068,-2.6971,-2.669,-2.6971,-2.7287,-2.7627,-2.8096,-2.8662,-2.9315,-3.0335,-3.0852,-3.111,-3.0955,-3.111,-3.1248,-3.1714,-3.18,-3.18,-3.18,-3.18,-3.18,-3.18,-3.18,-3.18,-3.18,-3.18,-3.18,-3.18,-3.18,-3.18,-3.18,-3.18,-3.18,-3.18,-3.18,-3.18,-3.18,-3.18,-3.18,-3.18,-3.18,-3.18,-3.18,-3.18,-3.18,-3.1818,-3.1929,-3.2001,-3.2001,-3.2126,-3.2179,-3.2179,-3.2179,-3.23,-3.2487,-3.2487,-3.2619,-3.2795,-3.2795,-3.2795,-3.2795,-3.2795,-3.2795,-3.2795,-3.2795,-3.2519,-3.2179,-3.2179,-3.2179,-3.2179,-3.2179,-3.2073,-3.2001,-3.2001,-3.1893,-3.18,-3.18,-3.1612,-3.1284,-3.0836,-3.0318,-2.9693,-2.8722,-2.8369,-2.8082,-2.7672,-2.7615,-2.7659,-2.7701,-2.7701,-2.7701,-2.7701,-2.7701,-2.7701,-2.7701,-2.7701,-2.7701,-2.7701,-2.7701,-2.7701,-2.7701,-2.7701,-2.7701,-2.7701,-2.7701,-2.7701,-2.7701,-2.7701,-2.7701,-2.7701,-2.7701,-2.7701,-2.7701,-2.7659,-2.7522,-2.7338,-2.7509,-2.7415,-2.7178,-2.7432,-2.7526,-2.7548,-2.7925,-2.8275,-2.8605,-2.9506,-3.0196,-3.0765,-3.1662,-3.18,-3.18,-3.18,-3.18,-3.18,-3.18,-3.18,-3.18,-3.18,-3.18,-3.18,-3.18,-3.18,-3.18,-3.18,-3.18,-3.18,-3.18,-3.18,-3.18,-3.18,-3.18,-3.18,-3.18,-3.18,-3.18,-3.18,-3.18,-3.18,-3.18,-3.1837,-3.1819,-3.1838,-3.2197,-3.2335,-3.2369,-3.2668,-3.2795,-3.2795,-3.2795,-3.2811,-3.2827,-3.2827,-3.2842,-3.2874,-3.2874,-3.2874,-3.2874,-3.2874,-3.2874,-3.2874,-3.2874,-3.2874,-3.2858,-3.2811,-3.2795,-3.2795,-3.2763,-3.2554,-3.2301,-3.2266,-3.1985,-3.1714,-3.1714,-3.1199,-3.0698,-3.0664,-2.957,-2.861,-2.854,-2.8028,-2.7617,-2.7617,-2.7674,-2.7701,-2.7701,-2.7701,-2.7701,-2.7701,-2.7701,-2.7701,-2.7701,-2.7701,-2.7701,-2.7701,-2.7701,-2.7701,-2.7701,-2.7701,-2.7701,-2.7701,-2.7701,-2.7701,-2.7701,-2.7701,-2.7701,-2.7701,-2.7701,-2.7701,-2.7701,-2.7701,-2.7701,-2.7701,-2.7701,-2.7657,-2.7617,-2.7617,-2.7572,-2.7496,-2.7421,-2.7824,-2.8414,-2.8418,-2.9299,-3.0559,-3.1765,-3.18,-3.18,-3.18,-3.18,-3.18,-3.18,-3.18,-3.18,-3.18,-3.18,-3.18,-3.18,-3.18,-3.18,-3.18,-3.18,-3.18,-3.18,-3.18,-3.18,-3.18,-3.18,-3.18,-3.18,-3.18,-3.18,-3.18,-3.18,-3.18,-3.1818,-3.2055,-3.2179,-3.2214,-3.2519,-3.2666,-3.27,-3.2763,-3.2795,-3.2795,-3.2795,-3.2952,-3.3184,-3.3184,-3.3332,-3.3564,-3.3564,-3.3564,-3.3564,-3.3564,-3.3564,-3.3564,-3.3564,-3.3564,-3.3447,-3.2952,-3.2795,-3.2731,-3.2487,-3.2352,-3.2231,-3.1966,-3.1441,-3.0973,-3.1026,-3.0456,-2.9729,-2.9223,-2.8921,-2.8567,-2.7956,-2.7752,-2.7672,-2.7672,-2.7686,-2.7701,-2.7701,-2.7701,-2.7701,-2.7701,-2.7701,-2.7701,-2.7701,-2.7701,-2.7701,-2.7701,-2.7701,-2.7701,-2.7701,-2.7701,-2.7701,-2.7701,-2.7701,-2.7701,-2.7701,-2.7701,-2.7701,-2.7701,-2.7701,-2.7701,-2.7701,-2.7701,-2.7701,-2.7701,-2.7701,-2.7686,-2.7672,-2.7672,-2.7644,-2.7572,-2.7496,-2.754,-2.7722,-2.8228,-2.8627,-2.911,-3.18,-3.18,-3.18,-3.18,-3.18,-3.18,-3.18,-3.18,-3.18,-3.18,-3.18,-3.18,-3.18,-3.18,-3.18,-3.18,-3.18,-3.18,-3.18,-3.18,-3.18,-3.18,-3.18,-3.18,-3.18,-3.18,-3.1874,-3.202,-3.202,-3.2109,-3.2249,-3.2126,-3.2231,-3.2554,-3.2715,-3.2892,-3.3047,-3.3181,-3.3258,-3.3258,-3.3258,-3.3361,-3.3522,-3.3522,-3.3652,-3.3807,-3.3807,-3.3807,-3.3807,-3.3807,-3.3807,-3.3807,-3.3807,-3.3807,-3.3734,-3.3361,-3.3154,-3.3032,-3.3001,-3.2765,-3.2382,-3.1725,-3.1185,-3.0716,-3.0404,-2.9761,-2.9133,-2.8763,-2.8475,-2.8152,-2.7732,-2.7672,-2.7701,-2.7701,-2.7701,-2.7701,-2.7701,-2.7701,-2.7701,-2.7701,-2.7701,-2.7701,-2.7701,-2.7701,-2.7701,-2.7701,-2.7701,-2.7701,-2.7701,-2.7701,-2.7701,-2.7701,-2.7701,-2.7701,-2.7701,-2.7701,-2.7701,-2.7701,-2.7701,-2.7701,-2.7701,-2.7701,-2.7701,-2.7701,-2.7701,-2.7701,-2.7701,-2.7701,-2.7672,-2.7644,-2.7554,-2.7496,-2.7488,-2.781,-2.8142,-2.8523,-3.18,-3.18,-3.18,-3.18,-3.18,-3.18,-3.18,-3.18,-3.18,-3.18,-3.18,-3.18,-3.18,-3.18,-3.18,-3.18,-3.18,-3.18,-3.18,-3.18,-3.18,-3.18,-3.18,-3.18,-3.18,-3.1838,-3.2002,-3.2301,-3.2301,-3.247,-3.2779,-3.2231,-3.2283,-3.2874,-3.2921,-3.3108,-3.3394,-3.368,-3.3807,-3.3807,-3.3807,-3.3807,-3.3807,-3.3807,-3.3807,-3.3807,-3.3807,-3.3807,-3.3807,-3.3807,-3.3807,-3.3807,-3.3807,-3.3807,-3.3807,-3.3807,-3.3492,-3.3216,-3.363,-3.3212,-3.2422,-3.142,-3.0929,-3.0519,-2.9906,-2.9234,-2.8737,-2.8752,-2.822,-2.7757,-2.7757,-2.7745,-2.7701,-2.7701,-2.7701,-2.7701,-2.7701,-2.7728,-2.776,-2.7698,-2.7745,-2.7742,-2.7698,-2.7701,-2.7716,-2.7745,-2.7716,-2.7716,-2.7745,-2.7716,-2.7701,-2.7701,-2.7701,-2.7701,-2.7701,-2.7701,-2.7701,-2.7701,-2.7701,-2.7701,-2.7701,-2.7701,-2.7701,-2.7701,-2.7701,-2.7701,-2.7701,-2.7701,-2.7701,-2.7672,-2.7615,-2.7557,-2.7496,-2.7483,-2.7853,-2.8344,-3.18,-3.18,-3.18,-3.18,-3.18,-3.18,-3.18,-3.18,-3.18,-3.18,-3.18,-3.18,-3.18,-3.18,-3.18,-3.18,-3.18,-3.18,-3.18,-3.18,-3.18,-3.18,-3.18,-3.18,-3.18,-3.2073,-3.2249,-3.2301,-3.2301,-3.247,-3.2795,-3.2682,-3.2842,-3.3229,-3.3522,-3.3662,-3.3721,-3.3793,-3.3807,-3.3807,-3.3807,-3.3807,-3.3807,-3.3807,-3.3807,-3.3807,-3.3807,-3.3807,-3.3807,-3.3807,-3.3807,-3.3807,-3.3807,-3.3807,-3.3807,-3.3807,-3.3118,-3.2522,-3.3265,-3.2719,-3.1736,-3.085,-3.0118,-2.964,-2.9625,-2.9022,-2.8488,-2.8517,-2.8286,-2.8034,-2.8034,-2.784,-2.7701,-2.7701,-2.7701,-2.7701,-2.7701,-2.7897,-2.7936,-2.7745,-2.7897,-2.7954,-2.773,-2.7701,-2.776,-2.794,-2.7806,-2.776,-2.794,-2.7792,-2.7701,-2.7701,-2.7701,-2.7701,-2.7701,-2.7701,-2.7701,-2.7701,-2.7701,-2.7701,-2.7701,-2.7701,-2.7701,-2.7701,-2.7701,-2.7701,-2.7701,-2.7701,-2.7674,-2.76,-2.7602,-2.7557,-2.7526,-2.7728,-2.7885,-2.8108,-3.18,-3.18,-3.18,-3.18,-3.18,-3.18,-3.18,-3.18,-3.18,-3.18,-3.18,-3.18,-3.18,-3.18,-3.18,-3.18,-3.18,-3.18,-3.18,-3.18,-3.18,-3.18,-3.18,-3.18,-3.18,-3.2487,-3.2749,-3.2569,-3.2749,-3.3016,-3.3332,-3.2968,-3.3078,-3.3583,-3.3536,-3.3638,-3.3807,-3.3807,-3.3807,-3.3807,-3.3807,-3.3807,-3.3807,-3.3807,-3.3807,-3.3807,-3.3807,-3.3807,-3.3807,-3.3807,-3.3807,-3.3807,-3.3807,-3.3815,-3.3768,-3.3327,-3.2863,-3.2428,-3.222,-3.1828,-3.1284,-3.0477,-2.9909,-2.9458,-2.9096,-2.8711,-2.8466,-2.8485,-2.8402,-2.8324,-2.8324,-2.8219,-2.8125,-2.8125,-2.8125,-2.8125,-2.8125,-2.8232,-2.8272,-2.8156,-2.8246,-2.8206,-2.794,-2.8075,-2.8156,-2.8097,-2.8183,-2.8237,-2.8219,-2.8051,-2.7996,-2.8055,-2.7815,-2.7771,-2.7911,-2.7926,-2.7926,-2.7926,-2.8061,-2.7978,-2.7716,-2.7992,-2.8047,-2.7926,-2.8075,-2.8125,-2.8125,-2.8125,-2.8116,-2.8075,-2.8075,-2.8034,-2.7996,-2.8116,-2.8156,-2.8179,-3.18,-3.18,-3.18,-3.18,-3.18,-3.18,-3.18,-3.18,-3.18,-3.18,-3.18,-3.18,-3.18,-3.18,-3.18,-3.18,-3.18,-3.18,-3.18,-3.1874,-3.1874,-3.18,-3.1874,-3.1911,-3.1911,-3.2829,-3.3169,-3.2905,-3.3169,-3.3465,-3.3793,-3.3181,-3.3243,-3.3793,-3.3522,-3.355,-3.3807,-3.3807,-3.3807,-3.3807,-3.3807,-3.3807,-3.3807,-3.3807,-3.3807,-3.3807,-3.3807,-3.3807,-3.3807,-3.3807,-3.382,-3.3797,-3.3613,-3.3579,-3.3497,-3.2674,-3.2318,-3.2017,-3.1174,-3.1003,-3.0876,-3.0118,-2.9759,-2.9465,-2.8852,-2.8706,-2.8706,-2.8706,-2.867,-2.8621,-2.8621,-2.8554,-2.8504,-2.8504,-2.8504,-2.8504,-2.8504,-2.8566,-2.8591,-2.8529,-2.8578,-2.8516,-2.8259,-2.8428,-2.8496,-2.8334,-2.8484,-2.8534,-2.8412,-2.8242,-2.8179,-2.8237,-2.7943,-2.7897,-2.8102,-2.8034,-2.8034,-2.8102,-2.8246,-2.8102,-2.773,-2.8192,-2.8298,-2.8098,-2.8324,-2.8415,-2.8415,-2.8415,-2.8415,-2.8415,-2.8491,-2.8478,-2.8428,-2.8509,-2.8509,-2.8471,-3.18,-3.18,-3.18,-3.18,-3.18,-3.18,-3.18,-3.18,-3.18,-3.18,-3.18,-3.18,-3.18,-3.18,-3.18,-3.18,-3.18,-3.18,-3.18,-3.2091,-3.2126,-3.1818,-3.2091,-3.2266,-3.2266,-3.2939,-3.3291,-3.3258,-3.3291,-3.3465,-3.3775,-3.3437,-3.3451,-3.3807,-3.3762,-3.378,-3.3807,-3.3807,-3.3807,-3.3807,-3.3807,-3.3807,-3.3807,-3.3807,-3.3807,-3.3807,-3.3807,-3.3807,-3.3807,-3.3807,-3.3829,-3.3753,-3.3016,-3.2828,-3.2711,-3.1918,-3.1207,-3.062,-3.0485,-3.0546,-3.0439,-2.9569,-2.9386,-2.94,-2.9355,-2.9336,-2.9336,-2.9336,-2.9145,-2.895,-2.895,-2.8713,-2.8504,-2.8504,-2.8504,-2.8504,-2.8504,-2.8761,-2.8862,-2.8621,-2.8814,-2.8883,-2.8688,-2.8504,-2.8471,-2.8657,-2.8414,-2.8282,-2.8393,-2.815,-2.7922,-2.776,-2.7968,-2.8088,-2.8102,-2.784,-2.7855,-2.8102,-2.7869,-2.7728,-2.7716,-2.7992,-2.8129,-2.8102,-2.8129,-2.8143,-2.8143,-2.8143,-2.8143,-2.8152,-2.8397,-2.8504,-2.8529,-2.8838,-2.8938,-2.8991,-3.2144,-3.2283,-3.2419,-3.2419,-3.2419,-3.2419,-3.2419,-3.2419,-3.2419,-3.2419,-3.2419,-3.2419,-3.2419,-3.2419,-3.2419,-3.2419,-3.2419,-3.2419,-3.2419,-3.2536,-3.2553,-3.2419,-3.2732,-3.2829,-3.2619,-3.3273,-3.3508,-3.3306,-3.3508,-3.368,-3.3807,-3.3666,-3.368,-3.3807,-3.3807,-3.3807,-3.3807,-3.3807,-3.3807,-3.3807,-3.3807,-3.3807,-3.3807,-3.3807,-3.3807,-3.3807,-3.3807,-3.3834,-3.3781,-3.3285,-3.3158,-3.3074,-3.2269,-3.2059,-3.1982,-3.1202,-3.0439,-2.98,-2.9797,-2.9829,-2.9787,-2.9439,-2.9386,-2.9396,-2.9396,-2.9396,-2.9396,-2.9396,-2.9315,-2.9251,-2.9251,-2.9138,-2.9064,-2.9064,-2.9068,-2.906,-2.906,-2.9198,-2.927,-2.9158,-2.9251,-2.9158,-2.8802,-2.8986,-2.9068,-2.8844,-2.9004,-2.909,-2.9012,-2.8868,-2.8651,-2.8277,-2.8527,-2.8565,-2.835,-2.8088,-2.8088,-2.835,-2.8464,-2.8308,-2.7982,-2.8609,-2.8815,-2.867,-2.8838,-2.8909,-2.8909,-2.8909,-2.8909,-2.892,-2.903,-2.9064,-2.9075,-2.92,-2.9251,-2.9272,-3.2486,-3.2651,-3.2795,-3.2795,-3.2795,-3.2795,-3.2795,-3.2795,-3.2795,-3.2795,-3.2795,-3.2795,-3.2795,-3.2795,-3.2795,-3.2795,-3.2795,-3.2795,-3.2795,-3.289,-3.2905,-3.2795,-3.3124,-3.3184,-3.2952,-3.3508,-3.3694,-3.3451,-3.3694,-3.3807,-3.3807,-3.3807,-3.3807,-3.3807,-3.3807,-3.3807,-3.3807,-3.3807,-3.3807,-3.3807,-3.3807,-3.3807,-3.3788,-3.3815,-3.3815,-3.3829,-3.3873,-3.3716,-3.346,-3.2926,-3.2607,-3.2305,-3.151,-3.1131,-3.0884,-3.0371,-2.9824,-2.9396,-2.9396,-2.9396,-2.9396,-2.9396,-2.9396,-2.9396,-2.9396,-2.9396,-2.9396,-2.9396,-2.9396,-2.9396,-2.9396,-2.9388,-2.9399,-2.9399,-2.9421,-2.9433,-2.9433,-2.9472,-2.9502,-2.9531,-2.954,-2.9404,-2.9115,-2.9353,-2.9412,-2.9075,-2.9353,-2.9424,-2.9251,-2.9246,-2.9052,-2.864,-2.882,-2.8855,-2.87,-2.8389,-2.8363,-2.8658,-2.8773,-2.8627,-2.8246,-2.8943,-2.9178,-2.9003,-2.9189,-2.9272,-2.9272,-2.9272,-2.9272,-2.9283,-2.9376,-2.9396,-2.9396,-2.9396,-2.9396,-2.9396,-3.2795,-3.2795,-3.2811,-3.2811,-3.2811,-3.2811,-3.2811,-3.2811,-3.2811,-3.2811,-3.2811,-3.2811,-3.2811,-3.2811,-3.2811,-3.2811,-3.2811,-3.2811,-3.2811,-3.3124,-3.3154,-3.2811,-3.3124,-3.3306,-3.3306,-3.3638,-3.3807,-3.3807,-3.3807,-3.3807,-3.3807,-3.3807,-3.3807,-3.3807,-3.3807,-3.3807,-3.3807,-3.3807,-3.3807,-3.3807,-3.3807,-3.3807,-3.382,-3.3868,-3.3895,-3.3908,-3.3972,-3.3481,-3.2798,-3.2798,-3.231,-3.1543,-3.0746,-2.9993,-2.9396,-2.9396,-2.9396,-2.9396,-2.9396,-2.9396,-2.9396,-2.9396,-2.9396,-2.9396,-2.9396,-2.9396,-2.9396,-2.9396,-2.9407,-2.9407,-2.9407,-2.9401,-2.9402,-2.9402,-2.9463,-2.9502,-2.9502,-2.9502,-2.9531,-2.9598,-2.9598,-2.9626,-2.9701,-2.9521,-2.9402,-2.9402,-2.922,-2.9042,-2.89,-2.9031,-2.8986,-2.8724,-2.876,-2.8906,-2.9097,-2.87,-2.867,-2.8991,-2.8658,-2.8498,-2.8516,-2.885,-2.9003,-2.9003,-2.9003,-2.9003,-2.9003,-2.9003,-2.9003,-2.9026,-2.9294,-2.9396,-2.9396,-2.9396,-2.9396,-2.9396,-3.3199,-3.3332,-3.3508,-3.3508,-3.3508,-3.3508,-3.3508,-3.3508,-3.3508,-3.3508,-3.3508,-3.3508,-3.3508,-3.3508,-3.3508,-3.3508,-3.3508,-3.3508,-3.3508,-3.3611,-3.3611,-3.3508,-3.3611,-3.3652,-3.3652,-3.3748,-3.3807,-3.3807,-3.3807,-3.3807,-3.3807,-3.3807,-3.3807,-3.3807,-3.3807,-3.3807,-3.3788,-3.3842,-3.3868,-3.3868,-3.3921,-3.3934,-3.3947,-3.3959,-3.3972,-3.3899,-3.3339,-3.3025,-3.2704,-3.1564,-3.1073,-3.0776,-2.9988,-2.9572,-2.9396,-2.9396,-2.9396,-2.9396,-2.9396,-2.9396,-2.9396,-2.9396,-2.9396,-2.9396,-2.9396,-2.9396,-2.9396,-2.9396,-2.9409,-2.9401,-2.9401,-2.9433,-2.9472,-2.9472,-2.9531,-2.956,-2.956,-2.9617,-2.9645,-2.9683,-2.9664,-2.9626,-2.9511,-2.956,-2.955,-2.9412,-2.9472,-2.9502,-2.9472,-2.9453,-2.9423,-2.9332,-2.9312,-2.9293,-2.9312,-2.8772,-2.8664,-2.9,-2.8897,-2.885,-2.885,-2.9156,-2.9283,-2.9283,-2.9283,-2.9283,-2.9283,-2.9283,-2.9283,-2.9294,-2.9376,-2.9396,-2.9396,-2.9396,-2.9396,-2.9396,-3.3536,-3.3666,-3.3807,-3.3807,-3.3807,-3.3807,-3.3807,-3.3807,-3.3807,-3.3807,-3.3807,-3.3807,-3.3807,-3.3807,-3.3678,-3.3348,-3.3036,-3.2981,-3.3311,-3.333,-3.3476,-3.3788,-3.3807,-3.3807,-3.3807,-3.3807,-3.3807,-3.3807,-3.3807,-3.3807,-3.3807,-3.3807,-3.3807,-3.3807,-3.3807,-3.3807,-3.3788,-3.3868,-3.3959,-3.4024,-3.4087,-3.4184,-3.423,-3.3925,-3.3806,-3.3694,-3.2896,-3.2359,-3.1916,-3.0948,-3.0405,-3.0028,-2.9545,-2.9396,-2.9396,-2.9396,-2.9396,-2.9396,-2.9396,-2.9399,-2.9409,-2.9409,-2.9399,-2.9396,-2.9396,-2.9396,-2.9396,-2.9396,-2.9401,-2.9402,-2.9402,-2.9491,-2.954,-2.954,-2.9598,-2.9636,-2.9636,-2.9664,-2.9701,-2.9701,-2.9701,-2.9645,-2.9531,-2.9626,-2.9645,-2.9531,-2.9636,-2.9701,-2.9701,-2.9655,-2.9636,-2.9636,-2.9569,-2.9521,-2.9481,-2.9071,-2.8971,-2.9163,-2.9167,-2.9156,-2.9167,-2.9326,-2.9396,-2.9396,-2.9396,-2.9396,-2.9396,-2.9396,-2.9396,-2.9396,-2.9396,-2.9396,-2.9396,-2.9396,-2.9396,-2.9396,-3.3807,-3.3807,-3.3807,-3.3807,-3.3807,-3.3807,-3.3807,-3.3807,-3.3807,-3.3807,-3.3807,-3.3807,-3.3807,-3.3733,-3.3403,-3.2656,-3.1861,-3.1715,-3.2436,-3.2491,-3.2816,-3.355,-3.3613,-3.3663,-3.3737,-3.3784,-3.3807,-3.3807,-3.3807,-3.3802,-3.3847,-3.3847,-3.3842,-3.3868,-3.3868,-3.3868,-3.3881,-3.3959,-3.4087,-3.4246,-3.4334,-3.4451,-3.4515,-3.379,-3.3459,-3.3299,-3.2475,-3.1609,-3.0819,-3.0744,-3.0149,-2.944,-2.944,-2.944,-2.944,-2.944,-2.944,-2.944,-2.9419,-2.9431,-2.9414,-2.9412,-2.9401,-2.9417,-2.9417,-2.9388,-2.9407,-2.9417,-2.9411,-2.9423,-2.9423,-2.9521,-2.9607,-2.9607,-2.9655,-2.9701,-2.9701,-2.9701,-2.9701,-2.9701,-2.9701,-2.9701,-2.9701,-2.9701,-2.9701,-2.9701,-2.9701,-2.9701,-2.9701,-2.9701,-2.9701,-2.9701,-2.9626,-2.9598,-2.9588,-2.9453,-2.9401,-2.9407,-2.9407,-2.9396,-2.9396,-2.9396,-2.9396,-2.9396,-2.9396,-2.9396,-2.9396,-2.9396,-2.9396,-2.9396,-2.9396,-2.9417,-2.9409,-2.9409,-2.9419,-2.944,-3.3807,-3.3807,-3.3807,-3.3807,-3.3807,-3.3807,-3.3807,-3.3807,-3.3807,-3.3807,-3.3807,-3.3807,-3.3807,-3.3238,-3.2784,-3.2619,-3.1861,-3.147,-3.1654,-3.1659,-3.1745,-3.1911,-3.2065,-3.2457,-3.3148,-3.3594,-3.3807,-3.3807,-3.3807,-3.3908,-3.4111,-3.4111,-3.4203,-3.4353,-3.4398,-3.442,-3.4431,-3.4559,-3.4622,-3.4674,-3.4743,-3.4405,-3.3828,-3.3649,-3.3157,-3.2456,-3.1641,-3.1226,-3.0935,-3.0301,-2.9962,-2.9786,-2.9786,-2.9786,-2.9786,-2.9786,-2.9786,-2.9779,-2.9663,-2.9636,-2.9617,-2.9512,-2.9472,-2.9481,-2.9481,-2.9441,-2.9402,-2.9471,-2.9521,-2.9569,-2.9569,-2.9626,-2.9683,-2.9683,-2.9701,-2.9701,-2.9701,-2.9701,-2.9701,-2.9701,-2.9701,-2.9701,-2.9701,-2.9701,-2.9701,-2.9701,-2.9701,-2.9701,-2.9701,-2.9701,-2.9701,-2.9701,-2.9626,-2.956,-2.9512,-2.9443,-2.9402,-2.9392,-2.9399,-2.9396,-2.9396,-2.9396,-2.9396,-2.9396,-2.9396,-2.9396,-2.9396,-2.9396,-2.9396,-2.9396,-2.9396,-2.9461,-2.9561,-2.9561,-2.9663,-2.9786,-3.3807,-3.3807,-3.3807,-3.3807,-3.3807,-3.3807,-3.3807,-3.3807,-3.3807,-3.3807,-3.3807,-3.3673,-3.3314,-3.2865,-3.2289,-3.1518,-3.0748,-3.0507,-3.0993,-3.1011,-3.1228,-3.1704,-3.1843,-3.2102,-3.2561,-3.284,-3.3373,-3.4136,-3.4172,-3.4255,-3.4383,-3.4416,-3.4494,-3.4612,-3.4632,-3.4653,-3.4653,-3.4763,-3.487,-3.4897,-3.4552,-3.4222,-3.3791,-3.3001,-3.2409,-3.1894,-3.108,-3.0704,-3.0559,-3.0051,-2.9902,-2.9902,-2.9902,-2.991,-2.9899,-2.9899,-2.9899,-2.9891,-2.9842,-2.9834,-2.9801,-2.9681,-2.9635,-2.9626,-2.9522,-2.9472,-2.9463,-2.9492,-2.955,-2.9598,-2.9598,-2.9645,-2.9701,-2.9701,-2.9701,-2.9701,-2.9701,-2.9701,-2.9701,-2.9701,-2.9701,-2.9701,-2.9701,-2.9701,-2.9701,-2.9701,-2.9701,-2.9701,-2.9701,-2.9701,-2.9701,-2.9701,-2.9673,-2.9617,-2.955,-2.9472,-2.9433,-2.9402,-2.9399,-2.9396,-2.9396,-2.9396,-2.9396,-2.9396,-2.9396,-2.9396,-2.9396,-2.9396,-2.9396,-2.9407,-2.9471,-2.9532,-2.9617,-2.9716,-2.9811,-2.9902,-3.3807,-3.3807,-3.3807,-3.3807,-3.3807,-3.3807,-3.3807,-3.3807,-3.3788,-3.382,-3.386,-3.3574,-3.2803,-3.244,-3.1673,-3.0189,-2.9536,-2.9567,-3.0385,-3.0451,-3.0823,-3.1638,-3.1723,-3.1817,-3.1968,-3.1996,-3.2704,-3.4097,-3.4139,-3.4199,-3.424,-3.4441,-3.4556,-3.4595,-3.4756,-3.4737,-3.4604,-3.468,-3.4713,-3.4658,-3.3991,-3.3743,-3.3628,-3.2237,-3.1621,-3.1385,-3.0654,-3.0299,-3.0129,-3.0026,-2.9981,-2.9981,-2.9981,-2.9985,-2.9988,-2.9988,-2.9996,-3.0003,-3.0007,-3.0026,-2.9988,-2.9828,-2.9786,-2.9734,-2.957,-2.9531,-2.9512,-2.9522,-2.9569,-2.9617,-2.9617,-2.9655,-2.9701,-2.9701,-2.9701,-2.9701,-2.9701,-2.9701,-2.9701,-2.9701,-2.9701,-2.9701,-2.9701,-2.9701,-2.9701,-2.9701,-2.9701,-2.9701,-2.9701,-2.9701,-2.9701,-2.9701,-2.9692,-2.9664,-2.9598,-2.954,-2.9492,-2.9454,-2.9461,-2.9429,-2.9396,-2.9396,-2.9396,-2.9396,-2.9396,-2.9399,-2.944,-2.944,-2.946,-2.9491,-2.9617,-2.9681,-2.9706,-2.9918,-2.9981,-2.9981,-3.3807,-3.3807,-3.3807,-3.3807,-3.3807,-3.3807,-3.3807,-3.3807,-3.3815,-3.3868,-3.4036,-3.3796,-3.289,-3.1637,-3.049,-2.9593,-2.9579,-2.9681,-2.9802,-2.9821,-2.9877,-3.0017,-3.0197,-3.0638,-3.138,-3.1569,-3.1922,-3.2419,-3.2429,-3.2572,-3.2798,-3.351,-3.3965,-3.4202,-3.4979,-3.4898,-3.4196,-3.4251,-3.3857,-3.3179,-3.307,-3.2622,-3.2006,-3.1795,-3.1231,-3.0558,-3.0442,-3.0373,-3.0355,-3.0343,-3.0336,-3.0336,-3.0336,-3.0336,-3.0327,-3.0327,-3.0369,-3.0371,-3.014,-3.0094,-3.0034,-2.9773,-2.9719,-2.971,-2.9673,-2.9626,-2.9607,-2.9655,-2.9673,-2.9692,-2.9692,-2.9683,-2.9701,-2.9701,-2.9701,-2.9701,-2.9701,-2.9701,-2.9701,-2.9701,-2.9701,-2.9701,-2.9701,-2.9701,-2.9701,-2.9701,-2.9701,-2.9701,-2.9701,-2.9701,-2.9701,-2.9701,-2.9636,-2.9607,-2.9598,-2.954,-2.9561,-2.9652,-2.9652,-2.958,-2.9396,-2.9396,-2.9396,-2.9396,-2.9396,-2.9461,-2.957,-2.957,-2.9672,-2.9828,-2.9853,-2.9931,-3.0066,-3.0267,-3.0336,-3.0336,-3.4105,-3.4165,-3.4255,-3.4255,-3.4255,-3.4255,-3.4255,-3.4291,-3.4307,-3.4348,-3.3971,-3.3406,-3.2612,-3.1129,-3.0048,-2.9608,-2.967,-2.979,-2.9861,-2.9869,-2.9924,-3.0073,-3.0181,-3.0406,-3.0789,-3.0887,-3.1001,-3.1157,-3.2084,-3.2611,-3.2725,-3.3092,-3.3314,-3.3441,-3.3839,-3.3788,-3.3429,-3.3462,-3.3256,-3.2852,-3.241,-3.2025,-3.166,-3.1154,-3.0731,-3.0404,-3.0408,-3.0425,-3.0461,-3.0461,-3.0461,-3.0461,-3.0461,-3.0458,-3.046,-3.046,-3.0471,-3.0485,-3.0394,-3.0354,-3.0267,-2.9988,-2.9918,-2.9894,-2.9823,-2.9719,-2.9655,-2.9683,-2.9701,-2.9701,-2.9701,-2.9701,-2.9701,-2.9701,-2.9701,-2.9701,-2.9701,-2.9701,-2.9701,-2.9701,-2.9701,-2.9701,-2.9701,-2.9701,-2.9701,-2.9701,-2.9701,-2.9729,-2.9816,-2.9798,-2.9849,-2.991,-2.9894,-2.9886,-2.9886,-2.9799,-2.9815,-2.9869,-2.9872,-2.9826,-2.9734,-2.9698,-2.9681,-2.9681,-2.9681,-2.9698,-2.9777,-2.9777,-2.9828,-2.991,-2.9977,-3.0121,-3.0286,-3.0361,-3.0404,-3.0404]},{"header":{"parameterUnit":"m.s-1","parameterCategory":1,"la1":30.6,"la2":28.766,"lo1":-90.7593,"lo2":-88.6598,"dy":0.0162,"dx":0.0183,"nx":116,"ny":114,"refTime":"2023-09-04T12:00:00:Z","depth":0,"parameterNumber":3,"parameterNumberName":"V-component_of_WINDS"},"data":[0.0,0.0,0.0,0.0,0.0,0.0,0.0,0.0,0.0,0.0,0.0,0.0,0.0,0.0,0.0,0.0,0.0,0.0,0.0,0.0,0.0,0.0,0.0,0.0,0.0,0.0,0.0,0.0,0.0,0.0,0.0,0.0,0.0,0.0,0.0,0.0,0.0,0.0,0.0,0.0,0.0,0.0,0.0,0.0,0.0,0.0,0.0,0.0,0.0,0.0,0.0,0.0,0.0,0.0,0.0,0.0,0.0,0.0,0.0,0.0,0.0,0.0,0.0,0.0,0.0,0.0,0.0,0.0,0.0,0.0,0.0,0.0,0.0,0.0,0.0,0.0,0.0,0.0,0.0,0.0,0.0,0.0,0.0,0.0,0.0,0.0,0.0,0.0,0.0,0.0,0.0,0.0,0.0,0.0,0.0,0.0,0.0,0.0,0.0,0.0,0.0,0.0,0.0,0.0,0.0,0.0,0.0,0.0,0.0,0.0,0.0,0.0,0.0,0.0,0.0,0.0,0.0,0.0,0.0,0.0,0.0,0.0,0.0,0.0,0.0,0.0,0.0,0.0,0.0,0.0,0.0,0.0,0.0,0.0,0.0,0.0,0.0,0.0,0.0,0.0,0.0,0.0,0.0,0.0,0.0,0.0,0.0,0.0,0.0,0.0,0.0,0.0,0.0,0.0,0.0,0.0,0.0,0.0,0.0,0.0,0.0,0.0,0.0,0.0,0.0,0.0,0.0,0.0,0.0,0.0,0.0,0.0,0.0,0.0,0.0,0.0,0.0,0.0,0.0,0.0,0.0,0.0,0.0,0.0,0.0,0.0,0.0,0.0,0.0,0.0,0.0,0.0,0.0,0.0,0.0,0.0,0.0,0.0,0.0,0.0,0.0,0.0,0.0,0.0,0.0,0.0,0.0,0.0,0.0,0.0,0.0,0.0,0.0,0.0,0.0,0.0,0.0,0.0,0.0,0.0,0.0,0.0,0.0,0.0,0.0,0.0,0.0,0.0,0.0,0.0,0.0,0.0,0.0,0.0,0.0,0.0,0.0,0.0,0.0,0.0,0.0,0.0,0.0,0.0,0.0,0.0,0.0,0.0,0.0,0.0,0.0,0.0,0.0,0.0,0.0,0.0,0.0,0.0,0.0,0.0,0.0,0.0,0.0,0.0,0.0,0.0,0.0,0.0,0.0,0.0,0.0,0.0,0.0,0.0,0.0,0.0,0.0,0.0,0.0,0.0,0.0,0.0,0.0,0.0,0.0,0.0,0.0,0.0,0.0,0.0,0.0,0.0,0.0,0.0,0.0,0.0,0.0,0.0,0.0,0.0,0.0,0.0,0.0,0.0,0.0,0.0,0.0,0.0,0.0,0.0,0.0,0.0,0.0,0.0,0.0,0.0,0.0,0.0,0.0,0.0,0.0,0.0,0.0,0.0,0.0,0.0,0.0,0.0,0.0,0.0,0.0,0.0,0.0,0.0,0.0,0.0,0.0,0.0,0.0,0.0,0.0,0.0,0.0,0.0,0.0,0.0,0.0,0.0,0.0,0.0,0.0,0.0,0.0,0.0,0.0,0.0,0.0,0.0,0.0,0.0,0.0,0.0,0.0,0.0,0.0,0.0,0.0,0.0,0.0,0.0,0.0,0.0,0.0,0.0,0.0,0.0,0.0,0.0,0.0,0.0,0.0,0.0,0.0,0.0,0.0,0.0,0.0,0.0,0.0,0.0,0.0,0.0,0.0,0.0,0.0,0.0,0.0,0.0,0.0,0.0,0.0,0.0,0.0,0.0,0.0,0.0,0.0,0.0,0.0,0.0,0.0,0.0,0.0,0.0,0.0,0.0,0.0,0.0,0.0,0.0,0.0,0.0,0.0,0.0,0.0,0.0,0.0,0.0,0.0,0.0,0.0,0.0,0.0,0.0,0.0,0.0,0.0,0.0,0.0,0.0,0.0,0.0,0.0,0.0,0.0,0.0,0.0,0.0,0.0,0.0,0.0,0.0,0.0,0.0,0.0,0.0,0.0,0.0,0.0,0.0,0.0,0.0,0.0,0.0,0.0,0.0,0.0,0.0,0.0,0.0,0.0,0.0,0.0,0.0,0.0,0.0,0.0,0.0,0.0,0.0,0.0,0.0,0.0,0.0,0.0,0.0,0.0,0.0,0.0,0.0,0.0,0.0,0.0,0.0,0.0,0.0,0.0,0.0,0.0,0.0,0.0,0.0,0.0,0.0,0.0,0.0,0.0,0.0,0.0,0.0,0.0,0.0,0.0,0.0,0.0,0.0,0.0,0.0,0.0,0.0,0.0,0.0,0.0,0.0,0.0,0.0,0.0,0.0,0.0,0.0,0.0,0.0,0.0,0.0,0.0,0.0,0.0,0.0,0.0,0.0,0.0,0.0,0.0,0.0,0.0,0.0,0.0,0.0,0.0,0.0,0.0,0.0,0.0,0.0,0.0,0.0,0.0,0.0,0.0,0.0,0.0,0.0,0.0,0.0,0.0,0.0,0.0,0.0,0.0,0.0,0.0,0.0,0.0,0.0,0.0,0.0,0.0,0.0,0.0,0.0,0.0,0.0,0.0,0.0,0.0,0.0,0.0,0.0,0.0,0.0,0.0,0.0,0.0,0.0,0.0,0.0,0.0,0.0,0.0,0.0,0.0,0.0,0.0,0.0,0.0,0.0,0.0,0.0,0.0,0.0,0.0,0.0,0.0,0.0,0.0,0.0,0.0,0.0,0.0,0.0,0.0,0.0,0.0,0.0,0.0,0.0,0.0,0.0,0.0,0.0,0.0,0.0,0.0,0.0,0.0,0.0,0.0,0.0,0.0,0.0,0.0,0.0,0.0,0.0,0.0,0.0,0.0,0.0,0.0,0.0,0.0,0.0,0.0,0.0,0.0,0.0,0.0,0.0,0.0,0.0,0.0,0.0,0.0,0.0,0.0,0.0,0.0,0.0,0.0,0.0,0.0,0.0,0.0,0.0,0.0,0.0,0.0,0.0,0.0,0.0,0.0,0.0,0.0,0.0,0.0,0.0,0.0,0.0,0.0,0.0,0.0,0.0,0.0,0.0,0.0,0.0,0.0,0.0,0.0,0.0,0.0,0.0,0.0,0.0,0.0,0.0,0.0,0.0,0.0,0.0,0.0,0.0,0.0,0.0,0.0,0.0,0.0,0.0,0.0,0.0,0.0,0.0,0.0,0.0,0.0,0.0,0.0,0.0,0.0,0.0,0.0,0.0,0.0,0.0,0.0,0.0,0.0,0.0,0.0,0.0,0.0,0.0,0.0,0.0,0.0,0.0,0.0,0.0,0.0,0.0,0.0,0.0,0.0,0.0,0.0,0.0,0.0,0.0,0.0,0.0,0.0,0.0,0.0,0.0,0.0,0.0,0.0,0.0,0.0,0.0,0.0,0.0,0.0,0.0,0.0,0.0,0.0,0.0,0.0,0.0,0.0,0.0,0.0,0.0,0.0,0.0,0.0,0.0,0.0,0.0,0.0,0.0,0.0,0.0,0.0,0.0,0.0,0.0,0.0,0.0,0.0,0.0,0.0,0.0,0.0,0.0,0.0,0.0,0.0,0.0,0.0,0.0,0.0,0.0,0.0,0.0,0.0,0.0,0.0,0.0,0.0,0.0,0.0,0.0,0.0,0.0,0.0,0.0,0.0,0.0,0.0,0.0,0.0,0.0,0.0,0.0,0.0,0.0,0.0,0.0,0.0,0.0,0.0,0.0,0.0,0.0,0.0,0.0,0.0,0.0,0.0,0.0,0.0,0.0,0.0,0.0,0.0,0.0,0.0,0.0,0.0,0.0,0.0,0.0,0.0,0.0,0.0,0.0,0.0,0.0,0.0,0.0,0.0,0.0,0.0,0.0,0.0,0.0,0.0,0.0,0.0,0.0,0.0,0.0,0.0,0.0,0.0,0.0,0.0,0.0,0.0,0.0,0.0,0.0,0.0,0.0,0.0,0.0,0.0,0.0,0.0,0.0,0.0,0.0,0.0,0.0,0.0,0.0,0.0,0.0,0.0,0.0,0.0,0.0,0.0,0.0,0.0,0.0,0.0,0.0,0.0,0.0,0.0,0.0,0.0,0.0,0.0,0.0,0.0,0.0,0.0,0.0,0.0,0.0,0.0,0.0,0.0,0.0,0.0,0.0,0.0,0.0,0.0,0.0,0.0,0.0,0.0,0.0,0.0,0.0,0.0,0.0,0.0,0.0,0.0,0.0,0.0,0.0,0.0,0.0,0.0,0.0,0.0,0.0,0.0,0.0,0.0,0.0,0.0,0.0,0.0,0.0,0.0,0.0,0.0,0.0,0.0,0.0,0.0,0.0,0.0,0.0,0.0,0.0,0.0,0.0,0.0,0.0,0.0,0.0,0.0,0.0,0.0,0.0,0.0,0.0,0.0,0.0,0.0,0.0,0.0,0.0,0.0,0.0,0.0,0.0,0.0,0.0,0.0,0.0,0.0,0.0,0.0,0.0,0.0,0.0,0.0,0.0,0.0,0.0,0.0,0.0,0.0,0.0,0.0,0.0,0.0,0.0,0.0,0.0,0.0,0.0,0.0,0.0,0.0,0.0,0.0,0.0,0.0,0.0,0.0,0.0,0.0,0.0,0.0,0.0,0.0,0.0,0.0,0.0,0.0,0.0,0.0,0.0,0.0,0.0,0.0,0.0,0.0,0.0,0.0,0.0,0.0,0.0,0.0,0.0,0.0,0.0,0.0,0.0,0.0,0.0,0.0,0.0,0.0,0.0,0.0,0.0,0.0,0.0,0.0,0.0,0.0,0.0,0.0,0.0,0.0,0.0,0.0,0.0,0.0,0.0,0.0,0.0,0.0,0.0,0.0,0.0,0.0,0.0,0.0,0.0,0.0,0.0,0.0,0.0,0.0,0.0,0.0,0.0,0.0,0.0,0.0,0.0,0.0,0.0,0.0,0.0,0.0,0.0,0.0,0.0,0.0,0.0,0.0,0.0,0.0,0.0,0.0,0.0,0.0,0.0,0.0,0.0,0.0,0.0,0.0,0.0,0.0,0.0,0.0,0.0,0.0,0.0,0.0,0.0,0.0,0.0,0.0,0.0,0.0,0.0,0.0,0.0,0.0,0.0,0.0,0.0,0.0,0.0,0.0,0.0,0.0,0.0,0.0,0.0,0.0,0.0,0.0,0.0,0.0,0.0,0.0,0.0,0.0,0.0,0.0,0.0,0.0,0.0,0.0,0.0,0.0,0.0,0.0,0.0,0.0,0.0,0.0,0.0,0.0,0.0,0.0,0.0,0.0,0.0,0.0,0.0,0.0,0.0,0.0,0.0,0.0,0.0,0.0,0.0,0.0,0.0,0.0,0.0,0.0,0.0,0.0,0.0,0.0,0.0,0.0,0.0,0.0,0.0,0.0,0.0,0.0,0.0,0.0,0.0,0.0,0.0,0.0,0.0,0.0,0.0,0.0,0.0,0.0,0.0,0.0,0.0,0.0,0.0,0.0,0.0,0.0,0.0,0.0,0.0,0.0,0.0,0.0,0.0,0.0,0.0,0.0,0.0,0.0,0.0,0.0,0.0,0.0,0.0,0.0,0.0,0.0,0.0,0.0,0.0,0.0,0.0,0.0,0.0,0.0,0.0,0.0,0.0,0.0,0.0,0.0,0.0,0.0,0.0,0.0,0.0,0.0,0.0,0.0,0.0,0.0,0.0,0.0,0.0,0.0,0.0,0.0,0.0,0.0,0.0,0.0,0.0,0.0,0.0,0.0,0.0,0.0,0.0,0.0,0.0,0.0,0.0,0.0,0.0,0.0,0.0,0.0,0.0,0.0,0.0,0.0,0.0,0.0,0.0,0.0,0.0,0.0,0.0,0.0,0.0,0.0,0.0,0.0,0.0,0.0,0.0,0.0,0.0,0.0,0.0,0.0,0.0,0.0,0.0,0.0,0.0,0.0,0.0,0.0,0.0,0.0,0.0,0.0,0.0,0.0,0.0,0.0,0.0,0.0,0.0,0.0,0.0,0.0,0.0,0.0,0.0,0.0,0.0,0.0,0.0,0.0,0.0,0.0,0.0,0.0,0.0,0.0,0.0,0.0,0.0,0.0,0.0,0.0,0.0,-2.4141,-2.3702,0.0,0.0,0.0,0.0,0.0,0.0,0.0,0.0,0.0,0.0,0.0,0.0,0.0,0.0,0.0,0.0,0.0,0.0,0.0,0.0,0.0,0.0,0.0,0.0,0.0,0.0,0.0,0.0,0.0,0.0,0.0,0.0,0.0,0.0,0.0,0.0,0.0,0.0,-2.4866,-2.5201,-2.579,-2.5497,-2.5444,-2.5615,0.0,0.0,0.0,0.0,0.0,0.0,0.0,0.0,0.0,0.0,0.0,0.0,0.0,0.0,0.0,0.0,0.0,0.0,0.0,0.0,0.0,0.0,0.0,0.0,0.0,0.0,0.0,0.0,0.0,0.0,0.0,0.0,0.0,0.0,0.0,0.0,0.0,0.0,0.0,0.0,0.0,0.0,0.0,0.0,0.0,0.0,0.0,0.0,0.0,0.0,0.0,0.0,0.0,0.0,0.0,0.0,0.0,0.0,0.0,0.0,0.0,0.0,0.0,0.0,0.0,0.0,0.0,0.0,0.0,0.0,-2.519,-2.4608,0.0,0.0,0.0,0.0,0.0,0.0,0.0,0.0,0.0,0.0,0.0,0.0,0.0,0.0,0.0,0.0,0.0,0.0,0.0,0.0,0.0,0.0,0.0,-2.5597,-2.5597,-2.5597,-2.5597,-2.5578,0.0,0.0,0.0,0.0,0.0,0.0,0.0,0.0,0.0,-2.5364,-2.5458,-2.5806,-2.6385,-2.636,-2.6165,-2.5887,-2.5887,0.0,0.0,0.0,0.0,0.0,0.0,0.0,0.0,0.0,0.0,0.0,0.0,0.0,0.0,0.0,0.0,0.0,0.0,0.0,0.0,0.0,0.0,0.0,0.0,0.0,0.0,0.0,0.0,0.0,0.0,0.0,0.0,0.0,0.0,0.0,0.0,0.0,0.0,0.0,0.0,0.0,0.0,0.0,0.0,0.0,0.0,0.0,0.0,0.0,0.0,0.0,0.0,0.0,0.0,0.0,0.0,0.0,0.0,0.0,0.0,0.0,0.0,0.0,-2.7705,-2.7769,-2.7899,-2.7899,-2.7964,-2.8012,-2.6847,-2.6196,-2.5969,-2.5969,0.0,0.0,0.0,0.0,0.0,0.0,0.0,0.0,0.0,0.0,0.0,0.0,0.0,0.0,0.0,0.0,0.0,0.0,0.0,0.0,0.0,-2.5597,-2.5597,-2.5597,-2.5597,-2.5429,-2.5017,0.0,0.0,0.0,0.0,0.0,0.0,-2.4966,-2.558,-2.6066,-2.6539,-2.6861,-2.7074,-2.6935,-2.6916,-2.6992,-2.6992,-2.6992,-2.7007,0.0,0.0,0.0,0.0,0.0,0.0,0.0,0.0,0.0,0.0,0.0,0.0,0.0,0.0,0.0,0.0,0.0,0.0,0.0,0.0,0.0,0.0,0.0,0.0,0.0,0.0,0.0,0.0,0.0,0.0,0.0,0.0,0.0,0.0,0.0,0.0,0.0,0.0,0.0,0.0,0.0,-2.5435,-2.5435,0.0,0.0,0.0,0.0,0.0,0.0,0.0,0.0,0.0,0.0,0.0,0.0,0.0,-2.7031,-2.701,-2.7483,-2.7705,-2.7705,-2.7705,-2.8045,-2.8644,-2.8644,-2.9005,-2.9589,-2.941,0.0,-2.7409,-2.7409,0.0,0.0,0.0,0.0,0.0,0.0,0.0,0.0,0.0,0.0,0.0,0.0,0.0,0.0,0.0,0.0,0.0,0.0,0.0,0.0,0.0,-2.5597,-2.5597,-2.5597,-2.5597,-2.5505,-2.5317,-2.5453,0.0,0.0,0.0,-2.5231,-2.5204,-2.5482,-2.5917,-2.6539,-2.6779,-2.6738,-2.6486,-2.6753,-2.6566,-2.5987,-2.6312,-2.675,-2.7181,-2.6893,0.0,0.0,0.0,0.0,0.0,0.0,0.0,0.0,0.0,0.0,0.0,0.0,0.0,0.0,0.0,0.0,0.0,0.0,0.0,0.0,0.0,0.0,0.0,0.0,0.0,0.0,0.0,0.0,0.0,0.0,0.0,0.0,0.0,0.0,0.0,0.0,0.0,0.0,0.0,-2.6535,-2.6451,-2.6525,-2.6485,-2.6436,0.0,0.0,0.0,0.0,0.0,0.0,0.0,0.0,0.0,-2.6985,-2.7796,-2.8256,-2.8256,-2.916,-2.9619,-2.9619,-2.9945,-3.0295,-3.0603,-3.0603,-3.0765,-3.1073,-3.1073,-3.07,-3.0036,-2.8822,-2.832,-2.832,0.0,0.0,0.0,0.0,-2.894,-2.8892,0.0,0.0,0.0,0.0,0.0,0.0,0.0,0.0,0.0,0.0,0.0,0.0,-2.5597,-2.5597,-2.5597,-2.5597,-2.5486,-2.5436,-2.5479,-2.5529,-2.5466,0.0,0.0,-2.5687,-2.5929,-2.6028,-2.6312,-2.6846,-2.6806,-2.6568,-2.6138,-2.642,-2.6096,-2.5245,-2.5536,-2.6028,-2.6616,-2.6203,-2.5933,-2.5701,0.0,0.0,0.0,0.0,0.0,0.0,0.0,0.0,0.0,0.0,0.0,0.0,0.0,0.0,0.0,0.0,0.0,0.0,0.0,0.0,0.0,0.0,0.0,0.0,0.0,0.0,0.0,0.0,0.0,0.0,0.0,0.0,0.0,0.0,0.0,0.0,0.0,-2.7321,-2.7233,-2.7299,-2.7107,-2.6989,0.0,0.0,0.0,0.0,0.0,0.0,-2.7012,-2.7376,-2.7628,-2.7791,-2.8787,-2.9343,-2.9343,-3.052,-3.1114,-3.1136,-3.183,-3.2257,-3.2423,-3.2521,-3.2707,-3.2974,-3.2974,-3.291,-3.2643,-3.049,-2.9615,-2.9615,-2.9615,-2.9939,-3.0431,-3.0431,-3.0431,-3.0366,0.0,0.0,0.0,0.0,0.0,0.0,0.0,0.0,0.0,0.0,0.0,-2.5597,-2.5597,-2.5597,-2.5597,-2.5597,-2.5188,-2.5026,-2.5207,-2.4857,-2.4713,-2.4835,-2.5436,-2.5799,-2.5818,-2.6442,-2.6829,-2.6977,-2.6873,-2.6779,-2.6727,-2.6206,-2.5921,-2.5839,-2.5273,-2.5063,-2.5119,-2.5203,-2.4922,-2.4408,-2.4321,0.0,0.0,0.0,0.0,0.0,0.0,0.0,0.0,0.0,0.0,0.0,0.0,0.0,0.0,0.0,0.0,0.0,0.0,0.0,0.0,0.0,0.0,0.0,0.0,0.0,0.0,0.0,0.0,0.0,0.0,0.0,0.0,0.0,0.0,0.0,0.0,0.0,0.0,-2.7029,-2.6899,0.0,0.0,0.0,0.0,-2.6806,-2.6806,-2.7041,-2.7623,-2.7679,-2.7982,-2.8621,-2.9131,-2.9388,-2.9388,-3.0535,-3.1123,-3.1198,-3.213,-3.2944,-3.3637,-3.3924,-3.463,-3.5598,-3.5598,-3.5374,-3.4871,-3.2724,-3.185,-3.185,-3.185,-3.1866,-3.1898,-3.1898,-3.1898,-3.1898,0.0,0.0,0.0,0.0,0.0,0.0,0.0,0.0,-2.5256,-2.5391,-2.541,-2.5464,-2.5597,-2.5336,-2.515,-2.515,-2.4997,-2.4813,-2.4625,-2.5253,-2.5538,-2.5405,-2.6078,-2.6457,-2.6457,-2.6689,-2.6806,-2.6873,-2.642,-2.6233,-2.6233,-2.6002,-2.5688,-2.5342,-2.5508,-2.537,-2.4979,-2.4652,-2.4379,-2.4118,-2.3708,-2.3407,0.0,0.0,0.0,0.0,0.0,0.0,0.0,0.0,0.0,0.0,0.0,0.0,0.0,0.0,0.0,0.0,0.0,0.0,0.0,0.0,0.0,0.0,0.0,0.0,0.0,0.0,0.0,0.0,0.0,0.0,0.0,0.0,0.0,0.0,0.0,0.0,0.0,-2.7003,-2.6873,0.0,-2.7345,-2.7389,-2.7563,-2.7997,-2.8026,-2.8128,-2.8332,-2.8332,-2.8581,-2.9117,-2.9697,-3.0177,-3.0615,-3.1794,-3.2415,-3.2421,-3.3503,-3.4091,-3.4231,-3.4689,-3.5237,-3.5794,-3.5794,-3.5841,-3.5849,-3.5088,-3.3955,-3.2659,-3.219,-3.2012,-3.2012,-3.2012,-3.2012,-3.2012,0.0,0.0,0.0,0.0,0.0,0.0,0.0,0.0,-2.5158,-2.5294,-2.5352,-2.5391,-2.5375,-2.5224,-2.5017,-2.4719,-2.4699,-2.4699,-2.4698,-2.5379,-2.585,-2.6059,-2.6546,-2.6806,-2.6806,-2.6806,-2.6806,-2.6806,-2.6394,-2.6206,-2.6206,-2.62,-2.5981,-2.5631,-2.6063,-2.6018,-2.5619,-2.4983,-2.458,-2.435,-2.3708,-2.3424,-2.3395,0.0,0.0,0.0,0.0,0.0,0.0,0.0,0.0,0.0,0.0,0.0,0.0,0.0,0.0,0.0,0.0,0.0,0.0,0.0,0.0,0.0,0.0,0.0,0.0,0.0,0.0,0.0,0.0,0.0,0.0,0.0,0.0,0.0,0.0,-2.6963,-2.6945,-2.7217,-2.7166,-2.7345,-2.7984,-2.8057,-2.8318,-2.8942,-2.9,-2.9189,-2.961,-2.9639,-2.9855,-3.0325,-3.0727,-3.1113,-3.1495,-3.2505,-3.3002,-3.3047,-3.4122,-3.4681,-3.4729,-3.521,-3.5712,-3.6188,-3.6188,-3.6402,-3.6637,-3.644,-3.5482,-3.4159,-3.3528,-3.3288,-3.3264,-3.3164,-3.2953,-3.2721,0.0,0.0,0.0,0.0,0.0,0.0,0.0,-2.4859,-2.5256,-2.5256,-2.5429,-2.5375,-2.4922,-2.5262,-2.5201,-2.4343,-2.4281,-2.46,-2.5388,-2.5125,-2.5483,-2.6747,-2.6806,-2.6806,-2.6806,-2.6806,-2.6806,-2.6806,-2.6779,-2.6794,-2.6823,-2.6789,-2.6793,-2.6849,-2.6854,-2.6889,-2.6849,-2.6219,-2.562,-2.5033,-2.4363,-2.4102,-2.4044,0.0,0.0,0.0,0.0,0.0,0.0,0.0,0.0,0.0,0.0,0.0,0.0,0.0,0.0,0.0,0.0,0.0,0.0,0.0,0.0,0.0,0.0,0.0,0.0,0.0,0.0,0.0,0.0,0.0,0.0,0.0,0.0,0.0,-2.6849,-2.6928,-2.7188,-2.7679,-2.7753,-2.8014,-2.8709,-2.8781,-2.9029,-2.9639,-2.9682,-3.0219,-3.1451,-3.1524,-3.1719,-3.2191,-3.2206,-3.2123,-3.1942,-3.2547,-3.2853,-3.2939,-3.385,-3.4594,-3.5169,-3.5527,-3.6148,-3.6984,-3.6984,-3.7135,-3.7354,-3.6693,-3.6424,-3.639,-3.5955,-3.5778,-3.574,-3.5419,-3.4896,-3.4151,0.0,0.0,0.0,0.0,0.0,0.0,0.0,-2.4036,-2.4323,-2.4224,-2.4292,-2.4395,-2.4451,-2.4287,-2.4042,-2.3809,-2.3803,-2.3947,-2.4315,-2.4964,-2.5771,-2.6747,-2.6806,-2.6806,-2.6806,-2.6806,-2.6806,-2.6806,-2.6367,-2.6596,-2.7422,-2.6497,-2.653,-2.7367,-2.69,-2.6681,-2.6698,-2.6998,-2.7037,-2.6714,-2.4856,-2.4102,-2.4044,0.0,0.0,0.0,0.0,0.0,0.0,0.0,0.0,0.0,0.0,0.0,0.0,0.0,0.0,0.0,0.0,0.0,0.0,0.0,0.0,0.0,0.0,0.0,0.0,0.0,0.0,0.0,0.0,0.0,0.0,0.0,-2.7744,-2.7998,-2.7507,-2.7461,-2.7735,-2.8347,-2.8797,-2.9348,-3.0016,-3.0466,-3.1018,-3.164,-3.1698,-3.178,-3.2,-3.2014,-3.2173,-3.2459,-3.2487,-3.2715,-3.3115,-3.3305,-3.3391,-3.3405,-3.4057,-3.4378,-3.4423,-3.4909,-3.5608,-3.643,-3.643,-3.6784,-3.7401,-3.7182,-3.7119,-3.7022,-3.5894,-3.5435,-3.5435,-3.5335,-3.5336,-3.5243,0.0,0.0,0.0,0.0,0.0,0.0,0.0,-2.3545,-2.3882,-2.3818,-2.3952,-2.4057,-2.4015,-2.3931,-2.3739,-2.3326,-2.3732,-2.4089,-2.4316,-2.5394,-2.627,-2.6777,-2.6568,-2.642,-2.642,-2.6192,-2.6042,-2.6042,-2.5939,-2.6217,-2.6919,-2.6951,-2.7203,-2.7607,-2.7765,-2.7691,-2.7385,-2.7553,-2.7594,-2.7421,-2.5525,-2.4813,-2.4739,-2.3543,-2.3108,-2.3108,-2.3108,-2.3108,-2.3108,-2.3108,0.0,0.0,0.0,0.0,0.0,0.0,0.0,0.0,0.0,0.0,0.0,0.0,0.0,0.0,0.0,0.0,0.0,0.0,0.0,0.0,0.0,0.0,0.0,0.0,-2.8448,-2.8739,-2.8898,-2.8652,-2.8725,-2.9435,-3.0031,-3.0669,-3.1322,-3.1714,-3.2208,-3.2861,-3.284,-3.2858,-3.2986,-3.2949,-3.2939,-3.3038,-3.3004,-3.3154,-3.3466,-3.3466,-3.3466,-3.3466,-3.3799,-3.3991,-3.4119,-3.4658,-3.5187,-3.5672,-3.6148,-3.6445,-3.6708,-3.6937,-3.7013,-3.6965,0.0,0.0,0.0,0.0,-3.5519,-3.5568,0.0,0.0,0.0,0.0,0.0,0.0,0.0,-2.3246,-2.3711,-2.3674,-2.3946,-2.3973,-2.3566,-2.3888,-2.3818,-2.2978,-2.382,-2.4539,-2.4859,-2.6036,-2.6733,-2.6806,-2.6233,-2.5893,-2.5893,-2.5314,-2.502,-2.5087,-2.5559,-2.5885,-2.6047,-2.7635,-2.8095,-2.7647,-2.8746,-2.8903,-2.8239,-2.7773,-2.7602,-2.7485,-2.6288,-2.5809,-2.5616,-2.3842,-2.3158,-2.3108,-2.3108,-2.3108,-2.3108,-2.3108,0.0,0.0,0.0,0.0,0.0,0.0,0.0,0.0,0.0,0.0,0.0,0.0,0.0,0.0,0.0,0.0,0.0,0.0,0.0,0.0,0.0,0.0,0.0,0.0,-2.8985,-2.945,-3.0656,-3.0379,-3.0234,-3.0757,-3.1351,-3.1975,-3.2571,-3.2655,-3.2962,-3.3529,-3.3392,-3.3504,-3.4031,-3.3917,0.0,0.0,0.0,-3.3466,-3.329,-3.329,-3.329,-3.329,-3.329,-3.3542,-3.4016,-3.4491,-3.4743,-3.4843,-3.5816,-3.6022,-3.5752,-3.6211,-3.646,-3.6523,-3.6816,-3.6938,-3.6846,-3.5936,-3.5629,-3.5567,0.0,0.0,0.0,0.0,0.0,0.0,0.0,-2.2822,-2.315,-2.2873,-2.3031,-2.3135,-2.3045,-2.3135,-2.309,-2.2925,-2.3094,-2.3685,-2.4752,-2.556,-2.6239,-2.6791,-2.6233,-2.5893,-2.5893,-2.5314,-2.521,-2.5641,-2.5763,-2.6289,-2.725,-2.6995,-2.7129,-2.7512,-2.7224,-2.7007,-2.6892,-2.7333,-2.7512,-2.7459,-2.6784,-2.5931,-2.5,-2.4162,-2.3509,-2.3108,-2.3108,-2.3108,-2.3108,-2.3108,-2.3108,-2.3108,-2.3108,-2.3108,0.0,0.0,0.0,0.0,0.0,0.0,0.0,0.0,0.0,0.0,0.0,0.0,0.0,0.0,0.0,0.0,0.0,0.0,0.0,-3.0014,-3.064,-3.1235,-3.2034,-3.2483,-3.2585,-3.2193,-3.2701,-3.3169,-3.33,-3.3746,-3.4028,-3.3975,-3.3941,-3.3876,-3.3695,-3.3675,-3.357,-3.3361,-3.3361,-3.3361,-3.329,-3.329,-3.329,-3.329,-3.329,0.0,-3.3437,-3.3542,-3.3839,-3.4274,-3.4476,-3.5023,-3.572,-3.5816,-3.6116,-3.6523,-3.6585,-3.6585,-3.6569,-3.6369,-3.6492,-3.6582,0.0,0.0,0.0,0.0,0.0,0.0,0.0,-2.24,-2.2783,-2.2623,-2.2775,-2.2888,-2.2888,-2.2888,-2.2888,-2.2888,-2.3215,-2.3925,-2.5226,-2.5604,-2.5965,-2.6338,-2.577,-2.5314,-2.5006,-2.4366,-2.4178,-2.4448,-2.5036,-2.5623,-2.6198,-2.6759,-2.6991,-2.7007,-2.7007,-2.6816,-2.6521,-2.685,-2.7007,-2.6981,-2.6699,-2.5916,-2.4796,-2.4217,-2.364,-2.3108,-2.3108,-2.3108,-2.3108,-2.3108,-2.3108,-2.3108,-2.3108,-2.3108,-2.3108,0.0,0.0,0.0,0.0,0.0,0.0,0.0,0.0,0.0,0.0,0.0,0.0,0.0,0.0,-2.5818,-2.7358,0.0,-2.9187,-3.0778,-3.1598,-3.2251,-3.2904,-3.33,-3.3387,-3.3035,-3.3558,-3.3935,-3.3935,-3.4124,-3.4196,-3.4128,-3.3922,-3.3764,-3.3605,-3.3501,-3.3396,-3.329,-3.329,-3.329,-3.329,-3.329,-3.329,-3.329,-3.329,-3.329,-3.3326,-3.3577,-3.3701,-3.3736,-3.4254,-3.4643,-3.4942,-3.5479,-3.6022,-3.6492,-3.6492,-3.6492,-3.6492,-3.6492,-3.6616,-3.6677,0.0,0.0,0.0,0.0,0.0,0.0,0.0,-2.1965,-2.2449,-2.2563,-2.2752,-2.288,-2.2888,-2.2888,-2.2888,-2.2888,-2.3389,-2.4254,-2.5517,-2.5488,-2.5563,-2.5892,-2.5203,-2.4595,-2.4102,-2.3454,-2.3158,-2.3271,-2.4186,-2.4738,-2.4996,-2.6437,-2.6891,-2.6521,-2.7074,-2.7007,-2.6499,-2.6499,-2.6499,-2.6487,-2.6373,-2.5699,-2.4725,-2.4205,-2.364,-2.3108,-2.3108,-2.3108,-2.3108,-2.3108,-2.3108,-2.3108,-2.3108,-2.3108,-2.3108,-2.3108,-2.3108,0.0,0.0,0.0,0.0,0.0,0.0,0.0,0.0,0.0,-2.4962,-2.4958,-2.5254,-2.602,-2.7728,-2.8643,-2.9729,-3.1584,-3.2353,-3.2919,-3.3525,-3.3645,-3.3645,-3.3593,-3.4061,-3.438,-3.4312,-3.4176,-3.4059,-3.3991,-3.373,-3.357,-3.3536,-3.3396,-3.329,-3.329,-3.329,-3.329,-3.329,-3.329,-3.329,-3.329,-3.329,-3.329,-3.3312,-3.377,-3.3701,-3.3347,-3.4322,-3.4509,-3.4172,-3.5252,-3.5943,-3.6352,-3.646,-3.6492,-3.6492,-3.6492,-3.6492,-3.6492,0.0,0.0,0.0,0.0,0.0,0.0,0.0,0.0,-2.1941,-2.2506,-2.2735,-2.2826,-2.2888,-2.2888,-2.2888,-2.2888,-2.2983,-2.3563,-2.4839,-2.4398,-2.4641,-2.5837,-2.4808,-2.4176,-2.4102,-2.3454,-2.3358,-2.3904,-2.4029,-2.4582,-2.5511,-2.5736,-2.6064,-2.6499,-2.6589,-2.6555,-2.6499,-2.6499,-2.6499,-2.6449,-2.5933,-2.5347,-2.4725,-2.4205,-2.364,-2.3108,-2.3108,-2.3108,-2.3108,-2.3108,-2.3108,-2.3108,-2.3108,-2.3108,-2.3108,-2.3108,-2.3108,-2.3108,-2.3108,-2.3471,-2.3904,-2.3904,-2.4318,-2.47,0.0,-2.516,-2.5581,-2.5509,-2.685,-2.826,-2.9149,-3.0232,-3.15,-3.3039,-3.3344,-3.3554,-3.3975,-3.4197,-3.4177,-3.3885,-3.4182,-3.4278,-3.3985,-3.404,-3.3971,-3.3675,-3.3605,-3.3536,-3.3361,-3.3326,-3.329,-3.329,-3.329,-3.329,-3.329,-3.329,-3.329,-3.329,-3.329,-3.329,-3.329,-3.3347,-3.3347,-3.3312,-3.3928,-3.4153,-3.4172,-3.5252,-3.5752,-3.5831,-3.632,-3.6492,-3.6492,-3.6492,-3.6492,-3.6492,0.0,0.0,0.0,0.0,0.0,0.0,0.0,0.0,0.0,-2.2506,-2.2712,-2.2841,-2.2888,-2.2888,-2.2888,-2.2888,-2.2888,-2.3164,-2.3778,-2.4226,-2.443,-2.4339,-2.4521,-2.4279,-2.3543,-2.3245,-2.3221,-2.3471,-2.3841,-2.423,-2.4669,-2.4996,-2.5272,-2.5498,-2.5498,-2.5498,-2.5498,-2.5498,-2.5498,-2.5485,-2.5247,-2.482,-2.4318,-2.4092,-2.364,-2.3108,-2.3108,-2.3108,0.0,-2.3017,-2.3,-2.3,-2.3,-2.3,-2.2987,-2.3078,-2.3108,-2.3183,-2.3521,-2.4054,-2.4481,-2.4481,-2.4883,-2.5272,-2.5272,-2.5962,-2.6629,-2.6596,-2.7825,-2.9152,-2.9835,-3.1031,-3.2288,-3.3314,-3.3808,-3.4042,-3.4085,-3.4264,-3.4244,-3.3779,-3.4005,-3.4142,-3.3931,-3.3848,-3.373,-3.3605,-3.3501,-3.3396,-3.329,-3.329,-3.329,-3.329,-3.329,-3.329,-3.329,-3.329,-3.329,-3.329,-3.329,-3.329,-3.329,-3.329,-3.329,-3.3312,-3.3542,-3.3825,-3.4138,-3.4576,-3.4942,-3.5252,-3.5479,-3.5591,-3.564,-3.6258,-3.6492,-3.6492,0.0,0.0,0.0,0.0,0.0,0.0,0.0,0.0,0.0,0.0,-2.2552,-2.2781,-2.2902,-2.2775,-2.2752,-2.2888,-2.2775,-2.2873,-2.3273,-2.3985,-2.4086,-2.3452,-2.4091,-2.4047,-2.3138,-2.3108,-2.3108,-2.3108,-2.3521,-2.3841,-2.4004,-2.4406,-2.4669,-2.4788,-2.4788,-2.4788,-2.4788,-2.4788,-2.4788,-2.4775,-2.4593,-2.4248,-2.3917,-2.3704,-2.3379,-2.2987,-2.3017,-2.3047,-2.3017,-2.2878,-2.286,-2.286,-2.286,-2.2878,-2.2909,-2.2969,-2.313,-2.3398,-2.4036,-2.4619,-2.5034,-2.5034,-2.5548,-2.6063,-2.6063,-2.6816,-2.7507,-2.7507,-2.8582,-2.9742,-3.045,-3.1702,-3.2888,-3.3618,-3.4076,-3.4264,-3.4128,-3.421,-3.4088,-3.364,-3.3799,-3.3902,-3.3744,-3.364,-3.357,-3.3536,-3.3396,-3.329,-3.329,-3.329,-3.329,-3.329,-3.329,-3.329,-3.329,-3.329,-3.329,-3.329,-3.329,-3.329,-3.329,-3.329,-3.329,-3.329,-3.329,-3.3507,-3.3894,-3.4051,-3.4341,-3.4677,-3.4843,-3.4909,-3.4975,-3.5784,-3.6053,-3.6085,0.0,0.0,0.0,0.0,0.0,0.0,0.0,0.0,0.0,0.0,0.0,0.0,0.0,-2.2486,-2.2394,-2.2865,-2.2486,-2.2686,-2.38,-2.3356,-2.3338,-2.396,-2.3457,-2.3125,-2.3108,-2.3108,-2.3108,-2.3108,-2.312,-2.3421,-2.4004,-2.4017,-2.4305,-2.4788,-2.4788,-2.4788,-2.4788,-2.4788,-2.4788,-2.4738,-2.4028,-2.371,-2.3635,-2.3004,-2.2733,-2.2739,-2.2848,-2.2909,-2.2878,-2.2739,-2.2708,-2.2708,-2.2708,-2.28,-2.2878,-2.2739,-2.317,-2.3847,-2.458,-2.5172,-2.5573,-2.5573,-2.6402,-2.7231,-2.7231,-2.767,-2.8084,-2.8084,-2.9123,-3.0299,-3.1129,-3.2326,-3.3457,-3.4235,-3.4216,-3.4128,-3.4094,-3.3971,-3.3862,-3.364,-3.3605,-3.3536,-3.3361,-3.3501,-3.3536,-3.3326,-3.329,-3.329,-3.329,-3.329,-3.329,-3.329,-3.329,-3.329,-3.329,-3.329,-3.329,-3.329,-3.329,-3.329,-3.329,-3.329,-3.329,-3.329,-3.329,-3.3326,-3.3347,-3.3894,-3.4104,-3.4172,-3.471,-3.4909,-3.4909,-3.4957,-3.4957,-3.5008,0.0,0.0,0.0,0.0,0.0,0.0,0.0,0.0,0.0,0.0,0.0,0.0,0.0,0.0,0.0,0.0,-2.2301,-2.2066,-2.1716,-2.2575,-2.2848,-2.2362,-2.3199,-2.3524,-2.3125,-2.3108,-2.3108,-2.3108,-2.3108,-2.3208,-2.3396,-2.3396,-2.3496,-2.3672,-2.3672,-2.3672,-2.3672,-2.3672,-2.3672,-2.3659,-2.3398,-2.3292,-2.328,-2.3062,-2.2969,-2.2969,0.0,-2.286,-2.2739,-2.2555,-2.2482,-2.2482,-2.2482,-2.2616,-2.2874,-2.3399,-2.4229,-2.5031,-2.5252,-2.5737,-2.6285,-2.6628,-2.7005,-2.7381,-2.7745,-2.826,-2.8512,-2.8185,-2.9149,-3.0026,-2.9799,-3.1349,-3.2692,-3.2726,-3.3519,-3.4025,-3.3799,-3.3848,-3.3793,-3.3431,-3.3536,-3.3536,-3.3326,-3.3361,-3.3361,-3.3326,-3.329,-3.329,-3.329,-3.329,-3.329,-3.329,-3.329,-3.329,-3.329,-3.329,-3.329,-3.329,-3.329,-3.329,-3.329,-3.329,-3.329,-3.329,-3.329,-3.329,-3.3312,-3.3472,-3.3577,-3.3612,-3.377,-3.3839,-3.3839,-3.3839,-3.3839,-3.3977,0.0,0.0,0.0,0.0,0.0,0.0,0.0,0.0,0.0,0.0,0.0,0.0,0.0,0.0,0.0,0.0,0.0,-2.1708,-2.1188,-2.2002,-2.237,-2.2132,-2.2939,-2.3402,-2.3471,-2.3215,-2.3108,-2.3108,-2.3108,-2.3108,-2.3108,-2.3108,-2.3108,-2.3108,-2.3108,-2.3108,-2.3108,-2.3108,-2.3108,-2.3078,-2.2987,-2.2987,-2.3017,-2.2836,-2.2818,0.0,-2.2696,-2.2586,-2.2494,-2.242,-2.2359,-2.2328,-2.2328,-2.2566,-2.299,-2.3941,-2.4791,-2.5531,-2.6054,-2.6499,-2.6927,-2.7444,-2.7684,-2.7799,-2.795,-2.8338,-2.855,-2.81,-2.8873,-2.946,-2.9084,-3.0352,-3.1509,-3.1487,-3.2208,-3.2898,-3.3234,-3.3262,-3.3297,-3.3396,-3.3466,-3.3431,-3.3326,-3.329,-3.329,-3.329,-3.329,-3.329,-3.329,-3.329,-3.329,-3.329,-3.329,-3.329,-3.329,-3.329,-3.329,-3.329,-3.329,-3.329,-3.329,-3.329,-3.329,-3.329,-3.329,-3.329,-3.329,-3.329,-3.329,-3.329,-3.329,-3.329,-3.329,-3.329,-3.329,-3.3417,0.0,0.0,0.0,0.0,0.0,0.0,0.0,0.0,0.0,0.0,0.0,0.0,0.0,0.0,0.0,0.0,0.0,0.0,-2.2011,-2.1599,-2.1851,-2.2974,-2.2581,-2.2872,-2.3979,-2.3442,-2.3138,-2.3108,-2.3108,-2.3108,-2.3108,-2.3108,-2.3108,-2.3108,-2.3108,-2.3108,-2.3108,-2.3108,-2.3108,-2.3078,-2.283,-2.28,-2.2848,-2.2402,-2.2309,-2.2389,-2.2278,-2.2216,-2.2216,-2.2359,-2.2309,-2.2197,-2.2228,-2.2602,-2.3252,-2.4295,-2.4839,-2.5438,-2.6887,-2.7281,-2.7419,-2.7972,-2.8338,-2.8474,-2.7953,-2.8101,-2.8197,-2.7829,-2.8227,-2.8656,0.0,0.0,-2.9955,-3.0517,-3.0521,-3.0989,-3.2494,-3.2412,-3.2533,-3.3452,-3.3431,-3.329,-3.329,-3.329,-3.329,-3.329,-3.329,-3.329,-3.329,-3.329,-3.329,-3.329,-3.329,-3.329,-3.329,-3.329,-3.329,-3.329,-3.329,-3.329,-3.329,-3.329,-3.329,-3.329,-3.329,-3.329,-3.329,-3.329,-3.329,-3.329,-3.329,-3.329,-3.329,-3.329,-3.329,-3.3382,0.0,0.0,0.0,0.0,0.0,0.0,0.0,0.0,0.0,0.0,0.0,0.0,0.0,0.0,0.0,0.0,0.0,0.0,-1.9851,-2.0444,-2.077,-2.0682,-2.2141,-2.2901,-2.276,-2.3473,-2.3603,-2.3108,-2.3108,-2.3108,-2.3108,-2.3108,-2.3108,-2.3108,-2.3108,-2.3108,-2.3108,-2.3108,-2.3108,-2.3078,-2.3017,-2.2969,-2.2878,-2.2757,-2.2665,-2.2616,-2.2586,-2.2463,-2.2328,-2.2278,-2.2216,-2.2216,-2.234,-2.3001,-2.3843,-2.4251,-2.4997,-2.5884,-2.6632,-2.6853,-2.7088,-2.8039,-2.8297,-2.8397,-2.8387,-2.836,-2.8087,-2.7345,-2.7218,-2.7058,-2.6565,-2.7529,-2.8569,-2.908,-3.0338,-3.1597,-3.2484,-3.2849,0.0,-3.3361,0.0,-3.329,-3.329,-3.329,-3.329,-3.329,-3.329,-3.329,-3.329,-3.329,-3.329,-3.329,-3.329,-3.329,-3.329,-3.329,-3.329,-3.329,-3.329,-3.329,-3.329,-3.329,-3.329,-3.329,-3.329,-3.329,-3.329,-3.329,-3.329,-3.329,-3.329,-3.329,-3.329,-3.329,-3.329,-3.3326,0.0,0.0,0.0,0.0,0.0,0.0,0.0,0.0,0.0,0.0,0.0,0.0,0.0,0.0,0.0,0.0,0.0,0.0,0.0,-2.0041,-2.0348,-2.0579,-2.1564,-2.2294,-2.2703,-2.3093,-2.3242,-2.3108,-2.3108,-2.3108,-2.3108,-2.3395,-2.3543,-2.3543,-2.3826,-2.393,-2.393,-2.393,-2.393,0.0,0.0,-2.3577,-2.3796,-2.3365,-2.3155,-2.3065,-2.3005,0.0,0.0,0.0,0.0,-2.2228,-2.2278,-2.3035,-2.3959,-2.4124,-2.5154,-2.6377,-2.6918,-2.7274,-2.773,-2.8467,-2.8415,-2.8144,-2.8,-2.7654,-2.7139,-2.6513,-2.6234,-2.6006,-2.5667,-2.6247,-2.7021,0.0,0.0,0.0,-3.1806,-3.2458,-3.2895,0.0,-3.329,0.0,-3.329,-3.329,-3.329,-3.329,-3.329,-3.329,-3.329,-3.329,-3.329,-3.329,-3.329,-3.329,-3.329,-3.329,-3.329,-3.329,-3.329,-3.329,-3.329,-3.329,-3.329,-3.329,-3.329,-3.329,-3.329,-3.329,-3.329,-3.329,-3.329,-3.329,-3.329,-3.329,-3.329,-3.329,0.0,0.0,0.0,0.0,0.0,0.0,0.0,0.0,0.0,0.0,0.0,0.0,0.0,0.0,0.0,0.0,0.0,0.0,0.0,0.0,0.0,0.0,-2.0975,-2.1446,-2.2839,-2.2518,-2.2531,-2.2995,-2.2995,-2.3092,-2.3258,-2.3839,-2.4147,-2.4234,-2.4766,-2.5007,-2.5007,-2.5007,-2.5007,-2.4922,-2.4237,-2.4295,-2.4724,0.0,-2.3547,-2.3429,0.0,0.0,0.0,0.0,-2.2197,-2.2197,-2.2197,-2.2951,-2.3839,-2.3959,-2.5225,-2.676,-2.7262,-2.7939,-2.8532,-2.8819,-2.8431,-2.7805,-2.7235,-2.6577,-2.5985,-2.568,-2.543,-2.5347,-2.5535,-2.5418,-2.5727,-2.7042,0.0,-2.8882,-3.0953,-3.1777,-3.2415,-3.3206,-3.329,-3.329,-3.329,-3.329,-3.329,-3.329,-3.329,-3.329,-3.329,-3.329,-3.329,-3.329,-3.329,-3.329,-3.329,-3.329,-3.329,-3.329,-3.329,-3.329,-3.329,-3.329,-3.329,-3.329,-3.329,-3.329,-3.329,-3.329,-3.329,-3.329,-3.329,-3.329,-3.329,-3.329,-3.329,-3.329,0.0,0.0,0.0,0.0,0.0,0.0,0.0,0.0,0.0,0.0,-1.5092,-1.6849,0.0,0.0,0.0,0.0,0.0,0.0,0.0,0.0,0.0,0.0,-2.0746,-2.1366,-2.1131,-2.1932,-2.2405,-2.2447,-2.2447,-2.295,-2.3914,-2.4044,-2.4379,-2.4851,-2.4951,-2.5007,-2.5007,-2.5007,-2.5007,-2.4979,-2.4838,-2.441,-2.3842,-2.3771,0.0,0.0,0.0,0.0,0.0,0.0,-2.2197,-2.2197,-2.2197,-2.2951,-2.3806,-2.3827,-2.4948,-2.6335,-2.6854,-2.7434,-2.7857,-2.7915,-2.7866,-2.7529,-2.6736,-2.6324,0.0,-2.568,-2.543,-2.5312,-2.5347,-2.5312,-2.5804,-2.7361,-2.8017,-2.9122,-3.1333,-3.2044,-3.2597,0.0,-3.329,-3.329,-3.329,-3.329,-3.329,-3.329,-3.329,-3.329,-3.329,-3.329,-3.329,-3.329,-3.329,-3.329,-3.329,-3.329,-3.329,-3.329,-3.329,-3.329,-3.329,-3.329,-3.329,-3.329,-3.329,-3.329,-3.329,-3.329,-3.329,-3.329,-3.329,-3.329,-3.329,-3.329,-3.329,-3.329,0.0,0.0,0.0,0.0,0.0,0.0,0.0,-1.3198,-1.3198,-1.3198,-1.3909,-1.522,-1.737,-1.8433,-1.9307,0.0,0.0,0.0,0.0,0.0,0.0,0.0,0.0,0.0,0.0,-2.1227,-2.1648,-2.1882,0.0,-2.2192,-2.2747,-2.3074,-2.3507,-2.4096,-2.4378,-2.4685,-2.4896,-2.4896,-2.4922,-2.491,-2.4526,-2.449,-2.4613,0.0,0.0,0.0,0.0,0.0,0.0,0.0,-2.2197,-2.2197,-2.2197,-2.2951,-2.3806,-2.3806,-2.4983,-2.6275,-2.643,-2.6962,-2.741,-2.7308,-2.7054,-2.678,-2.6335,0.0,0.0,-2.5478,-2.5382,-2.5312,-2.5312,-2.5312,0.0,-2.6854,-2.7806,-2.901,-3.0784,-3.1822,-3.2623,-3.322,-3.329,-3.329,-3.329,-3.329,-3.329,-3.329,-3.329,-3.329,-3.329,-3.329,-3.329,-3.329,-3.329,-3.329,-3.329,-3.329,-3.329,-3.329,-3.329,-3.329,-3.329,-3.329,-3.329,-3.329,-3.329,-3.329,-3.329,-3.329,-3.329,-3.329,-3.329,-3.329,-3.329,-3.329,-3.329,-3.329,0.0,0.0,0.0,0.0,0.0,0.0,0.0,-1.3198,-1.3198,-1.3198,-1.3198,-1.3915,-1.5794,-1.7457,-1.8728,0.0,0.0,0.0,0.0,0.0,0.0,0.0,0.0,0.0,0.0,0.0,0.0,-2.1345,-2.1345,0.0,0.0,0.0,0.0,0.0,-2.3731,-2.4137,-2.45,-2.4599,-2.4677,0.0,0.0,-2.4473,0.0,0.0,0.0,0.0,0.0,0.0,0.0,0.0,-2.2197,-2.2197,-2.2197,-2.2879,-2.3637,-2.3637,-2.4814,-2.6118,-2.5973,-2.6517,-2.7074,-2.6816,-2.6418,-2.6069,-2.5949,-2.5612,0.0,-2.5312,-2.5312,-2.5312,-2.5312,-2.5312,-2.5546,0.0,-2.7284,-2.8484,-3.0005,-3.1226,-3.2241,0.0,-3.3206,0.0,-3.329,-3.329,-3.329,-3.329,-3.329,-3.329,-3.329,-3.329,-3.329,-3.329,-3.329,-3.329,-3.329,-3.329,-3.329,-3.329,-3.329,-3.329,-3.329,-3.329,-3.329,-3.329,-3.329,-3.329,-3.329,-3.329,-3.329,-3.329,-3.329,-3.329,-3.329,-3.329,-3.329,-3.329,0.0,0.0,0.0,0.0,0.0,0.0,0.0,-1.3198,-1.3198,-1.3198,-1.3198,-1.3483,-1.4234,-1.5762,-1.7166,0.0,0.0,0.0,0.0,0.0,0.0,0.0,0.0,0.0,0.0,0.0,0.0,-2.0767,-2.0767,0.0,0.0,0.0,0.0,0.0,0.0,-2.3396,-2.3473,-2.396,0.0,0.0,0.0,0.0,0.0,0.0,0.0,0.0,0.0,0.0,0.0,0.0,0.0,-2.2197,-2.2197,-2.2582,-2.3083,-2.3083,0.0,0.0,-2.5384,-2.6142,-2.6815,-2.6298,-2.6142,-2.5973,-2.5492,0.0,-2.5312,-2.5312,-2.5312,-2.5312,-2.5312,-2.5312,-2.5546,-2.6277,-2.6487,-2.7284,-2.9281,-3.016,-3.1048,-3.2344,0.0,0.0,-3.329,-3.329,-3.329,-3.329,-3.329,-3.329,-3.329,-3.329,-3.329,-3.329,-3.329,-3.329,-3.329,-3.329,-3.329,-3.329,-3.329,-3.329,-3.329,-3.329,-3.329,-3.329,-3.329,-3.329,-3.329,-3.329,-3.329,-3.329,-3.329,-3.329,-3.329,-3.329,-3.329,-3.329,0.0,0.0,0.0,0.0,0.0,0.0,-1.3181,-1.3198,-1.3198,-1.3198,-1.3198,-1.3303,-1.3534,-1.4739,-1.6141,-1.7589,0.0,0.0,0.0,0.0,0.0,0.0,0.0,0.0,0.0,0.0,-1.9911,-2.015,-2.015,0.0,0.0,0.0,0.0,0.0,0.0,-2.2176,-2.2188,-2.2731,0.0,0.0,0.0,0.0,0.0,0.0,0.0,0.0,0.0,0.0,-2.2589,0.0,0.0,0.0,-2.2197,-2.2342,0.0,0.0,-2.364,-2.4386,-2.4386,-2.4927,-2.5385,-2.5204,-2.5384,-2.5564,-2.536,0.0,-2.5312,-2.5312,-2.5312,-2.5312,-2.5312,-2.5312,-2.5418,-2.5687,-2.6104,-2.681,-2.8015,-2.9453,-3.0747,-3.164,-3.2674,-3.329,-3.329,-3.329,-3.329,-3.329,-3.329,-3.329,-3.329,-3.329,-3.329,-3.329,-3.329,-3.329,-3.329,-3.329,-3.329,-3.329,-3.329,-3.329,-3.329,-3.329,-3.329,-3.329,-3.329,-3.329,-3.329,-3.329,-3.329,-3.329,-3.329,-3.329,-3.329,-3.329,-3.329,-3.329,0.0,0.0,0.0,0.0,0.0,-1.3146,-1.3181,-1.3198,-1.3198,-1.3198,-1.3198,-1.3198,-1.3198,-1.3923,-1.5009,-1.6531,-1.7601,0.0,0.0,0.0,0.0,0.0,0.0,0.0,0.0,0.0,-1.9798,-1.9798,-1.9798,-1.9875,0.0,0.0,-2.008,-2.061,0.0,0.0,0.0,0.0,0.0,0.0,0.0,0.0,0.0,0.0,0.0,0.0,0.0,0.0,0.0,0.0,0.0,0.0,0.0,0.0,0.0,0.0,-2.3156,-2.3565,-2.3565,-2.3905,-2.4338,-2.4482,-2.4795,-2.5119,0.0,0.0,-2.5312,-2.5312,-2.5312,-2.5312,-2.5312,-2.5312,-2.5312,-2.5312,-2.5721,-2.631,-2.6942,-2.8782,-3.0321,-3.0949,0.0,-3.329,-3.329,-3.329,-3.329,-3.329,-3.329,-3.329,-3.329,-3.329,-3.329,-3.329,-3.329,-3.329,-3.329,-3.329,-3.329,-3.329,-3.329,-3.329,-3.329,-3.329,-3.329,-3.329,-3.329,-3.329,-3.329,-3.329,-3.329,-3.329,-3.329,-3.329,-3.329,-3.329,-3.329,-3.329,0.0,0.0,0.0,0.0,0.0,0.0,-1.3198,-1.3198,-1.3198,-1.3198,-1.3198,-1.3198,-1.3198,-1.321,-1.3679,-1.4821,-1.6923,0.0,0.0,0.0,0.0,0.0,0.0,0.0,0.0,0.0,-1.9798,-1.9798,-1.9798,-2.008,-2.0585,-2.0055,-2.008,-2.0585,0.0,0.0,0.0,0.0,0.0,0.0,0.0,0.0,0.0,0.0,0.0,0.0,0.0,0.0,0.0,0.0,0.0,0.0,0.0,0.0,0.0,0.0,-2.2582,-2.3023,-2.3023,-2.3408,-2.3926,-2.4398,-2.4496,-2.4662,-2.5192,-2.5312,-2.5312,-2.5312,-2.5312,-2.5312,-2.5312,-2.5312,-2.5312,-2.5312,-2.5312,-2.5581,-2.6324,-2.8083,-2.957,0.0,-3.2125,-3.329,-3.329,-3.329,-3.329,-3.329,-3.329,-3.329,-3.329,-3.329,-3.329,-3.329,-3.329,-3.329,-3.329,-3.329,-3.329,-3.329,-3.329,-3.329,-3.329,-3.329,-3.329,-3.329,-3.329,-3.329,-3.329,-3.329,-3.329,-3.329,-3.329,-3.329,-3.329,-3.329,-3.329,-3.329,0.0,0.0,0.0,0.0,0.0,0.0,0.0,-1.3198,-1.3198,-1.3198,-1.3198,-1.3198,-1.3198,-1.3198,-1.3353,-1.3704,-1.5429,0.0,0.0,0.0,0.0,0.0,0.0,0.0,0.0,0.0,-1.9798,-1.9798,-1.9798,-1.9901,-2.0055,-1.9875,-2.008,-2.061,-2.082,-2.0795,0.0,0.0,0.0,0.0,0.0,0.0,0.0,0.0,0.0,0.0,0.0,0.0,0.0,0.0,0.0,0.0,0.0,0.0,0.0,-2.2197,0.0,0.0,-2.2438,-2.2823,-2.33,-2.3424,-2.4001,-2.4532,-2.47,-2.5047,-2.5312,-2.5312,-2.5312,-2.5312,-2.5312,-2.5312,-2.5312,-2.5312,-2.5312,-2.5558,0.0,0.0,0.0,-3.031,-3.2111,-3.329,-3.329,-3.329,-3.329,-3.329,-3.329,-3.329,-3.329,-3.329,-3.329,-3.329,-3.329,-3.329,-3.329,-3.329,-3.329,-3.329,-3.329,-3.329,-3.329,-3.329,-3.329,-3.329,-3.329,-3.329,-3.329,-3.329,-3.329,-3.329,-3.329,-3.329,-3.329,-3.329,-3.329,-3.329,0.0,0.0,0.0,0.0,0.0,0.0,0.0,-1.3198,-1.3198,-1.3198,-1.3198,-1.3198,-1.3198,-1.3198,-1.3198,-1.3198,-1.4362,0.0,0.0,0.0,0.0,0.0,0.0,0.0,-1.9798,-1.9798,-1.9798,-1.9798,-1.9798,-1.9901,-2.0105,-1.9901,-2.008,-2.061,-2.0746,-2.0832,0.0,0.0,0.0,0.0,0.0,0.0,-1.9368,0.0,0.0,0.0,0.0,0.0,0.0,0.0,0.0,0.0,0.0,0.0,0.0,0.0,-2.2197,-2.2197,0.0,-2.2426,-2.2758,-2.2963,-2.346,0.0,-2.4388,-2.4771,-2.5071,-2.5264,-2.5312,-2.5312,-2.5312,-2.5312,-2.5312,-2.5312,-2.5312,-2.5558,0.0,0.0,0.0,-3.133,-3.2542,-3.329,-3.329,-3.329,-3.329,-3.329,-3.329,-3.329,-3.329,-3.329,-3.329,-3.329,-3.329,-3.329,-3.329,-3.329,-3.329,-3.329,-3.329,-3.329,-3.329,-3.329,-3.329,-3.329,-3.329,-3.329,0.0,-3.329,-3.329,-3.329,-3.329,-3.329,-3.329,-3.329,-3.329,-3.329,0.0,0.0,0.0,0.0,0.0,0.0,0.0,-1.3223,-1.3198,-1.3198,-1.3198,-1.3198,-1.3198,-1.3198,-1.3198,-1.3198,0.0,0.0,0.0,0.0,0.0,0.0,0.0,0.0,-1.9798,-1.9798,-1.9798,-1.9798,-1.9798,-2.0055,-2.0535,-2.0029,-2.008,-2.0585,-2.008,-2.0421,0.0,0.0,0.0,0.0,0.0,0.0,0.0,0.0,0.0,0.0,0.0,0.0,0.0,0.0,0.0,0.0,0.0,0.0,0.0,0.0,0.0,0.0,0.0,-2.2197,-2.2306,-2.283,-2.2987,-2.3232,-2.4194,-2.4434,0.0,-2.5143,-2.5252,-2.5264,-2.53,-2.5312,-2.5312,-2.5312,-2.5312,-2.5581,0.0,-2.8187,0.0,0.0,-3.329,-3.329,-3.329,-3.329,-3.329,-3.329,-3.329,-3.329,-3.329,-3.329,-3.329,-3.329,-3.329,-3.329,-3.329,-3.329,-3.329,-3.329,-3.329,-3.329,-3.329,-3.329,-3.329,-3.329,-3.329,-3.329,-3.329,-3.329,-3.329,-3.329,-3.329,-3.329,-3.329,-3.329,-3.329,-3.329,0.0,0.0,0.0,0.0,0.0,0.0,0.0,0.0,0.0,0.0,-1.3198,-1.3198,-1.3198,-1.3198,-1.3198,0.0,0.0,0.0,0.0,0.0,0.0,0.0,0.0,0.0,-1.9798,-1.9798,-1.9798,-1.9798,-1.9798,-1.985,-1.9978,-1.985,-2.008,-2.0585,-2.0459,-2.056,0.0,0.0,0.0,0.0,0.0,0.0,0.0,0.0,0.0,0.0,-1.9131,-1.9808,0.0,0.0,0.0,0.0,0.0,0.0,0.0,0.0,-2.2197,-2.2197,-2.2197,0.0,-2.2221,-2.2354,-2.271,-2.3071,0.0,-2.3652,-2.4097,-2.4602,0.0,0.0,-2.524,-2.5312,-2.5312,-2.5312,-2.5312,-2.5744,-2.7048,-2.941,0.0,-3.3101,-3.329,-3.329,-3.329,-3.329,-3.329,-3.329,-3.329,-3.329,-3.329,-3.329,-3.329,-3.329,-3.329,-3.329,-3.329,-3.329,-3.329,-3.329,-3.329,-3.329,-3.329,-3.329,-3.329,-3.329,-3.329,-3.329,-3.329,-3.329,-3.329,-3.329,-3.329,-3.329,-3.329,-3.329,-3.329,-3.329,0.0,0.0,0.0,0.0,0.0,0.0,0.0,0.0,0.0,0.0,0.0,-1.3215,-1.3301,-1.325,0.0,0.0,0.0,0.0,0.0,0.0,0.0,0.0,0.0,-1.9725,-1.9888,-1.9824,-1.9798,-1.9798,-1.9798,-1.9798,-1.9798,-1.9798,-1.9952,-2.0232,-2.0485,-2.0459,0.0,0.0,0.0,0.0,-1.9237,0.0,0.0,0.0,0.0,0.0,-1.8987,-1.9684,0.0,-2.0603,-2.1325,-2.2197,0.0,0.0,0.0,0.0,-2.2197,-2.2197,-2.2197,-2.2197,-2.2197,-2.2197,-2.2402,-2.271,-2.2919,0.0,0.0,0.0,0.0,0.0,0.0,0.0,0.0,-2.5312,-2.5581,0.0,0.0,0.0,-3.2258,-3.3178,-3.329,-3.329,-3.329,-3.329,-3.329,-3.329,-3.329,-3.329,-3.329,-3.329,-3.329,-3.329,-3.329,-3.329,-3.329,-3.329,-3.329,-3.329,-3.329,-3.329,-3.329,-3.329,-3.329,-3.329,-3.329,-3.329,-3.329,-3.329,-3.329,-3.329,-3.329,-3.329,-3.329,-3.329,-3.329,-3.329,0.0,0.0,0.0,0.0,0.0,0.0,0.0,0.0,0.0,0.0,0.0,0.0,0.0,0.0,0.0,0.0,0.0,0.0,0.0,0.0,0.0,0.0,-1.8955,-1.942,-1.9826,-1.9825,-1.9798,-1.9798,-1.9798,-1.9798,-1.9798,-1.9798,-1.9798,-1.9824,-2.0283,-2.0207,0.0,0.0,-1.9875,-1.9512,-1.9146,0.0,0.0,0.0,0.0,0.0,0.0,0.0,0.0,-2.0562,-2.1277,-2.2089,-2.2161,0.0,0.0,0.0,0.0,0.0,-2.2197,-2.2197,-2.2197,-2.2197,-2.2197,-2.2306,-2.2763,0.0,0.0,0.0,0.0,0.0,0.0,-2.4879,0.0,0.0,0.0,0.0,-3.0045,-3.1556,-3.2623,-3.322,-3.329,-3.3241,-3.3122,-3.3241,-3.3241,-3.3122,-3.3241,-3.329,-3.329,-3.329,-3.329,-3.329,-3.329,-3.329,-3.329,-3.329,-3.329,-3.329,-3.329,-3.329,-3.329,-3.329,-3.329,-3.329,-3.329,-3.329,-3.329,-3.329,-3.329,-3.329,-3.329,-3.329,-3.329,-3.329,-3.329,-3.329,0.0,0.0,0.0,0.0,0.0,0.0,0.0,0.0,0.0,0.0,0.0,0.0,0.0,0.0,0.0,0.0,0.0,0.0,0.0,0.0,0.0,-1.7366,-1.8673,-1.9291,-1.9158,-1.9572,-1.9798,-1.9798,-1.9798,-1.9798,-1.9798,-1.9798,-1.9798,-1.9798,-1.9901,-1.9811,-1.963,-1.9539,-1.942,-1.9249,-1.9078,0.0,0.0,0.0,0.0,0.0,0.0,0.0,0.0,-2.0454,-2.1019,-2.1596,-2.2053,0.0,0.0,0.0,0.0,0.0,-2.2197,-2.2197,-2.2197,-2.2197,-2.2197,-2.2209,-2.2294,0.0,0.0,0.0,0.0,0.0,0.0,-2.459,-2.4748,0.0,0.0,-2.8631,-3.0181,-3.1556,-3.2623,-3.322,-3.329,-3.3051,-3.2354,-3.2895,-3.3016,-3.2354,-3.2931,-3.329,-3.329,-3.329,-3.329,-3.329,-3.329,-3.329,-3.329,-3.329,-3.329,-3.329,-3.329,-3.329,-3.329,-3.329,-3.329,-3.329,-3.329,-3.329,-3.329,-3.329,-3.329,-3.329,-3.329,-3.329,-3.329,-3.329,-3.329,-3.329,0.0,0.0,0.0,0.0,0.0,0.0,0.0,0.0,0.0,0.0,0.0,0.0,0.0,0.0,0.0,0.0,0.0,0.0,0.0,0.0,-1.5479,-1.608,-1.792,-1.9008,-1.9204,-1.9611,-1.9798,-1.9798,-1.9798,-1.9798,-1.9798,-1.9798,-1.9798,-1.9798,-1.9798,-1.9734,-1.9591,-1.9473,-1.9328,-1.9182,0.0,0.0,0.0,0.0,0.0,0.0,0.0,0.0,0.0,0.0,-2.0971,-2.15,-2.2029,0.0,0.0,0.0,0.0,0.0,-2.2197,-2.2197,-2.2197,-2.2197,-2.2197,-2.2197,-2.2197,0.0,0.0,0.0,0.0,0.0,0.0,0.0,-2.5526,-2.6819,-2.8394,-2.9828,-3.0853,-3.2081,-3.3002,-3.3262,-3.329,-3.2966,-3.2196,-3.2426,-3.2318,-3.1526,-3.2209,-3.2654,-3.2654,-3.3051,-3.329,-3.329,-3.329,-3.329,-3.329,-3.329,-3.329,-3.329,-3.329,-3.329,-3.329,-3.329,-3.329,-3.329,-3.329,-3.329,-3.329,-3.329,-3.329,-3.329,-3.329,-3.329,-3.329,-3.329,-3.329,-3.329,0.0,0.0,0.0,0.0,0.0,0.0,0.0,0.0,0.0,0.0,0.0,0.0,0.0,0.0,0.0,0.0,0.0,0.0,0.0,0.0,-1.51,-1.5254,-1.7106,-1.842,-1.911,-1.956,-1.9798,-1.9798,-1.9798,-1.9798,-1.9798,-1.9798,-1.9798,-1.9798,-1.9773,-1.9682,-1.9539,-1.942,-1.9275,-1.9143,0.0,0.0,0.0,0.0,0.0,0.0,0.0,0.0,0.0,0.0,0.0,0.0,0.0,0.0,0.0,-2.2197,-2.2197,-2.2197,-2.2197,-2.2197,-2.2197,-2.2197,-2.2197,-2.2197,-2.2197,-2.2197,0.0,0.0,0.0,0.0,0.0,-2.46,0.0,-2.8004,-2.9456,-3.0678,-3.1419,-3.2387,-3.3086,-3.329,-3.3122,-3.2704,-3.1892,-3.2001,-3.1673,-3.0707,-3.1365,-3.1819,-3.1819,-3.2403,-3.2753,-3.2753,-3.2753,-3.2753,-3.2753,-3.2753,-3.2945,-3.329,-3.3122,-3.3016,-3.3016,-3.3016,-3.3016,-3.3016,-3.3206,-3.329,-3.329,-3.329,-3.329,-3.329,-3.329,-3.329,-3.329,-3.329,-3.329,-3.329,0.0,0.0,0.0,0.0,0.0,0.0,0.0,0.0,0.0,0.0,0.0,0.0,0.0,0.0,0.0,0.0,0.0,0.0,0.0,0.0,-1.4756,-1.5455,-1.6406,-1.7359,-1.8265,-1.9271,-1.9798,-1.9798,-1.9798,-1.9798,-1.9798,-1.9798,-1.9798,-1.9798,-1.9656,-1.9539,-1.942,-1.9275,-1.9143,-1.9013,-1.8987,0.0,0.0,0.0,0.0,0.0,0.0,0.0,0.0,0.0,0.0,0.0,0.0,0.0,-2.2197,-2.2197,-2.2197,-2.2197,-2.2197,-2.2197,-2.2197,-2.2197,-2.2197,0.0,-2.2197,-2.2197,0.0,-2.2197,0.0,0.0,0.0,-2.5167,-2.6603,-2.7438,-2.9154,-3.0678,-3.1419,-3.1895,-3.2461,-3.3206,-3.2618,-3.1856,-3.1082,-3.1673,-3.1452,-2.9884,-3.0519,-3.1007,-3.1007,-3.1044,-3.1082,-3.1082,-3.1082,-3.1082,-3.1082,-3.1082,-3.1833,-3.329,-3.2547,-3.2196,-3.2196,-3.2196,-3.2196,-3.2232,-3.298,-3.329,-3.329,-3.329,-3.329,-3.329,-3.329,-3.329,-3.329,-3.329,-3.329,-3.329,0.0,0.0,0.0,0.0,0.0,0.0,0.0,0.0,0.0,0.0,0.0,0.0,0.0,0.0,0.0,0.0,0.0,0.0,0.0,-1.4556,-1.5017,-1.5311,-1.6268,-1.7235,-1.8179,-1.8907,-1.9472,-1.9798,-1.9798,-1.9798,-1.9798,-1.9798,-1.9798,-1.9798,-1.9656,-1.9539,-1.9394,-1.9249,-1.9117,-1.8987,-1.8987,-1.8987,0.0,0.0,0.0,0.0,0.0,0.0,0.0,0.0,-2.0803,-2.1235,-2.1969,-2.2197,-2.2197,-2.2197,-2.2197,-2.2197,-2.2197,-2.2197,-2.2197,-2.2197,-2.2197,0.0,0.0,-2.2197,-2.2197,-2.2197,-2.245,0.0,0.0,0.0,-2.6921,-2.7952,-2.9369,-3.0624,-3.1385,-3.1425,-3.1636,-3.2475,-3.1819,-3.1044,-3.0215,-3.0443,-3.0152,-2.904,-2.9704,-3.0139,-3.0139,-3.0632,-3.0895,-3.0895,-3.0895,-3.0895,-3.0895,-3.1415,-3.1709,-3.1796,-3.2015,-3.211,-3.2123,-3.2618,-3.286,-3.2846,-3.3171,-3.329,-3.329,-3.329,-3.329,-3.329,-3.329,-3.329,-3.329,-3.329,-3.329,-3.329,0.0,0.0,0.0,0.0,0.0,0.0,0.0,0.0,0.0,0.0,0.0,0.0,0.0,0.0,0.0,0.0,0.0,0.0,-1.4323,-1.4642,-1.498,-1.5197,-1.5855,-1.6867,-1.8237,-1.8568,-1.9083,-1.9798,-1.9798,-1.9798,-1.9798,-1.9798,-1.9773,-1.9734,-1.9617,-1.9473,-1.9328,-1.9196,-1.9078,-1.8987,-1.8987,-1.8987,0.0,0.0,0.0,0.0,0.0,0.0,0.0,0.0,-2.0947,-2.15,-2.2029,-2.2197,-2.2197,-2.2197,-2.2197,-2.2197,-2.2197,-2.2197,-2.2197,0.0,0.0,0.0,-2.2451,-2.2328,-2.2247,-2.2451,-2.2885,-2.3648,-2.4991,-2.6176,-2.7209,-2.805,-2.9383,-3.0501,-3.1037,-3.077,-3.082,-3.1636,-3.1007,-3.0291,-2.9742,-2.9704,-2.9367,-2.8538,-2.8988,-2.9328,-2.9328,-2.9845,-3.0139,-3.0139,-3.0139,-3.0139,-3.0139,-3.0932,-3.1082,-3.0519,-3.1586,-3.1965,-3.1746,-3.2547,-3.2931,-3.2931,-3.3206,-3.329,-3.329,-3.329,-3.329,-3.329,-3.329,-3.3206,-3.3122,-3.3122,-3.3016,-3.2909,0.0,0.0,0.0,0.0,0.0,0.0,0.0,0.0,0.0,0.0,0.0,0.0,0.0,0.0,0.0,0.0,0.0,0.0,-1.4301,-1.4225,-1.4516,-1.5184,-1.5082,-1.6084,-1.8353,-1.8275,-1.8744,-1.9798,-1.9798,-1.9798,-1.9798,-1.9798,-1.9734,-1.9591,-1.9473,-1.9328,-1.9196,-1.9052,-1.8987,-1.8987,-1.8987,-1.8987,-1.8987,0.0,0.0,0.0,0.0,0.0,0.0,0.0,-2.0942,-2.15,-2.2029,-2.2197,-2.2197,-2.2197,-2.2197,-2.2197,-2.2197,-2.2197,-2.2197,0.0,0.0,0.0,-2.298,-2.2641,-2.2359,-2.2992,-2.3482,-2.3962,-2.4434,-2.616,-2.7517,-2.7484,-2.9045,-3.0295,-3.0295,-2.9932,-2.9999,-3.0782,-3.019,-2.9704,-2.9704,-2.9704,-2.9367,-2.855,-2.851,-2.851,-2.851,-2.851,-2.851,-2.851,-2.851,-2.851,-2.851,-2.9289,-2.9704,-2.9704,-3.1304,-3.1673,-3.0932,-3.1746,-3.211,-3.216,-3.2931,-3.329,-3.329,-3.329,-3.329,-3.329,-3.329,-3.3051,-3.2704,-3.2704,-3.2453,-3.2092,0.0,0.0,0.0,0.0,0.0,0.0,0.0,0.0,0.0,0.0,0.0,0.0,0.0,0.0,0.0,0.0,0.0,0.0,-1.5392,-1.5322,-1.5417,-1.5602,-1.5995,-1.6831,-1.8237,-1.8969,-1.9484,-1.9798,-1.9798,-1.9798,-1.9798,-1.9798,-1.9734,-1.9591,-1.9473,-1.9328,-1.9196,-1.9052,-1.8987,-1.8987,-1.8987,-1.8987,-1.8987,0.0,0.0,0.0,0.0,0.0,0.0,0.0,0.0,0.0,-2.2149,-2.2197,-2.2197,-2.2197,-2.2197,-2.2197,-2.2197,-2.2197,0.0,-2.2197,0.0,0.0,0.0,-2.2932,0.0,0.0,-2.3987,-2.4458,-2.4975,-2.6379,-2.7351,-2.6812,-2.8244,-2.9491,-2.9513,-2.9126,-2.9145,-2.9961,-2.9367,-2.8843,-2.8843,-2.8843,-2.8776,-2.851,-2.851,-2.851,-2.851,-2.851,-2.851,-2.851,-2.851,-2.851,-2.851,-2.9289,-2.9406,-2.8882,-3.0481,-3.1415,-3.1783,-3.2583,-3.2931,-3.298,-3.3206,-3.329,-3.329,-3.329,-3.329,-3.3276,-3.298,-3.281,-3.2668,-3.2381,-3.22,-3.2092,0.0,0.0,0.0,0.0,0.0,0.0,0.0,0.0,0.0,0.0,0.0,0.0,0.0,0.0,0.0,0.0,0.0,0.0,0.0,-1.5754,-1.5754,-1.5754,-1.6317,-1.7206,-1.8481,-1.9359,-1.9798,-1.9798,-1.9798,-1.9798,-1.9798,-1.9759,-1.9656,-1.9512,-1.9368,-1.9249,-1.9117,-1.9013,-1.8987,-1.8987,-1.8987,-1.9119,-1.9338,0.0,0.0,0.0,0.0,0.0,0.0,0.0,0.0,0.0,-2.2197,-2.2197,-2.2197,-2.2197,-2.2197,-2.2197,-2.2197,-2.2197,0.0,-2.2197,-2.2197,-2.2389,-2.3113,0.0,0.0,0.0,-2.4169,-2.464,-2.5216,-2.6264,-2.6913,-2.6483,-2.7494,-2.844,-2.8708,-2.8423,-2.8427,-2.916,-2.8816,-2.851,-2.851,-2.851,-2.851,-2.851,-2.851,-2.851,-2.851,-2.851,-2.851,-2.851,-2.851,-2.851,-2.851,-2.9289,-2.9445,-2.9,-3.0594,-3.1636,-3.2123,-3.2583,-3.3016,-3.329,-3.329,-3.329,-3.329,-3.3122,-3.3051,-3.3016,-3.2596,-3.2381,-3.2237,-3.1982,-3.1813,-3.1666,0.0,0.0,0.0,0.0,0.0,0.0,0.0,0.0,0.0,0.0,0.0,0.0,0.0,0.0,0.0,0.0,0.0,0.0,0.0,0.0,-1.5768,-1.5768,-1.6346,-1.7403,-1.9045,-1.956,-1.9798,-1.9798,-1.9798,-1.9798,-1.9773,-1.9656,-1.9512,-1.9368,-1.9249,-1.9117,-1.8987,-1.8987,-1.9023,-1.9059,-1.9059,-1.9384,-1.988,-1.988,0.0,0.0,0.0,0.0,0.0,0.0,0.0,0.0,-2.2197,-2.2197,-2.2197,-2.2197,-2.2197,-2.2197,-2.2197,0.0,0.0,-2.2197,-2.2247,0.0,-2.2228,-2.3509,-2.4533,-2.3936,-2.4206,-2.47,-2.5216,-2.5896,-2.638,-2.6311,-2.6809,-2.7347,-2.7776,-2.7713,-2.7798,-2.8318,-2.8366,-2.8378,-2.8426,-2.8438,-2.8462,-2.851,-2.851,-2.851,-2.851,-2.851,-2.851,-2.851,-2.851,-2.851,-2.851,-2.9223,-2.9588,-2.9626,-3.1156,-3.1928,-3.2015,-3.216,-3.2583,-3.3255,-3.3255,-3.3206,-3.3171,-3.2789,-3.2668,-3.2596,-3.22,-3.1873,-3.1593,-3.1556,-3.131,-3.0986,0.0,0.0,0.0,0.0,0.0,0.0,0.0,0.0,0.0,0.0,0.0,0.0,0.0,0.0,0.0,0.0,0.0,0.0,0.0,0.0,-1.6333,-1.6333,-1.73,-1.8405,-1.961,-1.9748,-1.9798,-1.9798,-1.9798,-1.9759,-1.963,-1.9617,-1.9473,-1.9249,-1.9208,-1.9117,-1.8987,-1.8987,-1.9227,-1.964,-1.964,-1.9937,-2.043,-2.0434,-2.0771,0.0,0.0,0.0,0.0,0.0,0.0,0.0,-2.2197,-2.2197,-2.2197,-2.2197,-2.2197,-2.2197,-2.2197,-2.2197,0.0,0.0,-2.2561,-2.2781,-2.2309,-2.317,-2.4048,-2.3838,-2.4494,-2.5168,-2.5288,-2.5896,-2.6208,-2.5616,-2.6457,-2.7032,-2.6566,-2.6817,-2.7102,-2.7222,-2.7234,-2.7402,-2.7849,-2.7858,-2.8065,-2.8474,-2.851,-2.851,-2.851,-2.851,-2.851,-2.851,-2.851,-2.851,-2.851,-2.8657,-2.8776,-2.8776,-2.9742,-3.0557,-3.1193,-3.2475,-3.2966,-3.281,-3.281,-3.2632,-3.2359,-3.2273,-3.2237,-3.22,-3.185,-3.1666,-3.1556,-3.1235,-3.1061,-3.0986,0.0,0.0,0.0,0.0,0.0,0.0,0.0,0.0,0.0,0.0,0.0,0.0,0.0,0.0,0.0,0.0,0.0,0.0,0.0,0.0,-1.6738,-1.7277,-1.8141,-1.897,-1.9786,-1.9798,-1.9798,-1.9798,-1.9798,-1.9734,-1.9617,-1.9539,-1.9394,-1.9208,-1.9143,-1.9078,-1.9011,-1.9263,-1.9555,-1.9832,-2.0069,-2.0502,-2.0983,-2.0971,-2.1308,-2.1777,-2.1777,0.0,0.0,0.0,0.0,0.0,0.0,0.0,-2.2197,-2.2197,-2.2197,-2.2197,-2.2197,0.0,0.0,-2.2197,0.0,-2.258,-2.2278,-2.2865,-2.3475,-2.3425,-2.4218,-2.5011,-2.5264,-2.5616,-2.5756,-2.5382,-2.586,-2.6271,-2.613,-2.6346,-2.6597,-2.6861,-2.6898,-2.7006,-2.7282,-2.7306,-2.7426,-2.7702,-2.7714,-2.7714,-2.7714,-2.7993,-2.8138,-2.8138,-2.8378,-2.851,-2.851,-2.851,-2.851,-2.851,-2.9211,-3.0063,-3.1068,-3.2403,-3.2895,-3.2704,-3.2489,-3.2309,-3.2092,-3.1909,-3.185,-3.1813,-3.1445,-3.131,-3.1272,-3.1099,-3.0986,-3.0986,0.0,0.0,0.0,0.0,0.0,0.0,0.0,0.0,0.0,0.0,0.0,0.0,0.0,0.0,0.0,0.0,0.0,0.0,0.0,0.0,0.0,-1.8292,-1.8733,-1.9246,-1.9798,-1.9773,-1.9773,-1.9798,-1.9798,-1.9734,-1.9565,-1.9447,-1.9328,-1.917,-1.9052,-1.8987,-1.9049,-1.9579,-1.9856,-1.9973,-2.0526,-2.1067,-2.1536,-2.1536,-2.1813,-2.2197,-2.2197,-2.2197,-2.2197,-2.2197,0.0,0.0,0.0,0.0,-2.2197,-2.2197,-2.2197,-2.2197,-2.2197,0.0,-2.2197,-2.2197,-2.2197,0.0,-2.2197,-2.2534,-2.2903,-2.2999,-2.3809,-2.465,-2.5095,-2.5252,-2.5312,-2.5312,-2.5312,-2.5456,-2.5901,-2.5961,-2.6129,-2.6561,-2.6621,-2.6645,-2.6741,-2.6753,-2.6789,-2.6885,-2.6898,-2.6898,-2.6898,-2.7318,-2.7546,-2.7546,-2.7978,-2.8234,-2.8234,-2.8194,-2.8155,-2.8194,-2.8876,-2.9833,-3.0963,-3.1825,-3.2319,-3.2489,-3.2164,-3.1982,-3.1873,-3.1593,-3.1482,-3.1445,-3.1123,-3.0986,-3.0986,-3.0986,-3.0986,-3.0986,0.0,0.0,0.0,0.0,0.0,0.0,0.0,0.0,0.0,0.0,0.0,0.0,0.0,0.0,0.0,0.0,0.0,0.0,-1.65,0.0,0.0,-1.8845,-1.8846,-1.9121,-1.9798,-1.9682,-1.9682,-1.9798,-1.9798,-1.9656,-1.942,-1.942,-1.9263,-1.9025,-1.9025,-1.8987,-1.9049,-1.9579,-2.0057,-2.055,-2.1079,-2.162,-2.2089,-2.2089,-2.2125,-2.2197,-2.2197,-2.2197,-2.2197,-2.2197,-2.2197,0.0,0.0,0.0,-2.2197,-2.2197,-2.2197,-2.2197,0.0,0.0,-2.2197,0.0,-2.2197,-2.2197,0.0,0.0,-2.2426,-2.2883,-2.3809,-2.4508,-2.458,-2.4999,-2.5312,-2.5312,-2.5312,-2.5336,-2.5408,-2.5408,-2.5444,-2.5516,-2.5528,-2.5709,-2.6166,-2.6214,-2.6406,-2.6861,-2.6898,-2.6898,-2.6898,-2.6958,-2.7006,-2.7006,-2.7066,-2.7102,-2.7102,-2.695,-2.6862,-2.6862,-2.8014,-2.8988,-2.9835,-3.0067,-3.0748,-3.174,-3.1703,-3.1482,-3.1123,-3.1099,-3.1099,-3.1061,-3.1024,-3.0986,-3.0986,-3.0986,-3.0986,-3.0986,0.0,0.0,0.0,0.0,0.0,0.0,0.0,0.0,0.0,0.0,0.0,0.0,0.0,0.0,0.0,-1.65,-1.681,-1.7137,-1.7415,-1.799,-1.847,-1.8871,-1.912,-1.9394,-1.9682,-1.963,-1.9656,-1.9798,-1.9734,-1.9591,0.0,-1.9328,-1.9184,-1.8987,-1.8987,-1.9155,-1.9468,-2.0021,-2.0562,-2.1103,-2.1632,-2.1993,-2.2197,-2.2197,-2.2197,-2.2197,-2.2197,-2.2197,-2.2197,-2.2197,-2.2197,-2.2197,-2.2197,0.0,0.0,0.0,-2.2197,0.0,-2.2197,-2.2197,-2.2197,0.0,-2.2197,-2.2197,-2.2197,-2.2197,-2.2258,-2.2486,-2.3135,-2.3749,-2.4049,-2.4518,-2.4867,-2.4867,-2.5107,-2.5312,-2.5312,-2.5312,-2.5312,-2.5312,-2.5312,-2.5396,-2.5636,-2.5661,-2.5757,-2.6009,-2.5985,-2.5985,-2.5985,-2.631,-2.6466,-2.6466,-2.6729,-2.686,-2.6735,-2.6659,-2.6659,-2.6772,-2.7631,-2.835,-2.8902,-2.9306,-2.9901,-3.0619,-3.0712,-3.065,-3.0529,-3.0856,-3.0986,-3.0986,-3.0986,-3.0986,-3.0986,-3.0986,-3.0986,-3.0986,0.0,0.0,0.0,0.0,0.0,0.0,0.0,0.0,0.0,0.0,0.0,0.0,0.0,0.0,0.0,0.0,-1.7262,-1.7827,-1.838,-1.8745,-1.8971,-1.8995,-1.9328,-1.9539,-1.9617,-1.9565,-1.963,-1.9798,-1.9656,0.0,-1.9394,-1.9249,-1.9117,-1.8987,-1.8987,-1.9314,-1.9844,-2.037,-2.0911,-2.1452,-2.1981,-2.2197,-2.2197,-2.2197,-2.2197,-2.2197,-2.2197,-2.2197,-2.2197,-2.2197,-2.2197,-2.2197,-2.2197,-2.2197,0.0,0.0,0.0,0.0,0.0,0.0,-2.2197,-2.2197,-2.2197,-2.2197,0.0,0.0,-2.2197,-2.2197,-2.251,-2.2939,-2.3324,-2.3893,-2.4326,-2.4326,-2.4662,-2.4963,-2.5083,-2.5107,-2.5155,-2.5288,-2.5312,-2.5312,-2.5312,-2.5312,-2.5312,-2.5312,-2.5312,-2.5312,-2.5312,-2.5685,-2.5901,-2.5901,-2.6261,-2.6403,-2.6217,-2.6254,-2.6329,-2.644,-2.7163,-2.7634,-2.7921,-2.8537,-2.8991,-2.9233,-2.9695,-2.9879,-2.9918,-3.0372,-3.0555,-3.0555,-3.0555,-3.0555,-3.0555,-3.0555,-3.0555,-3.0555,0.0,0.0,0.0,0.0,0.0,0.0,0.0,0.0,0.0,0.0,0.0,0.0,-1.65,-1.7011,-1.736,-1.736,-1.784,-1.8392,-1.892,-1.8871,-1.9033,-1.9542,-1.933,0.0,-1.9591,-1.9486,-1.9539,-1.9798,-1.9656,0.0,-1.9394,-1.9249,-1.9117,-1.8987,-1.8987,-1.9314,-1.9844,-2.0374,-2.0928,-2.1452,-2.1981,-2.2197,-2.2197,-2.2197,-2.2197,-2.2197,-2.2197,-2.2197,-2.2197,-2.2197,-2.2197,-2.2197,-2.2197,-2.2197,-2.2197,0.0,0.0,0.0,0.0,-2.2197,0.0,-2.2197,-2.2197,0.0,0.0,-2.2197,-2.2197,-2.2197,-2.2209,-2.2246,-2.227,-2.3144,-2.3842,-2.3842,-2.3866,-2.4013,-2.4494,-2.452,-2.4712,-2.5252,-2.5312,-2.5312,-2.5312,-2.5312,-2.5312,-2.5312,-2.5312,-2.5312,-2.5312,-2.5336,-2.5348,-2.5348,-2.5384,-2.5325,-2.5159,-2.5289,-2.5277,-2.5099,-2.6238,-2.6768,-2.6802,-2.7346,-2.7581,-2.768,-2.883,-2.9327,-2.9327,-2.9401,-2.9401,-2.9401,-2.9401,-2.9401,-2.9401,-2.9401,-2.9401,-2.9401,0.0,0.0,0.0,0.0,0.0,0.0,0.0,0.0,0.0,0.0,0.0,0.0,0.0,-1.6916,-1.7366,-1.7632,-1.814,-1.8685,-1.9229,-1.9203,-1.9237,-1.9342,-1.9249,-1.9302,-1.9473,-1.942,-1.9486,-1.9656,-1.9539,-1.9394,-1.9275,-1.9131,-1.9052,-1.8987,-1.8987,-1.9495,-2.0326,-2.0519,-2.1121,-2.1921,-2.2113,-2.2197,-2.2197,-2.2197,-2.2197,-2.2197,-2.2197,-2.2197,-2.2197,-2.2197,-2.2197,-2.2197,-2.2197,-2.2197,-2.2197,-2.2197,0.0,0.0,0.0,0.0,0.0,-2.2197,-2.2197,-2.2197,-2.2197,-2.2197,-2.2197,-2.2197,-2.2197,-2.2197,-2.2197,-2.2806,-2.33,-2.33,-2.3589,-2.3866,-2.4047,-2.4037,-2.4109,-2.4302,-2.4326,-2.4326,-2.4326,-2.4326,-2.4326,-2.4326,-2.4326,-2.4326,-2.4326,-2.4626,-2.4807,-2.4807,-2.5131,-2.5182,-2.4921,-2.4849,-2.4862,-2.5004,-2.5791,-2.6358,-2.6714,-2.7255,-2.749,-2.7516,-2.7968,-2.836,-2.876,-2.9153,-2.931,-2.931,-2.931,-2.931,-2.931,-2.931,-2.931,-2.931,0.0,0.0,0.0,0.0,0.0,0.0,0.0,0.0,0.0,-1.5678,0.0,0.0,0.0,0.0,-1.7845,-1.8302,-1.8658,-1.9014,-1.937,-1.9368,-1.9302,-1.9208,-1.917,-1.9196,-1.9328,-1.9158,-1.9224,-1.9539,-1.9224,-1.9118,-1.9208,-1.9052,-1.8987,-1.8999,-1.9179,-1.9772,-2.0615,-2.0795,-2.1368,-2.2197,-2.2197,-2.2197,-2.2197,-2.2197,-2.2197,-2.2197,-2.2197,-2.2197,-2.2197,-2.2197,-2.2197,-2.2197,-2.2197,-2.2197,-2.2197,-2.2197,0.0,0.0,-2.2197,0.0,0.0,0.0,-2.2197,-2.2197,-2.2197,-2.2197,-2.2197,-2.2197,-2.2197,-2.2197,-2.2197,-2.2474,-2.2746,-2.2746,-2.3047,-2.3336,-2.3517,-2.3541,-2.3601,-2.3782,-2.3806,-2.3806,-2.3806,-2.3806,-2.3806,-2.3806,-2.3806,-2.3806,-2.3806,-2.4085,-2.4232,-2.4164,-2.443,-2.453,-2.4436,-2.4448,-2.4625,-2.5004,-2.5604,-2.6186,-2.6714,-2.7053,-2.7323,-2.749,-2.749,-2.7745,-2.8124,-2.8529,-2.8686,-2.8686,-2.8686,-2.8686,-2.8686,-2.8686,-2.8686,-2.8686,0.0,0.0,0.0,0.0,0.0,0.0,0.0,0.0,-1.6188,-1.5508,0.0,0.0,0.0,0.0,0.0,-1.9345,-1.9394,-1.9394,-1.9394,-1.9275,-1.9196,-1.9196,-1.9078,-1.9052,-1.9208,-1.8688,-1.8752,-1.9394,-1.8752,-1.8688,-1.9196,-1.9052,-1.8999,-1.9035,-1.9591,-2.0121,-2.0663,-2.1175,-2.1716,-2.2197,-2.2197,-2.2197,-2.2197,-2.2197,-2.2197,-2.2197,-2.2197,-2.2197,-2.2197,-2.2197,-2.2197,-2.2197,-2.2197,-2.2197,-2.2197,-2.2197,-2.2197,0.0,0.0,0.0,0.0,0.0,-2.2197,-2.2197,-2.2197,-2.2197,-2.2197,-2.2197,-2.2197,-2.2197,-2.2197,-2.2197,-2.2197,-2.2197,-2.2197,-2.2378,-2.2883,-2.2987,-2.318,-2.3697,-2.3758,-2.3758,-2.3758,-2.3758,-2.3758,-2.3758,-2.3758,-2.3758,-2.3758,-2.377,-2.3682,-2.3482,-2.3315,-2.3348,-2.37,-2.4059,-2.4481,-2.4933,-2.558,-2.6161,-2.6654,-2.6714,-2.7019,-2.749,-2.749,-2.749,-2.749,-2.749,-2.749,-2.749,-2.749,-2.749,-2.749,-2.749,-2.749,-2.749,0.0,0.0,0.0,0.0,0.0,0.0,-1.6056,-1.65,-1.6626,0.0,0.0,0.0,-1.7435,-1.8297,-1.8936,-1.9107,-1.9105,-1.9105,-1.9105,-1.9078,-1.9052,-1.9052,-1.9025,-1.9052,-1.9208,-1.905,-1.9077,-1.9249,-1.9077,-1.9012,-1.9052,-1.9025,-1.9218,-1.9615,-2.0141,-2.0682,-2.1187,-2.1344,-2.1716,-2.2197,-2.2197,-2.2197,-2.2197,-2.2197,-2.2197,-2.2197,-2.2197,-2.2197,-2.2197,-2.2197,-2.2197,-2.2197,-2.2197,-2.2197,-2.2197,-2.2197,-2.2197,0.0,-2.2197,0.0,0.0,0.0,0.0,0.0,-2.2197,-2.2197,-2.2197,-2.2197,-2.2197,-2.2197,-2.2197,-2.2197,-2.2197,-2.2197,-2.2197,-2.2246,-2.239,-2.2414,-2.2474,-2.265,-2.263,-2.263,-2.263,-2.263,-2.263,-2.263,-2.263,-2.2567,-2.2428,-2.2701,-2.3015,-2.3327,-2.3305,-2.3263,-2.3188,-2.3302,-2.3338,-2.3363,-2.4691,-2.5419,-2.5567,-2.676,-2.7356,-2.749,-2.749,-2.749,-2.749,-2.749,-2.749,-2.749,-2.749,-2.749,-2.749,-2.749,-2.749,-2.749,0.0,0.0,0.0,0.0,0.0,-1.6122,-1.6122,-1.6575,-1.6785,0.0,0.0,0.0,-1.8162,-1.8678,-1.8987,-1.8987,-1.8987,-1.8987,-1.8987,-1.8987,-1.8987,-1.8987,-1.8987,-1.9052,-1.9105,-1.8899,-1.8887,-1.9117,-1.8887,-1.8861,-1.8987,-1.8987,-1.9302,-1.9832,-2.037,0.0,-2.1416,-2.1644,-2.1909,-2.2197,-2.2197,-2.2197,-2.2197,-2.2197,-2.2197,-2.2197,-2.2197,-2.2197,-2.2197,-2.2197,-2.2197,-2.2197,-2.2197,-2.2197,-2.2197,-2.2197,-2.2197,0.0,0.0,0.0,0.0,-2.2197,0.0,0.0,-2.2197,-2.2197,-2.2197,-2.2197,-2.2197,-2.2197,-2.2197,-2.2197,-2.2197,-2.2197,-2.2197,-2.2197,-2.2197,-2.2197,-2.2197,-2.2197,-2.2197,-2.2197,-2.2197,-2.2197,-2.2154,-2.2092,-2.2061,-2.1999,-2.1812,-2.2044,-2.2274,-2.2503,-2.2514,-2.2521,-2.2531,-2.2542,-2.2579,-2.2719,-2.3644,-2.4215,-2.4484,-2.5607,-2.6268,-2.6524,-2.6967,-2.717,-2.7183,-2.7398,-2.749,-2.749,-2.749,-2.749,-2.749,-2.749,-2.749,-2.749,0.0,0.0,-1.5836,-1.5957,-1.6027,-1.6064,-1.6064,-1.6561,-1.6903,0.0,-1.7664,-1.847,-1.8939,-1.8987,-1.8987,-1.8987,-1.8987,-1.8987,-1.8987,-1.8987,-1.8987,-1.8987,-1.8987,-1.8987,-1.8987,-1.853,-1.8518,-1.8987,-1.8518,-1.853,-1.8987,-1.9047,-1.9387,-1.9916,0.0,0.0,-2.1524,-2.1993,-2.2197,-2.2197,-2.2197,-2.2197,-2.2197,-2.2197,-2.2197,-2.2197,-2.2197,-2.2197,-2.2197,-2.2197,-2.2197,-2.2197,-2.2092,-2.2123,-2.2185,-2.2092,-2.2123,0.0,0.0,0.0,0.0,-2.2197,-2.2197,0.0,-2.2197,-2.2197,-2.2197,-2.2197,-2.2197,-2.2197,-2.2197,-2.2197,-2.2197,-2.2197,-2.2197,-2.2197,-2.2197,-2.2197,-2.2197,-2.2197,-2.2197,-2.2197,-2.2197,-2.2185,-2.2092,-2.1894,-2.1862,-2.1781,-2.1655,-2.1635,-2.1549,-2.1388,-2.1388,-2.1525,-2.1802,-2.1814,-2.2065,-2.2546,-2.2694,-2.3042,-2.3517,-2.4092,-2.4661,-2.5237,-2.62,-2.6614,-2.6654,-2.7131,-2.7385,-2.749,-2.749,-2.749,-2.749,-2.749,-2.749,-2.749,0.0,-1.5748,-1.5814,-1.5836,-1.6208,-1.6474,-1.6474,-1.7303,-1.7918,-1.7893,-1.8446,-1.8867,-1.8987,-1.8987,-1.8987,-1.8987,-1.8987,-1.8987,-1.8987,-1.8987,-1.8987,-1.8987,-1.8987,-1.8987,-1.8987,-1.8891,-1.8891,-1.8987,-1.8891,-1.8891,-1.8999,-1.9447,-1.9929,-2.047,-2.0995,-2.1548,-2.2041,-2.2149,-2.2197,-2.2197,-2.2197,-2.2197,-2.2197,-2.2197,-2.2197,-2.2197,-2.2197,-2.2197,-2.2197,-2.2197,-2.2197,-2.2092,-2.1494,-2.1726,-2.2092,-2.1494,-2.1726,-2.2197,-2.2197,-2.2197,-2.2197,-2.2197,-2.2197,0.0,-2.2197,-2.2197,-2.2197,-2.2197,-2.2197,-2.2197,-2.2197,-2.2197,-2.2197,-2.2197,-2.2197,-2.2197,-2.2197,-2.2197,-2.2197,-2.2197,-2.2197,-2.2197,-2.2197,-2.2061,-2.1925,-2.1894,-2.1663,-2.1494,-2.1463,-2.1348,-2.1296,-2.1253,-2.1253,-2.1267,-2.1339,-2.1339,-2.1397,-2.15,-2.2755,-2.3408,-2.3548,-2.4887,-2.556,-2.5667,-2.5879,-2.5994,-2.5963,-2.608,-2.6667,-2.749,-2.749,-2.749,-2.749,-2.749,-2.749,-2.749,-1.5446,-1.5838,-1.6211,-1.6211,-1.6643,-1.7087,-1.7351,-1.7857,-1.8301,-1.8554,-1.8819,-1.8987,-1.8987,-1.8987,-1.8987,-1.8987,-1.8987,-1.8987,-1.8987,-1.8987,-1.8987,-1.8987,-1.8987,-1.8987,-1.8987,-1.8987,-1.8987,-1.8987,-1.8987,-1.9158,-1.9396,-1.9676,-1.9991,-2.0387,-2.1081,-2.1468,-2.1588,-2.2018,-2.2197,-2.2197,-2.2197,-2.2197,-2.2197,-2.2197,-2.2197,-2.2197,-2.2197,-2.2197,-2.2197,-2.2197,-2.2197,-2.2061,-2.1325,-2.1356,-2.16,-2.1198,-2.1356,-2.1726,-2.2092,-2.2197,-2.2197,-2.2197,-2.2197,0.0,0.0,-2.2197,-2.2092,-2.1651,-2.1588,-2.1494,-2.0965,-2.0921,-2.1123,-2.1482,-2.1557,-2.1651,-2.1999,-2.2123,-2.2197,-2.2197,-2.2197,-2.2197,-2.2197,-2.2092,-2.1968,-2.1812,-2.1486,-2.1305,-2.1305,-2.1253,-2.119,-2.119,-2.119,-2.119,-2.119,-2.119,-2.119,-2.1201,-2.1973,-2.2471,-2.2722,-2.3492,-2.414,-2.4622,-2.488,-2.5164,-2.5419,-2.5707,-2.6132,-2.6641,-2.6641,-2.6857,-2.7105,-2.7105,-2.7288,-2.749,-1.5394,-1.6043,-1.6631,-1.6739,-1.7195,-1.7712,-1.8133,-1.8289,-1.8506,-1.8939,-1.8987,-1.8987,-1.8987,-1.8987,-1.8987,-1.8987,-1.8881,-1.8881,-1.8987,-1.8881,-1.8881,-1.8987,-1.8987,-1.8987,-1.8987,-1.8987,-1.9035,-1.9143,-1.9143,-1.9447,-1.9965,-2.0073,-2.018,-2.0408,-2.1187,-2.1398,0.0,-2.1894,-2.2123,-2.1987,-2.1987,-2.2061,-2.2185,-2.203,-2.2092,-2.2197,-2.2197,-2.2197,-2.2185,-2.203,-2.2092,-2.2018,-2.0996,-2.0869,-2.106,-2.0933,-2.0996,-2.1262,-2.1999,-2.2197,-2.2197,-2.2197,-2.2197,-2.2197,0.0,0.0,0.0,-2.1219,-2.106,-2.0794,-1.9868,-1.9727,-1.9901,-2.0435,-2.0587,-2.0792,-2.126,-2.1667,-2.1956,-2.2104,-2.2166,-2.2185,-2.2166,-2.2135,-2.1968,-2.1635,-2.136,-2.119,-2.119,-2.119,-2.119,-2.119,-2.119,-2.119,-2.119,-2.119,-2.119,-2.119,-2.1285,-2.1514,-2.1908,-2.2002,-2.2476,-2.3253,-2.3712,-2.419,-2.471,-2.5148,-2.5343,-2.5356,-2.567,-2.6112,-2.6549,-2.6549,-2.6804,-2.7163,-1.6441,-1.6512,-1.6751,-1.7219,-1.776,-1.8133,-1.8193,-1.8602,-1.8915,-1.8987,-1.8987,-1.8987,-1.8987,-1.8987,-1.8987,-1.8987,-1.8509,-1.8429,-1.896,-1.8509,-1.8429,-1.8999,-1.8987,-1.8987,-1.8987,-1.8987,-1.9215,-1.9724,-1.9724,-1.9973,-2.0538,-2.0995,-2.1224,-2.1296,-2.1854,-2.2106,-2.2061,-2.2166,-2.1819,-2.123,-2.123,-2.1632,-2.2123,-2.1463,-2.162,-2.2197,-2.2197,-2.2197,-2.2092,-2.1463,-2.1663,-2.1862,-1.9857,-2.0085,-2.0965,-2.0387,-2.0613,-2.1262,-2.1999,-2.2197,-2.2197,-2.2197,-2.2197,-2.2154,-2.1956,0.0,-2.2092,-2.1686,0.0,-2.0826,-2.0526,0.0,0.0,-1.9158,-1.9437,-1.9555,-1.9274,-2.0131,-2.1028,-2.1698,-2.2011,-2.2123,-2.1968,-2.1812,-2.1624,-2.1296,-2.1233,-2.119,-2.119,-2.119,-2.119,-2.119,-2.119,-2.119,-2.119,-2.119,-2.119,-2.1201,-2.1608,-2.1846,-2.1908,-2.2329,-2.2561,-2.2695,-2.2757,-2.308,-2.3594,-2.3658,-2.3683,-2.3803,-2.5234,-2.5832,-2.5884,-2.5884,-2.5923,-2.5926,-1.7027,-1.7303,0.0,-1.7832,-1.8301,-1.8662,-1.8662,-1.8855,-1.8987,-1.8987,-1.8987,-1.8987,-1.8987,-1.8987,-1.8854,-1.8509,-1.8575,-1.8575,-1.8483,-1.8575,-1.8735,-1.8987,-1.8987,-1.9158,-1.9471,-1.9444,-1.972,-2.0261,-2.0261,-2.055,-2.1079,-2.1296,-2.1307,-2.1117,-2.1432,-2.123,-2.0655,-2.1293,-2.1092,-2.0398,-2.0901,-2.104,-2.0976,-2.1071,-2.1293,-2.1557,-2.1557,-2.1305,-2.0976,-2.1071,-2.104,-2.0752,-1.9408,-1.9398,-1.9824,-1.954,-1.9661,-2.0053,-2.0784,-2.0901,-2.0826,-2.0944,-2.1198,-2.142,-2.1348,-2.14,-2.123,-2.0463,0.0,0.0,0.0,0.0,0.0,0.0,-1.8647,-1.8841,-1.9101,-1.9975,-2.0698,-2.1008,-2.1549,-2.1886,-2.1781,-2.1643,-2.1474,-2.1336,-2.1253,-2.119,-2.119,-2.119,-2.119,-2.119,-2.119,-2.119,-2.119,-2.119,-2.119,-2.119,-2.14,-2.1651,-2.1908,-2.1827,-2.2082,-2.2592,-2.2298,-2.2494,-2.2932,-2.2932,-2.2932,-2.3012,-2.3676,-2.416,-2.4463,-2.4463,-2.4697,-2.4956,-1.7659,0.0,0.0,-1.832,-1.8668,-1.8881,-1.8881,-1.8934,-1.8987,-1.8946,-1.8999,-1.8987,-1.8987,-1.8854,-1.8655,-1.8375,-1.8429,-1.8456,-1.8348,-1.8731,-1.8917,-1.8774,-1.9195,-1.9485,-1.9547,-1.9869,-2.0273,-2.0827,-2.0827,-2.1103,-2.162,-2.162,-2.1495,-2.125,-2.1356,-2.0858,-1.9998,-2.0762,-2.0494,-1.9639,-2.0279,-2.0215,-1.9868,-2.0549,-2.0709,-2.0537,-2.0741,-2.0516,-2.0128,-2.042,-2.0355,-1.9933,-1.9011,-1.8844,-1.9011,-1.9011,-1.8967,-1.91,-1.9901,-1.9944,-1.9868,-2.0063,-2.0344,-2.059,-2.056,-2.0537,-2.0268,-1.9398,-1.88,0.0,0.0,0.0,-1.7301,-1.7894,0.0,-1.8372,-1.8956,-1.9868,-2.0473,-2.0473,-2.0987,-2.1328,-2.1328,-2.121,-2.1103,-2.104,-2.1146,-2.119,-2.119,-2.119,-2.119,-2.119,-2.119,-2.119,-2.119,-2.119,-2.119,-2.119,-2.119,-2.138,-2.1702,-2.1348,-2.1577,-2.2218,-2.1858,-2.197,-2.2421,-2.2421,-2.2421,-2.2421,-2.2421,-2.2615,-2.2904,-2.3156,-2.3527,-2.3885,-1.8472,-1.8151,0.0,-1.8652,-1.8694,-1.8614,-1.8614,-1.8827,-1.8946,-1.8825,-1.8919,-1.8987,-1.8987,-1.8483,-1.8348,-1.8934,-1.7929,-1.7765,-1.8907,-1.8924,-1.8665,-1.8143,-1.9677,-2.0042,-1.8947,-2.0013,-2.0851,-2.138,-2.138,-2.1644,-2.2161,-2.2161,-2.2173,-2.2166,-2.2154,-2.1757,-2.106,-2.1092,-2.0312,-1.9044,-1.9077,-1.9034,-1.911,-1.9835,-1.9704,-1.9177,-1.9868,-2.0139,-1.9998,-1.9309,-1.954,-1.9868,-1.8472,-1.8496,-1.9011,-1.9011,-1.8911,-1.9,-1.9868,-1.9944,-1.9868,-2.0063,-1.9977,-1.9803,-1.965,-1.9574,-1.9442,-1.9067,-1.859,-1.8176,-1.7993,-1.7407,-1.7011,-1.7366,-1.7738,0.0,0.0,-1.9404,-2.0139,-2.0139,-2.0302,-2.042,-2.042,-2.0431,-2.0355,-2.0161,-2.0796,-2.119,-2.119,-2.119,-2.119,-2.119,-2.119,-2.119,-2.119,-2.119,-2.119,-2.119,-2.119,-2.1221,-2.1221,-2.1221,-2.1233,-2.1253,-2.1221,-2.1494,-2.1908,-2.1908,-2.1908,-2.1908,-2.1908,-2.1651,-2.1371,-2.2292,-2.2641,-2.2592,0.0,0.0,0.0,0.0,-1.8706,-1.8759,-1.8854,-1.8934,-1.8854,-1.8375,-1.8387,-1.8267,-1.7847,-1.7984,-1.8011,-1.7847,-1.8186,-1.8351,-1.8295,-1.9039,-1.9089,-1.82,-1.9738,-2.0106,-1.8973,-2.0374,-2.0948,-2.0536,-2.0976,-2.1069,-2.0816,-2.1262,-2.1463,-2.1463,-2.1463,-2.1028,-2.0225,-2.0225,-1.9442,-1.8148,-1.8293,-1.8327,-1.8371,-1.863,-1.8821,-1.9011,-1.9166,-1.8934,-1.8533,-1.8633,-1.8553,-1.8327,-1.792,-1.7944,-1.8182,-1.8293,-1.8216,-1.8138,-1.8432,-1.8297,-1.8162,-1.8432,-1.8623,-1.877,-1.8857,-1.8747,-1.8569,-1.8365,-1.7799,-1.7329,-1.727,-1.7476,-1.7658,-1.7773,-1.7905,-1.8012,0.0,-1.8475,-1.8867,-1.9299,-2.0291,-2.0732,-2.0258,-2.0624,-2.0892,-2.0828,-2.1063,-2.119,-2.119,-2.119,-2.119,-2.119,-2.119,-2.119,-2.119,-2.119,-2.119,-2.119,-2.119,-2.119,-2.119,-2.119,-2.119,-2.119,-2.119,-2.1285,-2.1431,-2.1431,-2.1431,-2.1431,-2.1431,-2.1348,-2.1221,-2.1557,-2.1671,-2.1639,-1.7556,-1.7936,-1.8356,-1.856,-1.8706,-1.8825,-1.8854,-1.8721,-1.8467,-1.8077,-1.7875,-1.7617,-1.723,-1.7506,-1.764,-1.747,-1.8064,-1.8447,-1.8485,-1.9054,-1.9084,-1.8289,-1.9531,-1.9728,-1.8627,-2.0073,-2.0551,-1.9987,-2.0516,-2.0516,-2.0096,-2.0773,-2.1092,-2.1092,-2.1092,-2.0634,-1.9792,-1.9541,-1.879,-1.7706,-1.794,-1.8008,-1.7974,-1.794,-1.8226,-1.862,-1.8476,-1.8104,-1.774,-1.8046,-1.7862,-1.7539,-1.7647,-1.7681,-1.7647,-1.7828,-1.7716,-1.7545,-1.7613,-1.7407,-1.727,-1.7545,-1.7731,-1.7881,-1.8003,-1.7891,-1.7721,-1.7638,-1.7235,-1.6908,-1.6908,-1.7304,-1.7696,-1.7969,-1.8003,-1.807,0.0,-1.8375,-1.8432,-1.861,-1.9464,-1.9966,-1.9737,-2.0139,-2.0528,-2.0796,-2.1063,-2.119,-2.119,-2.119,-2.119,-2.119,-2.119,-2.119,-2.119,-2.119,-2.119,-2.119,-2.119,-2.119,-2.119,-2.119,-2.119,-2.119,-2.119,-2.119,-2.119,-2.119,-2.119,-2.119,-2.119,-2.119,-2.119,-2.119,-2.119,-2.119,-1.7909,-1.803,-1.8166,-1.8479,-1.8679,-1.8732,-1.864,-1.8209,-1.7881,-1.7854,-1.7435,-1.7157,-1.7179,-1.706,-1.7226,-1.7865,-1.7608,-1.7989,-1.9324,-1.8947,-1.8595,-1.8366,-1.9094,-1.898,-1.7906,-1.9155,-1.9759,-1.9694,-1.9922,-2.0042,-1.9998,-2.0677,-2.1028,-2.106,-2.106,-2.059,-1.9759,-1.9056,-1.8365,-1.7672,-1.7896,-1.7974,-1.7974,-1.7784,-1.7818,-1.794,-1.775,-1.7672,-1.7681,-1.7529,-1.747,-1.7495,-1.7647,-1.7588,-1.7529,-1.7647,-1.7476,-1.7235,-1.7426,-1.7358,-1.7235,-1.7426,-1.7314,-1.7201,-1.7201,-1.7038,-1.6908,-1.6908,-1.6908,-1.6908,-1.6908,-1.6968,-1.721,-1.7901,-1.8003,-1.8196,-1.88,-1.8911,-1.8667,-1.8007,-1.7959,-1.824,-1.8877,-1.9011,-1.9342,-2.0063,-2.0764,-2.119,-2.119,-2.119,-2.119,-2.119,-2.119,-2.119,-2.119,-2.119,-2.119,-2.119,-2.119,-2.119,-2.119,-2.119,-2.119,-2.119,-2.119,-2.119,-2.119,-2.119,-2.119,-2.119,-2.119,-2.119,-2.119,-2.119,-2.119,-2.119,-1.6736,-1.6972,-1.7307,-1.7831,-1.8333,-1.8706,-1.8854,-1.8344,-1.7733,-1.729,-1.6662,-1.637,-1.671,-1.6682,-1.7005,-1.7976,-1.7927,-1.7945,-1.8154,-1.8501,-1.8337,-1.7527,-1.879,-1.8829,-1.7417,-1.8984,-1.93,-1.823,-1.8934,-1.9021,-1.8563,-1.9243,-1.9824,-2.0355,-2.0355,-2.0139,-1.9759,-1.8924,-1.8104,-1.7339,-1.7647,-1.7725,-1.7632,-1.7681,-1.7691,-1.7598,-1.7407,-1.7417,-1.7495,-1.7185,-1.7151,-1.7314,-1.7495,-1.7529,-1.7529,-1.7647,-1.7588,-1.7392,-1.7314,-1.7141,-1.7038,-1.7245,-1.7141,-1.7003,-1.7166,-1.7038,-1.6908,-1.6908,-1.6908,-1.6908,-1.6908,-1.7774,-1.8375,-1.8037,-1.8003,-1.7867,-1.751,-1.7442,-1.726,-1.6799,-1.748,-1.807,-1.824,-1.9199,-1.9901,-2.0107,-2.0764,-2.119,-2.119,-2.119,-2.119,-2.119,-2.119,-2.119,-2.119,-2.119,-2.119,-2.119,-2.119,-2.119,-2.119,-2.119,-2.119,-2.119,-2.119,-2.119,-2.119,-2.119,-2.119,-2.119,-2.119,-2.119,-2.119,-2.119,-2.119,-2.119,-1.7056,-1.7224,-1.7512,-1.7925,-1.8034,-1.817,-1.8414,-1.7779,-1.7188,-1.6911,-1.6415,-1.6216,-1.6493,-1.6564,-1.6857,-1.7464,-1.76,-1.776,-1.8041,-1.7962,-1.7829,-1.7643,-1.8085,-1.7959,-1.7107,-1.8118,-1.8331,-1.7623,-1.8148,-1.8283,-1.8008,-1.8687,-1.921,-1.9606,-1.9606,-1.9529,-1.9311,-1.8442,-1.7784,-1.7358,-1.7554,-1.7564,0.0,-1.7476,-1.7442,-1.7358,-1.7141,-1.721,-1.7323,-1.7012,-1.6968,-1.7107,-1.7314,-1.7323,-1.7289,-1.7442,-1.7382,-1.722,-1.7107,-1.7003,-1.6943,-1.7038,-1.6968,-1.6943,-1.7038,-1.6968,-1.6908,-1.6908,-1.6908,-1.6908,-1.6908,-1.7545,-1.7978,-1.7569,-1.7501,-1.7307,-1.6704,-1.6652,-1.6496,-1.6092,-1.6585,-1.6983,-1.6983,-1.8871,-1.9824,-1.9147,-2.0187,-2.0743,-2.048,-2.0711,-2.0971,-2.119,-2.119,-2.119,-2.119,-2.119,-2.119,-2.119,-2.119,-2.119,-2.119,-2.119,-2.119,-2.119,-2.119,-2.119,-2.119,-2.119,-2.119,-2.119,-2.119,-2.119,-2.119,-2.119,-2.119,-2.119,-1.776,-1.7799,-1.7877,-1.8203,-1.7573,-1.7172,-1.7556,-1.689,-1.6457,-1.6607,-1.6408,-1.6313,-1.6513,-1.6641,-1.6783,-1.694,-1.7068,-1.7478,-1.8244,-1.7407,-1.7235,-1.8007,-1.7295,-1.6908,-1.6908,-1.7107,-1.7314,-1.7505,-1.7613,-1.7784,-1.8008,-1.8586,0.0,0.0,0.0,0.0,-1.8566,-1.7759,-1.7436,-1.7436,-1.747,-1.7426,-1.7401,-1.7279,-1.7166,-1.7132,-1.6968,-1.7038,-1.7166,-1.6968,-1.6908,-1.6968,-1.7132,-1.7072,-1.6968,-1.7132,-1.7072,-1.6943,-1.6908,-1.6908,-1.6908,-1.6908,-1.6908,-1.6908,-1.6908,-1.6908,-1.6908,-1.6908,-1.6908,-1.6908,-1.6908,-1.6908,-1.6943,-1.7038,-1.6932,-1.6707,-1.6367,-1.6233,-1.6083,-1.5661,-1.5748,0.0,-1.5542,-1.8031,-1.9116,-1.7771,-1.9243,-1.996,-1.9423,-1.9972,-2.0515,-2.0983,-2.1006,-2.0963,-2.0931,-2.0963,-2.0963,-2.0931,-2.0963,-2.1006,-2.1006,-2.1006,-2.1006,-2.1006,-2.1006,-2.1006,-2.1006,-2.1006,-2.104,-2.1098,-2.1167,-2.119,-2.119,-2.119,-2.119,-2.119,-1.6595,-1.6293,-1.6331,-1.7257,-1.6163,-1.5605,-1.6839,-1.6297,-1.589,-1.6237,-1.5725,-1.5798,-1.7093,-1.6722,-1.675,-1.7721,-1.7269,-1.7033,-1.7166,-1.7003,-1.6968,-1.7132,-1.6968,-1.6908,-1.6908,-1.7107,-1.7314,-1.7505,-1.7613,-1.7784,-1.8008,-1.811,-1.8462,0.0,0.0,0.0,-1.7701,-1.722,-1.7012,-1.7012,-1.7176,-1.7141,-1.7012,-1.7141,-1.7107,-1.6943,-1.6908,-1.7038,-1.7166,-1.6968,-1.7003,-1.7132,-1.7201,-1.7166,-1.7132,-1.7201,-1.7166,-1.7107,-1.6943,-1.6908,-1.6908,-1.6908,-1.6908,-1.6908,-1.6908,-1.6908,-1.6908,-1.6908,-1.6908,-1.6908,-1.6908,-1.6908,-1.7107,-1.7706,-1.7022,-1.6361,-1.6297,-1.6019,-1.5652,-1.5249,-1.6024,-1.6093,-1.4842,-1.6342,-1.7278,-1.7002,-1.8243,-1.8956,-1.8835,-1.9452,-1.9861,-1.9953,-1.9953,-1.9821,-1.9539,-1.9821,-1.9821,-1.9539,-1.9821,-1.9953,-1.9953,-1.9953,-1.9953,-1.9953,-1.9953,-1.9953,-1.9953,-1.9953,-2.0182,-2.0584,-2.1029,-2.119,-2.119,-2.119,-2.119,-2.119,-1.6583,-1.642,-1.6443,-1.6943,-1.6297,-1.5837,-1.6359,-1.6007,-1.5821,-1.6354,-1.628,-1.6473,-1.7226,-1.6887,-1.6825,-1.7389,-1.7107,-1.6908,-1.6908,-1.6908,-1.6908,-1.6908,-1.6908,-1.6908,-1.6908,-1.7003,-1.7141,-1.7348,-1.752,-1.7691,-1.7862,-1.794,-1.8168,-1.8462,0.0,-1.7725,-1.747,-1.7176,-1.7072,-1.7038,-1.7038,-1.7003,-1.6908,-1.7003,-1.6968,-1.6908,-1.6908,-1.6968,-1.7038,-1.6943,-1.6968,-1.7038,-1.7038,-1.7038,-1.7038,-1.7038,-1.7038,-1.7003,-1.6943,-1.6908,-1.6908,-1.6908,-1.6908,-1.6908,-1.6908,-1.6908,-1.6908,-1.6908,-1.6908,-1.6908,-1.6908,-1.6908,-1.7012,-1.7373,-1.6797,-1.6239,-1.6028,-1.557,-1.5146,-1.4723,-1.517,-1.5203,-1.4453,-1.5128,-1.5598,-1.5598,-1.692,-1.7617,-1.7406,-1.8194,-1.881,-1.9157,-1.9529,-1.9629,-1.947,-1.9629,-1.9629,-1.947,-1.9629,-1.9688,-1.9688,-1.9688,-1.9688,-1.9688,-1.9688,-1.9688,-1.9688,-1.9688,-1.9975,-2.0435,-2.0676,-2.0728,-2.0624,-2.0624,-2.0399,-2.0172,-1.6719,-1.6734,-1.6737,-1.6869,-1.6572,-1.6292,-1.6278,-1.6014,-1.6002,-1.6457,-1.6816,-1.7039,-1.7132,-1.7003,-1.6908,-1.6908,-1.6908,-1.6908,-1.6908,-1.6908,-1.6908,-1.6908,-1.6908,-1.6908,-1.6908,-1.6908,-1.7003,-1.7201,-1.7358,-1.7482,-1.7581,-1.7789,-1.7906,-1.7872,-1.7681,-1.7545,-1.7426,-1.721,-1.7132,-1.7132,-1.6968,-1.6908,-1.6908,-1.6908,-1.6908,-1.6908,-1.6908,-1.6908,-1.6908,-1.6908,-1.6908,-1.6908,-1.6908,-1.6908,-1.6908,-1.6908,-1.6908,-1.6908,-1.6908,-1.6908,-1.6908,-1.6908,-1.6908,-1.6908,-1.6908,-1.6908,-1.6908,-1.6908,-1.6908,-1.6908,-1.6908,-1.6835,-1.678,-1.678,-1.6343,-1.588,-1.5574,-1.5096,-1.4641,-1.4273,-1.4297,-1.4297,-1.4237,-1.4357,-1.4455,-1.4387,-1.5693,-1.6347,-1.5998,-1.6869,-1.7653,-1.8267,-1.8707,-1.8965,-1.8965,-1.9064,-1.9064,-1.8965,-1.9122,-1.9221,-1.928,-1.928,-1.9309,-1.9367,-1.9367,-1.9367,-1.9367,-1.9482,-1.9714,-2.0038,-2.012,-2.0041,-1.9868,-1.9868,-1.9507,-1.9177,-1.6407,-1.6206,-1.6254,-1.6812,-1.5985,-1.5673,-1.6899,-1.6628,-1.6276,-1.6312,-1.6349,-1.6505,-1.6897,-1.6908,-1.6908,-1.6908,-1.6908,-1.6908,-1.6908,-1.6908,-1.6908,-1.6908,-1.6908,-1.6908,-1.6908,-1.6908,-1.7003,-1.7201,-1.7235,-1.7184,-1.7158,-1.7426,-1.7539,-1.7539,-1.7348,-1.7235,-1.7201,-1.7003,-1.6943,-1.6943,-1.6908,-1.6908,-1.6908,-1.6908,-1.6908,-1.6908,-1.6908,-1.6908,-1.6908,-1.6908,-1.6908,-1.6908,-1.6908,-1.6908,-1.6908,-1.6908,-1.6908,-1.6908,-1.6908,-1.6908,-1.6908,-1.6908,-1.6908,-1.6908,-1.6908,-1.6908,-1.6908,-1.6908,-1.6908,-1.6908,-1.6908,-1.6615,-1.6376,-1.6376,-1.5619,-1.5015,-1.497,-1.4626,-1.4273,-1.4049,-1.4297,-1.4357,-1.407,-1.4198,-1.4237,-1.407,-1.498,-1.5469,-1.5293,-1.5904,-1.647,-1.6949,-1.6636,-1.6493,-1.6608,-1.6931,-1.6931,-1.6608,-1.7179,-1.7584,-1.7885,-1.7885,-1.8012,-1.826,-1.826,-1.826,-1.8295,-1.8782,-1.8904,-1.8805,-1.9242,-1.9287,-1.91,-1.91,-1.9077,-1.9011,-1.589,-1.5885,-1.5983,-1.6439,-1.6327,-1.63,-1.6616,-1.6649,-1.667,-1.667,-1.667,-1.6734,-1.689,-1.6908,-1.6908,-1.6908,-1.6908,-1.6908,-1.6908,-1.6908,-1.6908,-1.6908,-1.6908,-1.6908,-1.6908,-1.6908,-1.6934,-1.7003,-1.7132,-1.7185,-1.7171,-1.7385,-1.7426,-1.7314,-1.7245,-1.7132,-1.7003,-1.6943,-1.6908,-1.6908,-1.6908,-1.6908,-1.6908,-1.6908,-1.6908,-1.6908,-1.6908,-1.6908,-1.6908,-1.6908,-1.6908,-1.6908,-1.6908,-1.6908,-1.6908,-1.6908,-1.6908,-1.6908,-1.6908,-1.6908,-1.6908,-1.6908,-1.6908,-1.6908,-1.6908,-1.6908,-1.6908,-1.6908,-1.6908,-1.6835,-1.6597,-1.6422,-1.6206,-1.5884,-1.5301,-1.4844,-1.4742,-1.4289,-1.3959,-1.389,-1.401,-1.4019,-1.389,-1.4019,-1.4049,-1.389,-1.424,-1.444,-1.4478,-1.4982,-1.5371,-1.5661,-1.5843,-1.5958,-1.5987,-1.613,-1.613,-1.5987,-1.6255,-1.6425,-1.6578,-1.6578,-1.6888,-1.7429,-1.714,-1.7224,-1.754,-1.7392,-1.7474,-1.7747,-1.8183,-1.8205,-1.8081,-1.8308,-1.8104,-1.774,-1.5579,-1.579,-1.5964,-1.6266,-1.6517,-1.6679,-1.6514,-1.6734,-1.6908,-1.6908,-1.6908,-1.6908,-1.6908,-1.6908,-1.6908,-1.6908,-1.6908,-1.6908,-1.6908,-1.6908,-1.6908,-1.6908,-1.6908,-1.6908,-1.6908,-1.6908,-1.6908,-1.6908,-1.7038,-1.7076,-1.6989,-1.7135,-1.7167,-1.7107,-1.7107,-1.7038,-1.6908,-1.6908,-1.6908,-1.6908,-1.6908,-1.6908,-1.6908,-1.6908,-1.6908,-1.6908,-1.6908,-1.6908,-1.6908,-1.6908,-1.6908,-1.6908,-1.6908,-1.6908,-1.6908,-1.6908,-1.6908,-1.6908,-1.6908,-1.6908,-1.6908,-1.6908,-1.6908,-1.6908,-1.6908,-1.6908,-1.6908,-1.6908,-1.6817,-1.6652,-1.6334,-1.6054,-1.5765,-1.5401,-1.4894,-1.4519,-1.4378,-1.4026,-1.3769,-1.3731,-1.3791,-1.383,-1.3731,-1.386,-1.389,-1.3731,-1.37,-1.3791,-1.392,-1.4252,-1.454,-1.4776,-1.507,-1.5274,-1.542,-1.542,-1.542,-1.542,-1.5507,-1.5594,-1.568,-1.5767,-1.6112,-1.6634,-1.6312,-1.6443,-1.6828,-1.6415,-1.6436,-1.6808,-1.7083,-1.7163,-1.7119,-1.7418,-1.7235,-1.6908,-1.5689,-1.6028,-1.6279,-1.6288,-1.6288,-1.6425,-1.6844,-1.6899,-1.6908,-1.6908,-1.6908,-1.6908,-1.6908,-1.6908,-1.6908,-1.6908,-1.6908,-1.6908,-1.6908,-1.6908,-1.6908,-1.6908,-1.6908,-1.6908,-1.6908,-1.6908,-1.6908,-1.6908,-1.6908,-1.6766,-1.6518,-1.6518,-1.664,-1.6908,-1.6908,-1.6908,-1.6908,-1.6908,-1.6908,-1.6908,-1.6908,-1.6908,-1.6908,-1.6908,-1.6908,-1.6908,-1.6908,-1.6908,-1.6908,-1.6908,-1.6908,-1.6908,-1.6908,-1.6908,-1.6908,-1.6908,-1.6908,-1.6908,-1.6908,-1.6908,-1.6908,-1.6908,-1.6908,-1.6908,-1.6908,-1.6908,-1.6908,-1.6908,-1.6597,-1.6321,-1.6288,-1.5533,-1.4925,-1.4916,-1.4276,-1.3808,-1.3808,-1.3799,-1.3731,-1.3541,-1.3791,-1.3881,-1.3541,-1.367,-1.3731,-1.3511,-1.3511,-1.3601,-1.3799,-1.3799,-1.4031,-1.4499,-1.4061,-1.4061,-1.4499,-1.4529,-1.4529,-1.4529,-1.4775,-1.5089,-1.541,-1.568,-1.5825,-1.5815,-1.5815,-1.593,-1.612,-1.6102,-1.6076,-1.6005,-1.6015,-1.6151,-1.6312,-1.6321,-1.6569,-1.6908,-1.6065,-1.6221,-1.6404,-1.667,-1.6716,-1.6762,-1.689,-1.6908,-1.6908,-1.6908,-1.6908,-1.6908,-1.6908,-1.6908,-1.6908,-1.6908,-1.6908,-1.6908,-1.6908,-1.6908,-1.6908,-1.6908,-1.6908,-1.6908,-1.6908,-1.6908,-1.6908,-1.6908,-1.6908,-1.6879,-1.6775,-1.6775,-1.6814,-1.6908,-1.6908,-1.6908,-1.6908,-1.6908,-1.6908,-1.6908,-1.6908,-1.6586,-1.6158,-1.6158,-1.5824,-1.5321,-1.5321,-1.5321,-1.5321,-1.5321,-1.5321,-1.5321,-1.5321,-1.6044,-1.6908,-1.6908,-1.6908,-1.6908,-1.6908,-1.6908,-1.6908,-1.6908,-1.6908,-1.6908,-1.6908,-1.6908,-1.6835,-1.656,-1.6303,-1.6015,-1.546,-1.4984,-1.4591,-1.421,-1.3939,-1.3739,-1.3601,-1.361,-1.3571,-1.3511,-1.3601,-1.3631,-1.3511,-1.3571,-1.3571,-1.3511,-1.3511,-1.3541,-1.3601,-1.361,-1.3662,-1.3803,-1.3662,-1.3662,-1.3812,-1.3812,-1.3812,-1.3812,-1.3902,-1.3983,-1.4103,-1.4341,-1.4667,-1.5021,-1.4697,-1.4835,-1.5255,-1.4835,-1.4662,-1.4689,-1.5096,-1.528,-1.5423,-1.6044,-1.6361,-1.6541,-1.6459,-1.6541,-1.6615,-1.6862,-1.6908,-1.6908,-1.6908,-1.6908,-1.6908,-1.6908,-1.6908,-1.6908,-1.6908,-1.6908,-1.6908,-1.6908,-1.6908,-1.6908,-1.6908,-1.6908,-1.6908,-1.6908,-1.6908,-1.6908,-1.6908,-1.6908,-1.6908,-1.6908,-1.6908,-1.6908,-1.6908,-1.6908,-1.6908,-1.6874,-1.6621,-1.6482,-1.6482,-1.6149,-1.6044,-1.6044,-1.6044,-1.5754,-1.5365,-1.5365,-1.5037,-1.4601,-1.4601,-1.4601,-1.4601,-1.4601,-1.4601,-1.4601,-1.4601,-1.5251,-1.6044,-1.6044,-1.6044,-1.6044,-1.6044,-1.6254,-1.6482,-1.6482,-1.6691,-1.6908,-1.6908,-1.672,-1.6547,-1.6266,-1.5867,-1.5375,-1.4872,-1.4533,-1.4193,-1.3834,-1.3731,-1.364,-1.3511,-1.3511,-1.3511,-1.3511,-1.3511,-1.3511,-1.3511,-1.3511,-1.3511,-1.3511,-1.3511,-1.3511,-1.3511,-1.3511,-1.3511,-1.3511,-1.3511,-1.3511,-1.3511,-1.3511,-1.3511,-1.3511,-1.3511,-1.3511,-1.3511,-1.364,-1.3872,-1.4231,-1.3941,-1.4082,-1.4451,-1.4091,-1.395,-1.4036,-1.4498,-1.4758,-1.497,-1.5606,-1.6056,-1.6358,-1.6835,-1.6908,-1.6908,-1.6908,-1.6908,-1.6908,-1.6908,-1.6908,-1.6908,-1.6908,-1.6908,-1.6908,-1.6908,-1.6908,-1.6908,-1.6908,-1.6908,-1.6908,-1.6908,-1.6908,-1.6908,-1.6908,-1.6908,-1.6908,-1.6908,-1.6908,-1.6908,-1.6908,-1.6908,-1.6908,-1.6908,-1.6839,-1.683,-1.6795,-1.6053,-1.5727,-1.5657,-1.4931,-1.4601,-1.4601,-1.4601,-1.4565,-1.453,-1.453,-1.4494,-1.4422,-1.4422,-1.4422,-1.4422,-1.4422,-1.4422,-1.4422,-1.4422,-1.4422,-1.4458,-1.4565,-1.4601,-1.4601,-1.4673,-1.5223,-1.5798,-1.5868,-1.6385,-1.6862,-1.6862,-1.6458,-1.6066,-1.6005,-1.523,-1.4577,-1.4542,-1.4127,-1.3769,-1.3769,-1.361,-1.3511,-1.3511,-1.3511,-1.3511,-1.3511,-1.3511,-1.3511,-1.3511,-1.3511,-1.3511,-1.3511,-1.3511,-1.3511,-1.3511,-1.3511,-1.3511,-1.3511,-1.3511,-1.3511,-1.3511,-1.3511,-1.3511,-1.3511,-1.3511,-1.3511,-1.3511,-1.3511,-1.3511,-1.3511,-1.3511,-1.3601,-1.3769,-1.3769,-1.386,-1.401,-1.4198,-1.4523,-1.487,-1.5031,-1.5579,-1.6206,-1.689,-1.6908,-1.6908,-1.6908,-1.6908,-1.6908,-1.6908,-1.6908,-1.6908,-1.6908,-1.6908,-1.6908,-1.6908,-1.6908,-1.6908,-1.6908,-1.6908,-1.6908,-1.6908,-1.6908,-1.6908,-1.6908,-1.6908,-1.6908,-1.6908,-1.6908,-1.6908,-1.6908,-1.6908,-1.6908,-1.6874,-1.6333,-1.6044,-1.6017,-1.5251,-1.4887,-1.4859,-1.4673,-1.4601,-1.4601,-1.4601,-1.4243,-1.3745,-1.3745,-1.3382,-1.2842,-1.2842,-1.2842,-1.2842,-1.2842,-1.2842,-1.2842,-1.2842,-1.2842,-1.3091,-1.4243,-1.4601,-1.4744,-1.5365,-1.5648,-1.5939,-1.6508,-1.6542,-1.6425,-1.6324,-1.5939,-1.5517,-1.5051,-1.4697,-1.436,-1.4053,-1.3761,-1.3571,-1.3571,-1.3541,-1.3511,-1.3511,-1.3511,-1.3511,-1.3511,-1.3511,-1.3511,-1.3511,-1.3511,-1.3511,-1.3511,-1.3511,-1.3511,-1.3511,-1.3511,-1.3511,-1.3511,-1.3511,-1.3511,-1.3511,-1.3511,-1.3511,-1.3511,-1.3511,-1.3511,-1.3511,-1.3511,-1.3511,-1.3511,-1.3511,-1.3541,-1.3571,-1.3571,-1.367,-1.386,-1.401,-1.4222,-1.4508,-1.493,-1.5221,-1.5478,-1.6908,-1.6908,-1.6908,-1.6908,-1.6908,-1.6908,-1.6908,-1.6908,-1.6908,-1.6908,-1.6908,-1.6908,-1.6908,-1.6908,-1.6908,-1.6908,-1.6908,-1.6908,-1.6908,-1.6908,-1.6908,-1.6908,-1.6908,-1.6908,-1.6908,-1.6908,-1.6726,-1.6403,-1.6403,-1.6228,-1.586,-1.6149,-1.5939,-1.5223,-1.478,-1.443,-1.407,-1.3702,-1.3564,-1.3564,-1.3564,-1.331,-1.2952,-1.2952,-1.2666,-1.2305,-1.2305,-1.2305,-1.2305,-1.2305,-1.2305,-1.2305,-1.2305,-1.2305,-1.2445,-1.331,-1.3818,-1.4106,-1.4178,-1.4716,-1.5359,-1.5861,-1.6018,-1.599,-1.5743,-1.5328,-1.4884,-1.4577,-1.4236,-1.3921,-1.3714,-1.3571,-1.3511,-1.3511,-1.3511,-1.3511,-1.3511,-1.3511,-1.3511,-1.3511,-1.3511,-1.3511,-1.3511,-1.3511,-1.3511,-1.3511,-1.3511,-1.3511,-1.3511,-1.3511,-1.3511,-1.3511,-1.3511,-1.3511,-1.3511,-1.3511,-1.3511,-1.3511,-1.3511,-1.3511,-1.3511,-1.3511,-1.3511,-1.3511,-1.3511,-1.3511,-1.3511,-1.3511,-1.3571,-1.367,-1.3851,-1.401,-1.4195,-1.4593,-1.4885,-1.5166,-1.6908,-1.6908,-1.6908,-1.6908,-1.6908,-1.6908,-1.6908,-1.6908,-1.6908,-1.6908,-1.6908,-1.6908,-1.6908,-1.6908,-1.6908,-1.6908,-1.6908,-1.6908,-1.6908,-1.6908,-1.6908,-1.6908,-1.6908,-1.6908,-1.6908,-1.6795,-1.6438,-1.5798,-1.5798,-1.5401,-1.4637,-1.5939,-1.5789,-1.4422,-1.4314,-1.3926,-1.328,-1.2592,-1.2305,-1.2305,-1.2305,-1.2305,-1.2305,-1.2305,-1.2305,-1.2305,-1.2305,-1.2305,-1.2305,-1.2305,-1.2305,-1.2305,-1.2305,-1.2305,-1.2305,-1.2305,-1.2814,-1.3252,-1.2615,-1.3418,-1.4478,-1.4651,-1.5002,-1.5216,-1.487,-1.4377,-1.4016,-1.3985,-1.365,-1.3351,-1.3351,-1.342,-1.3511,-1.3511,-1.3511,-1.3511,-1.3511,-1.3411,-1.339,-1.3472,-1.342,-1.3381,-1.3472,-1.3511,-1.348,-1.342,-1.348,-1.348,-1.342,-1.348,-1.3511,-1.3511,-1.3511,-1.3511,-1.3511,-1.3511,-1.3511,-1.3511,-1.3511,-1.3511,-1.3511,-1.3511,-1.3511,-1.3511,-1.3511,-1.3511,-1.3511,-1.3511,-1.3511,-1.3571,-1.3731,-1.389,-1.401,-1.4079,-1.4384,-1.4794,-1.6908,-1.6908,-1.6908,-1.6908,-1.6908,-1.6908,-1.6908,-1.6908,-1.6908,-1.6908,-1.6908,-1.6908,-1.6908,-1.6908,-1.6908,-1.6908,-1.6908,-1.6908,-1.6908,-1.6908,-1.6908,-1.6908,-1.6908,-1.6908,-1.6908,-1.6298,-1.5903,-1.5798,-1.5798,-1.5401,-1.4601,-1.4851,-1.4494,-1.3637,-1.2952,-1.2586,-1.2482,-1.2342,-1.2305,-1.2305,-1.2305,-1.2305,-1.2305,-1.2305,-1.2305,-1.2305,-1.2305,-1.2305,-1.2305,-1.2305,-1.2305,-1.2305,-1.2305,-1.2305,-1.2305,-1.2305,-1.2589,-1.2934,-1.302,-1.3386,-1.3758,-1.3735,-1.341,-1.3042,-1.2881,-1.2506,-1.2166,-1.1995,-1.2336,-1.2665,-1.2665,-1.313,-1.3511,-1.3511,-1.3511,-1.3511,-1.3511,-1.3009,-1.2879,-1.342,-1.3009,-1.2887,-1.345,-1.3511,-1.339,-1.3103,-1.3338,-1.339,-1.3103,-1.3368,-1.3511,-1.3511,-1.3511,-1.3511,-1.3511,-1.3511,-1.3511,-1.3511,-1.3511,-1.3511,-1.3511,-1.3511,-1.3511,-1.3511,-1.3511,-1.3511,-1.3511,-1.3511,-1.361,-1.3761,-1.3799,-1.389,-1.395,-1.3411,-1.3263,-1.3294,-1.6908,-1.6908,-1.6908,-1.6908,-1.6908,-1.6908,-1.6908,-1.6908,-1.6908,-1.6908,-1.6908,-1.6908,-1.6908,-1.6908,-1.6908,-1.6908,-1.6908,-1.6908,-1.6908,-1.6908,-1.6908,-1.6908,-1.6908,-1.6908,-1.6908,-1.5365,-1.4752,-1.5144,-1.4752,-1.4142,-1.3382,-1.4207,-1.3998,-1.2849,-1.2915,-1.2703,-1.2305,-1.2305,-1.2305,-1.2305,-1.2305,-1.2305,-1.2305,-1.2305,-1.2305,-1.2305,-1.2305,-1.2305,-1.2305,-1.2305,-1.2305,-1.2305,-1.2305,-1.2224,-1.2124,-1.1966,-1.2042,-1.2205,-1.253,-1.2618,-1.256,-1.2314,-1.2312,-1.2277,-1.1978,-1.1783,-1.1609,-1.1509,-1.1764,-1.195,-1.195,-1.2197,-1.2412,-1.2412,-1.2412,-1.2412,-1.2412,-1.2166,-1.2074,-1.2389,-1.2135,-1.2228,-1.2917,-1.2573,-1.2389,-1.262,-1.2328,-1.2205,-1.2343,-1.2673,-1.2795,-1.2712,-1.323,-1.3321,-1.2978,-1.2948,-1.2948,-1.2948,-1.2604,-1.2787,-1.348,-1.2757,-1.2634,-1.2948,-1.2573,-1.2412,-1.2412,-1.2412,-1.2481,-1.2573,-1.2573,-1.2665,-1.2795,-1.2481,-1.2389,-1.2436,-1.6908,-1.6908,-1.6908,-1.6908,-1.6908,-1.6908,-1.6908,-1.6908,-1.6908,-1.6908,-1.6908,-1.6908,-1.6908,-1.6908,-1.6908,-1.6908,-1.6908,-1.6908,-1.6908,-1.6726,-1.6726,-1.6908,-1.6726,-1.6656,-1.6656,-1.4573,-1.3781,-1.435,-1.3781,-1.3098,-1.2342,-1.3702,-1.36,-1.2342,-1.2952,-1.2879,-1.2305,-1.2305,-1.2305,-1.2305,-1.2305,-1.2305,-1.2305,-1.2305,-1.2305,-1.2305,-1.2305,-1.2305,-1.2305,-1.2305,-1.2268,-1.2218,-1.2151,-1.2015,-1.178,-1.153,-1.1365,-1.1338,-1.1655,-1.1553,-1.1276,-1.0962,-1.12,-1.1421,-1.1111,-1.1055,-1.1055,-1.1055,-1.1149,-1.1274,-1.1274,-1.1392,-1.1516,-1.1516,-1.1516,-1.1516,-1.1516,-1.1361,-1.1298,-1.1454,-1.1329,-1.1485,-1.2104,-1.1703,-1.1586,-1.2027,-1.1617,-1.1492,-1.1841,-1.2243,-1.2436,-1.2351,-1.2956,-1.3009,-1.2512,-1.2665,-1.2665,-1.2512,-1.2135,-1.2512,-1.345,-1.2258,-1.2012,-1.2473,-1.195,-1.1734,-1.1734,-1.1734,-1.1734,-1.1734,-1.1547,-1.1578,-1.1703,-1.1555,-1.1555,-1.1648,-1.6908,-1.6908,-1.6908,-1.6908,-1.6908,-1.6908,-1.6908,-1.6908,-1.6908,-1.6908,-1.6908,-1.6908,-1.6908,-1.6908,-1.6908,-1.6908,-1.6908,-1.6908,-1.6908,-1.6263,-1.6193,-1.6874,-1.6263,-1.5868,-1.5868,-1.4322,-1.3535,-1.3564,-1.3535,-1.3098,-1.2335,-1.3171,-1.3135,-1.2305,-1.2372,-1.2378,-1.2305,-1.2305,-1.2305,-1.2305,-1.2305,-1.2305,-1.2305,-1.2305,-1.2305,-1.2305,-1.2305,-1.2305,-1.2305,-1.2305,-1.2187,-1.1994,-1.1732,-1.1504,-1.1303,-1.1029,-1.0631,-1.0357,-1.0571,-1.0332,-1.0037,-0.9929,-0.9797,-0.9695,-0.9644,-0.9638,-0.9638,-0.9638,-1.0142,-1.0573,-1.0573,-1.1094,-1.1516,-1.1516,-1.1516,-1.1516,-1.1516,-1.0968,-1.0755,-1.1274,-1.0773,-1.0584,-1.1048,-1.1516,-1.1648,-1.1397,-1.1988,-1.2297,-1.2089,-1.2644,-1.3094,-1.339,-1.2856,-1.2543,-1.2512,-1.313,-1.31,-1.2512,-1.307,-1.3411,-1.348,-1.2757,-1.2451,-1.2512,-1.2451,-1.242,-1.242,-1.242,-1.242,-1.2351,-1.1726,-1.1516,-1.1454,-1.0818,-1.0604,-1.0516,-1.6114,-1.5833,-1.5463,-1.5463,-1.5463,-1.5463,-1.5463,-1.5463,-1.5463,-1.5463,-1.5463,-1.5463,-1.5463,-1.5463,-1.5463,-1.5463,-1.5463,-1.5463,-1.5463,-1.5215,-1.518,-1.5463,-1.4788,-1.4573,-1.5037,-1.3528,-1.2989,-1.3499,-1.2989,-1.2592,-1.2305,-1.2629,-1.2592,-1.2305,-1.2305,-1.2305,-1.2305,-1.2305,-1.2305,-1.2305,-1.2305,-1.2305,-1.2305,-1.2305,-1.2305,-1.2305,-1.2305,-1.2231,-1.2087,-1.191,-1.1742,-1.151,-1.1269,-1.1039,-1.0779,-1.0402,-1.0037,-0.9791,-0.9862,-0.9764,-0.9642,-0.9637,-0.9548,-0.9516,-0.9516,-0.9516,-0.9516,-0.9516,-0.9702,-0.9894,-0.9894,-1.0104,-1.0256,-1.0256,-1.0186,-1.0148,-1.0148,-0.9805,-0.9652,-0.9862,-0.9646,-0.9862,-1.0804,-1.03,-1.0186,-1.0748,-1.0307,-1.0123,-1.0345,-1.0793,-1.1358,-1.2112,-1.1562,-1.1469,-1.1888,-1.2543,-1.2543,-1.1888,-1.1717,-1.2089,-1.2826,-1.1305,-1.0881,-1.1257,-1.0818,-1.0629,-1.0629,-1.0629,-1.0629,-1.0598,-1.0351,-1.0256,-1.0225,-0.9983,-0.9894,-0.983,-1.5321,-1.4966,-1.4601,-1.4601,-1.4601,-1.4601,-1.4601,-1.4601,-1.4601,-1.4601,-1.4601,-1.4601,-1.4601,-1.4601,-1.4601,-1.4601,-1.4601,-1.4601,-1.4601,-1.4386,-1.435,-1.4601,-1.389,-1.3745,-1.4243,-1.2989,-1.2556,-1.3135,-1.2556,-1.2305,-1.2305,-1.2305,-1.2305,-1.2305,-1.2305,-1.2305,-1.2305,-1.2305,-1.2305,-1.2305,-1.2305,-1.2305,-1.2298,-1.2224,-1.2224,-1.2187,-1.212,-1.1981,-1.1767,-1.1579,-1.1307,-1.1045,-1.0773,-1.0492,-1.0184,-0.9868,-0.9654,-0.9516,-0.9516,-0.9516,-0.9516,-0.9516,-0.9516,-0.9516,-0.9516,-0.9516,-0.9516,-0.9516,-0.9516,-0.9516,-0.9516,-0.9478,-0.9446,-0.9446,-0.9312,-0.921,-0.921,-0.9081,-0.8985,-0.8958,-0.8926,-0.9236,-0.999,-0.9396,-0.9274,-1.0047,-0.9396,-0.9172,-0.9646,-0.9786,-1.0288,-1.1173,-1.0811,-1.0717,-1.1017,-1.1795,-1.1857,-1.118,-1.0937,-1.1313,-1.2135,-1.0534,-1.0047,-1.0485,-1.0015,-0.983,-0.983,-0.983,-0.983,-0.9798,-0.958,-0.9516,-0.9516,-0.9516,-0.9516,-0.9516,-1.4601,-1.4601,-1.4565,-1.4565,-1.4565,-1.4565,-1.4565,-1.4565,-1.4565,-1.4565,-1.4565,-1.4565,-1.4565,-1.4565,-1.4565,-1.4565,-1.4565,-1.4565,-1.4565,-1.389,-1.3818,-1.4565,-1.389,-1.3499,-1.3499,-1.2703,-1.2305,-1.2305,-1.2305,-1.2305,-1.2305,-1.2305,-1.2305,-1.2305,-1.2305,-1.2305,-1.2305,-1.2305,-1.2305,-1.2305,-1.2305,-1.2305,-1.2268,-1.2077,-1.2003,-1.1966,-1.1781,-1.1528,-1.1293,-1.1293,-1.0968,-1.0554,-1.0288,-0.989,-0.9516,-0.9516,-0.9516,-0.9516,-0.9516,-0.9516,-0.9516,-0.9516,-0.9516,-0.9516,-0.9516,-0.9516,-0.9516,-0.9516,-0.9484,-0.9484,-0.9484,-0.9376,-0.9306,-0.9306,-0.9113,-0.8985,-0.8985,-0.8985,-0.8958,-0.8802,-0.8802,-0.8705,-0.8517,-0.899,-0.9306,-0.9306,-0.9741,-1.0142,-1.0483,-1.0174,-1.03,-1.0954,-1.086,-1.0521,-0.9983,-1.1017,-1.1149,-1.0516,-1.118,-1.1478,-1.1485,-1.0787,-1.0485,-1.0485,-1.0485,-1.0485,-1.0485,-1.0485,-1.0485,-1.0421,-0.9766,-0.9516,-0.9516,-0.9516,-0.9516,-0.9516,-1.3709,-1.3382,-1.2989,-1.2989,-1.2989,-1.2989,-1.2989,-1.2989,-1.2989,-1.2989,-1.2989,-1.2989,-1.2989,-1.2989,-1.2989,-1.2989,-1.2989,-1.2989,-1.2989,-1.2776,-1.2776,-1.2989,-1.2776,-1.2666,-1.2666,-1.2409,-1.2305,-1.2305,-1.2305,-1.2305,-1.2305,-1.2305,-1.2305,-1.2305,-1.2305,-1.2305,-1.2298,-1.215,-1.2077,-1.2077,-1.1929,-1.1892,-1.1855,-1.1818,-1.1781,-1.1755,-1.152,-1.1291,-1.1022,-1.0676,-1.0359,-1.0074,-0.978,-0.9608,-0.9516,-0.9516,-0.9516,-0.9516,-0.9516,-0.9516,-0.9516,-0.9516,-0.9516,-0.9516,-0.9516,-0.9516,-0.9516,-0.9516,-0.9414,-0.9376,-0.9376,-0.921,-0.9081,-0.9081,-0.8958,-0.8861,-0.8861,-0.8738,-0.8641,-0.8582,-0.8576,-0.8705,-0.9022,-0.8861,-0.8894,-0.9274,-0.9081,-0.8985,-0.9081,-0.9145,-0.9242,-0.946,-0.9524,-0.9518,-0.9524,-1.0829,-1.1111,-1.0376,-1.0661,-1.0787,-1.0787,-1.011,-0.9798,-0.9798,-0.9798,-0.9798,-0.9798,-0.9798,-0.9798,-0.9766,-0.958,-0.9516,-0.9516,-0.9516,-0.9516,-0.9516,-1.2915,-1.2629,-1.2305,-1.2305,-1.2305,-1.2305,-1.2305,-1.2305,-1.2305,-1.2305,-1.2305,-1.2305,-1.2305,-1.2305,-1.2258,-1.2138,-1.2024,-1.2004,-1.2124,-1.2131,-1.2184,-1.2298,-1.2305,-1.2305,-1.2305,-1.2305,-1.2305,-1.2305,-1.2305,-1.2305,-1.2305,-1.2305,-1.2305,-1.2305,-1.2305,-1.2305,-1.2298,-1.2077,-1.1818,-1.1508,-1.1323,-1.1025,-1.0752,-1.0615,-1.0537,-1.0503,-1.0175,-1.0125,-1.0101,-0.9795,-0.9696,-0.9721,-0.9564,-0.9516,-0.9516,-0.9516,-0.9516,-0.9516,-0.9516,-0.9446,-0.9414,-0.9414,-0.9446,-0.9516,-0.9516,-0.9516,-0.9516,-0.9516,-0.9376,-0.9306,-0.9306,-0.9087,-0.8926,-0.8926,-0.8802,-0.8673,-0.8673,-0.8576,-0.8517,-0.8517,-0.8517,-0.8641,-0.8958,-0.8705,-0.8641,-0.8958,-0.8673,-0.8517,-0.8517,-0.8608,-0.8673,-0.8673,-0.8829,-0.899,-0.9119,-1.0117,-1.0401,-0.997,-1.0079,-1.011,-1.0079,-0.967,-0.9516,-0.9516,-0.9516,-0.9516,-0.9516,-0.9516,-0.9516,-0.9516,-0.9516,-0.9516,-0.9516,-0.9516,-0.9516,-0.9516,-1.2305,-1.2305,-1.2305,-1.2305,-1.2305,-1.2305,-1.2305,-1.2305,-1.2305,-1.2305,-1.2305,-1.2305,-1.2305,-1.2278,-1.2158,-1.1926,-1.1597,-1.1543,-1.1846,-1.1866,-1.1944,-1.2211,-1.2151,-1.2128,-1.2154,-1.2254,-1.2305,-1.2305,-1.2305,-1.2261,-1.2194,-1.2194,-1.215,-1.2077,-1.2077,-1.2077,-1.204,-1.1818,-1.1323,-1.0634,-1.0415,-0.9879,-0.9208,-0.8896,-0.877,-0.8689,-0.8285,-0.8433,-0.8801,-0.8779,-0.9002,-0.9318,-0.9318,-0.9318,-0.9318,-0.9318,-0.9318,-0.9318,-0.9382,-0.928,-0.9204,-0.9274,-0.9376,-0.9452,-0.9452,-0.9478,-0.9484,-0.9452,-0.9344,-0.9242,-0.9242,-0.899,-0.877,-0.877,-0.8608,-0.8517,-0.8517,-0.8517,-0.8517,-0.8517,-0.8517,-0.8517,-0.8517,-0.8517,-0.8517,-0.8517,-0.8517,-0.8517,-0.8517,-0.8517,-0.8517,-0.8517,-0.8705,-0.8802,-0.8835,-0.9145,-0.9376,-0.9484,-0.9484,-0.9516,-0.9516,-0.9516,-0.9516,-0.9516,-0.9516,-0.9516,-0.9516,-0.9516,-0.9516,-0.9516,-0.9516,-0.9452,-0.9414,-0.9414,-0.9382,-0.9318,-1.2305,-1.2305,-1.2305,-1.2305,-1.2305,-1.2305,-1.2305,-1.2305,-1.2305,-1.2305,-1.2305,-1.2305,-1.2305,-1.2098,-1.1973,-1.1913,-1.1597,-1.1415,-1.1482,-1.1523,-1.1515,-1.1575,-1.108,-1.0899,-1.1051,-1.1855,-1.2305,-1.2305,-1.2305,-1.1966,-1.1372,-1.1372,-1.1031,-1.0421,-1.0271,-1.0196,-1.0158,-0.9787,-0.9561,-0.9372,-0.9188,-0.8938,-0.867,-0.8585,-0.8459,-0.8281,-0.7999,-0.7967,-0.8,-0.7801,-0.7784,-0.7842,-0.7842,-0.7842,-0.7842,-0.7842,-0.7842,-0.7944,-0.8366,-0.8463,-0.8528,-0.8952,-0.9081,-0.9119,-0.9119,-0.9247,-0.9306,-0.9151,-0.899,-0.8899,-0.8899,-0.8705,-0.8582,-0.8582,-0.8517,-0.8517,-0.8517,-0.8517,-0.8517,-0.8517,-0.8517,-0.8517,-0.8517,-0.8517,-0.8517,-0.8517,-0.8517,-0.8517,-0.8517,-0.8517,-0.8517,-0.8517,-0.8705,-0.8861,-0.8952,-0.9177,-0.9306,-0.9338,-0.9446,-0.9516,-0.9516,-0.9516,-0.9516,-0.9516,-0.9516,-0.9516,-0.9516,-0.9516,-0.9516,-0.9516,-0.9516,-0.9183,-0.8721,-0.8721,-0.8366,-0.7842,-1.2305,-1.2305,-1.2305,-1.2305,-1.2305,-1.2305,-1.2305,-1.2305,-1.2305,-1.2305,-1.2305,-1.2215,-1.2002,-1.1921,-1.1792,-1.1511,-1.1115,-1.0803,-1.0596,-1.0602,-1.0449,-1.0187,-0.9811,-0.97,-0.98,-1.0354,-1.0803,-1.1174,-1.1062,-1.0801,-1.0389,-1.0276,-1.0013,-0.9599,-0.9523,-0.9448,-0.9448,-0.9112,-0.8775,-0.8418,-0.8096,-0.7704,-0.7298,-0.7165,-0.7037,-0.6925,-0.6713,-0.6877,-0.7161,-0.7353,-0.7386,-0.7386,-0.7386,-0.7354,-0.7316,-0.7316,-0.7316,-0.7349,-0.7544,-0.7577,-0.7707,-0.8231,-0.8393,-0.8495,-0.892,-0.9081,-0.9113,-0.9017,-0.8894,-0.8802,-0.8802,-0.8641,-0.8517,-0.8517,-0.8517,-0.8517,-0.8517,-0.8517,-0.8517,-0.8517,-0.8517,-0.8517,-0.8517,-0.8517,-0.8517,-0.8517,-0.8517,-0.8517,-0.8517,-0.8517,-0.8517,-0.8517,-0.8614,-0.8738,-0.8894,-0.9081,-0.921,-0.9306,-0.9446,-0.9516,-0.9516,-0.9516,-0.9516,-0.9516,-0.9516,-0.9516,-0.9516,-0.9516,-0.9516,-0.9484,-0.9151,-0.8818,-0.8458,-0.8102,-0.7744,-0.7386,-1.2305,-1.2305,-1.2305,-1.2305,-1.2305,-1.2305,-1.2305,-1.2305,-1.2298,-1.2268,-1.2157,-1.1972,-1.1576,-1.1488,-1.1255,-1.0765,-1.0206,-0.975,-0.9435,-0.9419,-0.9203,-0.87,-0.8537,-0.8488,-0.8528,-0.8424,-0.8801,-0.9697,-0.9548,-0.9404,-0.9255,-0.9108,-0.8977,-0.8826,-0.8827,-0.8822,-0.8788,-0.8566,-0.8094,-0.7446,-0.7109,-0.6559,-0.5892,-0.5684,-0.5576,-0.5569,-0.544,-0.5752,-0.6301,-0.6863,-0.706,-0.706,-0.706,-0.6957,-0.6854,-0.6854,-0.6822,-0.6789,-0.6859,-0.6863,-0.7027,-0.7679,-0.7842,-0.8037,-0.8759,-0.8958,-0.8952,-0.892,-0.8829,-0.8738,-0.8738,-0.8608,-0.8517,-0.8517,-0.8517,-0.8517,-0.8517,-0.8517,-0.8517,-0.8517,-0.8517,-0.8517,-0.8517,-0.8517,-0.8517,-0.8517,-0.8517,-0.8517,-0.8517,-0.8517,-0.8517,-0.8517,-0.8549,-0.8646,-0.8802,-0.8926,-0.9017,-0.9075,-0.9183,-0.935,-0.9516,-0.9516,-0.9516,-0.9516,-0.9516,-0.9446,-0.9318,-0.9318,-0.9253,-0.9087,-0.8528,-0.8231,-0.8064,-0.7321,-0.706,-0.706,-1.2305,-1.2305,-1.2305,-1.2305,-1.2305,-1.2305,-1.2305,-1.2305,-1.2224,-1.2077,-1.1595,-1.1267,-1.1325,-1.0394,-0.9687,-0.9544,-0.8797,-0.8301,-0.823,-0.8235,-0.818,-0.8113,-0.7494,-0.725,-0.7425,-0.6854,-0.7333,-0.8953,-0.8917,-0.8537,-0.7874,-0.8006,-0.7686,-0.6958,-0.6958,-0.6863,-0.6686,-0.6503,-0.6275,-0.6075,-0.6017,-0.5862,-0.5644,-0.5606,-0.5542,-0.5423,-0.5402,-0.5458,-0.5557,-0.5624,-0.5657,-0.5657,-0.5657,-0.5554,-0.5382,-0.5382,-0.5253,-0.5355,-0.6441,-0.6741,-0.7003,-0.8117,-0.8382,-0.8414,-0.8544,-0.8705,-0.877,-0.8608,-0.8544,-0.8549,-0.8549,-0.8511,-0.8517,-0.8517,-0.8517,-0.8517,-0.8517,-0.8517,-0.8517,-0.8517,-0.8517,-0.8517,-0.8517,-0.8517,-0.8517,-0.8517,-0.8517,-0.8517,-0.8517,-0.8517,-0.8517,-0.8517,-0.8673,-0.877,-0.8802,-0.8926,-0.8721,-0.8188,-0.8188,-0.8657,-0.9516,-0.9516,-0.9516,-0.9516,-0.9516,-0.9183,-0.8619,-0.8619,-0.8264,-0.7679,-0.7582,-0.7186,-0.6597,-0.5918,-0.5657,-0.5657,-1.1205,-1.1019,-1.0801,-1.0801,-1.0801,-1.0801,-1.0801,-1.0689,-1.0571,-1.0501,-1.0265,-0.9975,-0.9699,-0.8853,-0.8368,-0.856,-0.8124,-0.767,-0.7307,-0.7274,-0.7046,-0.6564,-0.6243,-0.6117,-0.6194,-0.5899,-0.6131,-0.6907,-0.715,-0.7118,-0.677,-0.6733,-0.6513,-0.616,-0.6157,-0.611,-0.6007,-0.5938,-0.5864,-0.5793,-0.5715,-0.5647,-0.5583,-0.5528,-0.5453,-0.5395,-0.5259,-0.516,-0.5063,-0.5063,-0.5063,-0.5063,-0.5063,-0.496,-0.4824,-0.4824,-0.4758,-0.4794,-0.5223,-0.5455,-0.5815,-0.7027,-0.7321,-0.7419,-0.7852,-0.8312,-0.8608,-0.8511,-0.8517,-0.8517,-0.8517,-0.8517,-0.8517,-0.8517,-0.8517,-0.8517,-0.8517,-0.8517,-0.8517,-0.8517,-0.8517,-0.8517,-0.8517,-0.8517,-0.8517,-0.8517,-0.8517,-0.8349,-0.7954,-0.7949,-0.7754,-0.7354,-0.7419,-0.7451,-0.7451,-0.7637,-0.7572,-0.7274,-0.7344,-0.7609,-0.8037,-0.8166,-0.8231,-0.8231,-0.8301,-0.8166,-0.7874,-0.7874,-0.7679,-0.7354,-0.699,-0.6437,-0.5818,-0.5524,-0.5395,-0.5395]}]]